[[{"header":{"parameterUnit":"m.s-1","parameterCategory":1,"la1":31.0,"la2":29.5877,"lo1":-88.7671,"lo2":-86.6584,"dy":0.0162,"dx":0.0185,"nx":115,"ny":88,"refTime":"2023-05-30T06:00:00:Z","depth":0,"parameterNumber":2,"parameterNumberName":"U-component_of_WINDS"},"data":[0.0,0.0,0.0,0.0,0.0,0.0,0.0,0.0,0.0,0.0,0.0,0.0,0.0,0.0,0.0,0.0,0.0,0.0,0.0,0.0,0.0,0.0,0.0,0.0,0.0,0.0,0.0,0.0,0.0,0.0,0.0,0.0,0.0,0.0,0.0,0.0,0.0,0.0,0.0,0.0,0.0,0.0,0.0,0.0,0.0,0.0,0.0,0.0,0.0,0.0,0.0,0.0,0.0,0.0,0.0,0.0,0.0,0.0,0.0,0.0,0.0,0.0,0.0,0.0,0.0,0.0,0.0,0.0,0.0,0.0,0.0,0.0,0.0,0.0,0.0,0.0,0.0,0.0,0.0,0.0,0.0,0.0,0.0,0.0,0.0,0.0,0.0,0.0,0.0,0.0,0.0,0.0,0.0,0.0,0.0,0.0,0.0,0.0,0.0,0.0,0.0,0.0,0.0,0.0,0.0,0.0,0.0,0.0,0.0,0.0,0.0,0.0,0.0,0.0,0.0,0.0,0.0,0.0,0.0,0.0,0.0,0.0,0.0,0.0,0.0,0.0,0.0,0.0,0.0,0.0,0.0,0.0,0.0,0.0,0.0,0.0,0.0,0.0,0.0,0.0,0.0,0.0,0.0,0.0,0.0,0.0,0.0,0.0,0.0,0.0,0.0,0.0,0.0,0.0,0.0,0.0,0.0,0.0,0.0,0.0,0.0,0.0,0.0,0.0,0.0,0.0,0.0,0.0,0.0,0.0,0.0,0.0,0.0,0.0,0.0,0.0,0.0,0.0,0.0,0.0,0.0,0.0,0.0,0.0,0.0,0.0,0.0,0.0,0.0,0.0,0.0,0.0,0.0,0.0,0.0,0.0,0.0,0.0,0.0,0.0,0.0,0.0,0.0,0.0,0.0,0.0,0.0,0.0,0.0,0.0,0.0,0.0,0.0,0.0,0.0,0.0,0.0,0.0,0.0,0.0,0.0,0.0,0.0,0.0,0.0,0.0,0.0,0.0,0.0,0.0,0.0,0.0,0.0,0.0,0.0,0.0,0.0,0.0,0.0,0.0,0.0,0.0,0.0,0.0,0.0,0.0,0.0,0.0,0.0,0.0,0.0,0.0,0.0,0.0,0.0,0.0,0.0,0.0,0.0,0.0,0.0,0.0,0.0,0.0,0.0,0.0,0.0,0.0,0.0,0.0,0.0,0.0,0.0,0.0,0.0,0.0,0.0,0.0,0.0,0.0,0.0,0.0,0.0,0.0,0.0,0.0,0.0,0.0,0.0,0.0,0.0,0.0,0.0,0.0,0.0,0.0,0.0,0.0,0.0,0.0,0.0,0.0,0.0,0.0,0.0,0.0,0.0,0.0,0.0,0.0,0.0,0.0,0.0,0.0,0.0,0.0,0.0,0.0,0.0,0.0,0.0,0.0,0.0,0.0,0.0,0.0,0.0,0.0,0.0,0.0,0.0,0.0,0.0,0.0,0.0,0.0,0.0,0.0,0.0,0.0,0.0,0.0,0.0,0.0,0.0,0.0,0.0,0.0,0.0,0.0,0.0,0.0,0.0,0.0,0.0,0.0,0.0,0.0,0.0,0.0,0.0,0.0,0.0,0.0,0.0,0.0,0.0,0.0,0.0,0.0,0.0,0.0,0.0,0.0,0.0,0.0,0.0,0.0,0.0,0.0,0.0,0.0,0.0,0.0,0.0,0.0,0.0,0.0,0.0,0.0,0.0,0.0,0.0,0.0,0.0,0.0,0.0,0.0,0.0,0.0,0.0,0.0,0.0,0.0,0.0,0.0,0.0,0.0,0.0,0.0,0.0,0.0,0.0,0.0,0.0,0.0,0.0,0.0,0.0,0.0,0.0,0.0,0.0,0.0,0.0,0.0,0.0,0.0,0.0,0.0,0.0,0.0,0.0,0.0,0.0,0.0,0.0,0.0,0.0,0.0,0.0,0.0,0.0,0.0,0.0,0.0,0.0,0.0,0.0,0.0,0.0,0.0,0.0,0.0,0.0,0.0,0.0,0.0,0.0,0.0,0.0,0.0,0.0,0.0,0.0,0.0,0.0,0.0,0.0,0.0,0.0,0.0,0.0,0.0,0.0,0.0,0.0,0.0,0.0,0.0,0.0,0.0,0.0,0.0,0.0,0.0,0.0,0.0,0.0,0.0,0.0,0.0,0.0,0.0,0.0,0.0,0.0,0.0,0.0,0.0,0.0,0.0,0.0,0.0,0.0,0.0,0.0,0.0,0.0,0.0,0.0,0.0,0.0,0.0,0.0,0.0,0.0,0.0,0.0,0.0,0.0,0.0,0.0,0.0,0.0,0.0,0.0,0.0,0.0,0.0,0.0,0.0,0.0,0.0,0.0,0.0,0.0,0.0,0.0,0.0,0.0,0.0,0.0,0.0,0.0,0.0,0.0,0.0,0.0,0.0,0.0,0.0,0.0,0.0,0.0,0.0,0.0,0.0,0.0,0.0,0.0,0.0,0.0,0.0,0.0,0.0,0.0,0.0,0.0,0.0,0.0,0.0,0.0,0.0,0.0,0.0,0.0,0.0,0.0,0.0,0.0,0.0,0.0,0.0,0.0,0.0,0.0,0.0,0.0,0.0,0.0,0.0,0.0,0.0,0.0,0.0,0.0,0.0,0.0,0.0,0.0,0.0,0.0,0.0,0.0,0.0,0.0,0.0,0.0,0.0,0.0,0.0,0.0,0.0,0.0,0.0,0.0,0.0,0.0,0.0,0.0,0.0,0.0,0.0,0.0,0.0,0.0,0.0,0.0,0.0,0.0,0.0,0.0,0.0,0.0,0.0,0.0,0.0,0.0,0.0,0.0,0.0,0.0,0.0,0.0,0.0,0.0,0.0,0.0,0.0,0.0,0.0,0.0,0.0,0.0,0.0,0.0,0.0,0.0,0.0,0.0,0.0,0.0,0.0,0.0,0.0,0.0,0.0,0.0,0.0,0.0,0.0,0.0,0.0,0.0,0.0,0.0,0.0,0.0,0.0,0.0,0.0,0.0,0.0,0.0,0.0,0.0,0.0,0.0,0.0,0.0,0.0,0.0,0.0,0.0,0.0,0.0,0.0,0.0,0.0,0.0,0.0,0.0,0.0,0.0,0.0,0.0,0.0,0.0,0.0,0.0,0.0,0.0,0.0,0.0,0.0,0.0,0.0,0.0,0.0,0.0,0.0,0.0,0.0,0.0,0.0,0.0,0.0,0.0,0.0,0.0,0.0,0.0,0.0,0.0,0.0,0.0,0.0,0.0,0.0,0.0,0.0,0.0,0.0,0.0,0.0,0.0,0.0,0.0,0.0,0.0,0.0,0.0,0.0,0.0,0.0,0.0,0.0,0.0,0.0,0.0,0.0,0.0,0.0,0.0,0.0,0.0,0.0,0.0,0.0,0.0,0.0,0.0,0.0,0.0,0.0,0.0,0.0,0.0,0.0,0.0,0.0,0.0,0.0,0.0,0.0,0.0,0.0,0.0,0.0,0.0,0.0,0.0,0.0,0.0,0.0,0.0,0.0,0.0,0.0,0.0,0.0,0.0,0.0,0.0,0.0,0.0,0.0,0.0,0.0,0.0,0.0,0.0,0.0,0.0,0.0,0.0,0.0,0.0,0.0,0.0,0.0,0.0,0.0,0.0,0.0,0.0,0.0,0.0,0.0,0.0,0.0,0.0,0.0,0.0,0.0,0.0,0.0,0.0,0.0,0.0,0.0,0.0,0.0,0.0,0.0,0.0,0.0,0.0,0.0,0.0,0.0,0.0,0.0,0.0,0.0,0.0,0.0,0.0,0.0,0.0,0.0,0.0,0.0,0.0,0.0,0.0,0.0,0.0,0.0,0.0,0.0,0.0,0.0,0.0,0.0,0.0,0.0,0.0,0.0,0.0,0.0,0.0,0.0,0.0,0.0,0.0,0.0,0.0,0.0,0.0,0.0,0.0,0.0,0.0,0.0,0.0,0.0,0.0,0.0,0.0,0.0,0.0,0.0,0.0,0.0,0.0,0.0,0.0,0.0,0.0,0.0,0.0,0.0,0.0,0.0,0.0,0.0,0.0,0.0,0.0,0.0,0.0,0.0,0.0,0.0,0.0,0.0,0.0,0.0,0.0,0.0,0.0,0.0,0.0,0.0,0.0,0.0,0.0,0.0,0.0,0.0,0.0,0.0,0.0,0.0,0.0,0.0,0.0,0.0,0.0,0.0,0.0,0.0,0.0,0.0,0.0,0.0,0.0,0.0,0.0,0.0,0.0,0.0,0.0,0.0,0.9811,0.0,0.0,0.0,0.0,0.0,0.0,0.0,0.0,0.0,0.0,0.0,0.0,0.0,0.0,0.0,0.0,0.0,0.0,0.0,0.0,0.0,0.0,0.0,0.0,0.0,0.0,0.0,0.0,0.0,0.0,0.0,0.0,0.0,0.0,0.0,0.0,0.0,0.0,0.0,0.0,0.0,0.0,0.0,0.0,0.0,0.0,0.0,0.0,0.0,0.0,0.0,0.0,0.0,0.0,0.0,0.0,0.0,0.0,0.0,0.0,0.0,0.0,0.0,0.0,0.0,0.0,0.0,0.0,0.0,0.0,0.0,0.0,0.0,0.0,0.0,0.0,0.0,0.0,0.0,0.0,0.0,0.0,0.0,0.0,0.0,0.0,0.0,0.0,0.0,0.0,0.0,0.0,0.0,0.0,0.0,0.0,0.0,0.0,0.0,0.0,0.0,0.0,0.0,0.0,0.0,0.0,0.0,0.0,0.0,0.0,1.0424,0.9028,0.7948,0.7304,0.7041,0.0,0.0,0.0,0.0,0.0,0.0,0.0,0.0,0.0,0.0,0.0,0.0,0.0,0.0,0.0,0.0,0.0,0.0,0.0,0.0,0.0,0.0,0.0,0.0,0.0,0.0,0.0,0.0,0.0,0.0,0.0,0.0,0.0,0.0,0.0,0.0,0.0,0.0,0.0,0.0,0.0,0.0,0.0,0.0,0.0,0.0,0.0,0.0,0.0,0.0,0.0,0.0,0.0,0.0,0.0,0.0,0.0,0.0,0.0,0.0,0.0,0.0,0.0,0.0,0.0,0.0,0.0,0.0,0.0,0.0,0.0,0.0,0.0,0.0,0.0,0.0,0.0,0.0,0.0,0.0,0.0,0.0,0.0,0.0,0.0,0.0,0.0,0.0,0.0,0.0,0.0,0.0,0.0,0.0,0.0,0.0,0.0,0.0,0.0,0.0,0.0,0.0,0.0,0.0,0.0,0.0,0.0,0.0,0.0,0.0,0.0,0.0,0.5848,0.5131,0.3851,0.0,0.0,0.0,0.0,0.0,0.0,0.0,0.0,0.0,0.0,0.0,0.0,0.0,0.0,0.0,0.0,0.0,0.0,0.0,0.0,0.0,0.0,0.0,0.0,0.0,0.0,0.0,0.0,0.0,0.0,0.0,0.0,0.0,0.0,0.0,0.0,0.0,0.0,0.0,0.0,0.0,0.0,0.0,0.0,0.0,0.0,0.0,0.0,0.0,0.0,0.0,0.0,0.0,0.0,0.0,0.0,0.0,0.0,0.0,0.0,0.0,0.0,0.0,0.0,0.0,0.0,0.0,0.0,0.0,0.0,0.0,0.0,0.0,0.0,0.0,0.0,0.0,0.0,0.0,0.0,0.0,0.0,0.0,0.0,0.0,0.0,0.0,0.0,0.0,0.0,0.0,0.0,0.0,0.0,0.0,0.0,0.0,0.0,0.0,0.0,0.0,0.0,0.0,0.0,0.0,0.0,0.0,0.0,0.0,0.0,0.587,0.4334,0.4348,0.0,0.3115,0.0,0.0,0.0,0.0,0.0,0.0,0.0,0.0,0.0,0.0,0.0,0.0,0.0,0.0,0.0,0.0,0.0,0.0,0.0,0.0,0.0,0.0,0.0,0.0,0.0,0.0,0.0,0.0,0.0,0.0,0.0,0.0,0.0,0.0,0.0,0.0,0.0,0.0,0.0,0.0,0.0,0.0,0.0,0.0,0.0,0.0,0.0,0.0,0.0,0.0,0.0,0.0,0.0,0.0,0.0,0.0,0.0,0.0,0.0,0.0,0.0,0.0,0.0,0.0,0.0,0.0,0.0,0.0,0.0,0.0,0.0,0.0,0.0,0.0,0.0,0.0,0.0,0.0,0.0,0.0,0.0,0.0,0.0,0.0,0.0,0.0,0.0,0.0,0.0,0.0,0.0,0.0,0.0,0.0,0.0,0.0,0.0,0.0,0.0,0.0,0.0,0.0,0.0,0.0,0.0,0.0,0.0,0.0,0.0,0.0,0.3932,0.0927,0.0681,0.0311,0.0,0.0,0.0,0.0,0.0,0.0,0.0,0.0,0.0,0.0,0.0,0.0,0.0,0.0,0.0,0.0,0.0,0.0,0.0,0.0,0.0,0.0,0.0,0.0,0.0,0.0,0.0,0.0,0.0,0.0,0.0,0.0,0.0,0.0,0.0,0.0,0.0,0.0,0.0,0.0,0.0,0.0,0.0,0.0,0.0,0.0,0.0,0.0,0.0,0.0,0.0,0.0,0.0,0.0,0.0,0.0,0.0,0.0,0.0,0.0,0.0,0.0,0.0,0.0,0.0,0.0,0.0,0.0,0.0,0.0,0.0,0.0,0.0,0.0,0.0,0.0,0.0,0.0,0.0,0.0,0.0,0.0,0.0,0.0,0.0,0.0,0.0,0.0,0.0,0.0,0.0,0.0,0.0,0.0,0.0,0.0,0.0,0.0,0.0,0.0,0.0,0.0,0.0,0.0,0.0,0.0,0.0,0.0,0.0,0.0,0.4128,0.0866,-0.3471,-0.3105,-0.3163,-0.41,0.0,0.0,0.0,0.0,0.0,0.0,0.0,0.0,0.0,0.0,0.0,0.0,0.0,0.0,0.0,0.0,0.0,0.0,0.0,0.0,0.0,0.0,0.0,0.0,0.0,0.0,0.0,0.0,0.0,0.0,0.0,0.0,0.0,0.0,0.0,0.0,0.0,0.0,0.0,0.0,0.0,0.0,0.0,0.0,0.0,0.0,0.0,0.0,0.0,0.0,0.0,0.0,0.0,0.0,0.0,0.0,0.0,0.0,0.0,0.0,0.0,0.0,0.0,0.0,0.0,0.0,0.0,0.0,0.0,0.0,0.0,0.0,0.0,0.0,0.0,0.0,0.0,0.0,0.0,0.0,0.0,0.0,0.0,0.0,0.0,0.0,0.0,0.0,0.0,0.0,0.0,0.0,0.0,0.0,0.0,0.0,0.0,0.0,0.0,0.0,0.0,0.0,0.0,0.0,0.0,0.0,0.0,0.0,0.228,-0.0147,-0.4195,-0.9665,-0.6469,-0.568,0.0,0.0,0.0,0.0,0.0,0.0,0.0,0.0,0.0,0.0,0.0,0.0,0.0,0.0,0.0,0.0,0.0,0.0,0.0,0.0,0.0,0.0,0.0,0.0,0.0,0.0,0.0,0.0,0.0,0.0,0.0,0.0,0.0,0.0,0.0,0.0,0.0,0.0,0.0,0.0,0.0,0.0,0.0,0.0,0.0,0.0,0.0,0.0,0.0,0.0,0.0,0.0,0.0,0.0,0.0,0.0,0.0,0.0,0.0,0.0,0.0,0.0,0.0,0.0,0.0,0.0,0.0,0.0,0.0,0.0,0.0,0.0,0.0,0.0,0.0,0.0,0.0,0.0,0.0,0.0,0.0,0.0,0.0,0.0,0.0,0.0,0.0,0.0,0.0,0.0,0.0,0.0,0.0,0.0,0.0,0.0,0.0,0.0,0.0,0.0,0.0,0.0,0.0,0.0,0.0,0.0,0.0,0.0,0.0,-0.4278,-0.6808,-0.8836,-1.0309,-0.9407,-0.9596,0.0,0.0,0.0,0.0,0.0,0.0,0.0,0.0,0.0,0.0,0.0,0.0,0.0,0.0,0.0,0.0,0.0,0.0,0.0,0.0,0.0,0.0,0.0,0.0,0.0,0.0,0.0,0.0,0.0,0.0,0.0,0.0,0.0,0.0,0.0,0.0,0.0,0.0,0.0,0.0,0.0,0.0,0.0,0.0,0.0,0.0,0.0,0.0,0.0,0.0,0.0,0.0,0.0,0.0,0.0,0.0,0.0,0.0,0.0,0.0,0.0,0.0,0.0,0.0,0.0,0.0,0.0,0.0,0.0,0.0,0.0,0.0,0.0,0.0,0.0,0.0,0.0,0.0,0.0,0.0,0.0,0.0,0.0,0.0,0.0,0.0,0.0,0.0,0.0,0.0,0.0,0.0,0.0,0.0,0.0,0.0,0.0,0.0,0.0,0.0,0.0,0.0,0.0,0.0,0.0,0.0,0.0,0.0,0.0,-0.9485,0.0,-1.2083,-1.1629,-1.2273,-1.2658,0.0,0.0,0.0,0.0,0.0,0.0,0.0,0.0,0.0,0.0,0.0,0.0,0.0,0.0,0.0,0.0,0.0,0.0,0.0,0.0,0.0,0.0,0.0,0.0,0.0,0.0,0.0,0.0,0.0,0.0,0.0,0.0,0.0,0.0,0.0,0.0,0.0,0.0,0.0,0.0,0.0,0.0,0.0,0.0,0.0,0.0,0.0,0.0,0.0,0.0,0.0,0.0,0.0,0.0,0.0,0.0,0.0,0.0,0.0,0.0,0.0,0.0,0.0,0.0,0.0,0.0,0.0,0.0,0.0,0.0,0.0,0.0,0.0,0.0,0.0,0.0,0.0,0.0,0.0,0.0,0.0,0.0,0.0,0.0,0.0,0.0,0.0,0.0,0.0,0.0,0.0,0.0,0.0,0.0,0.0,0.0,0.0,0.0,0.0,0.0,0.0,0.0,0.0,0.0,0.0,0.0,0.0,0.0,-1.1105,-1.2786,-1.3354,-1.3727,-1.4036,-1.4788,-1.4625,0.0,0.0,0.0,0.0,0.0,0.0,0.0,0.0,0.0,0.0,0.0,0.0,0.0,0.0,0.0,0.0,0.0,0.0,0.0,0.0,0.0,0.0,0.0,0.0,0.0,0.0,0.0,0.0,0.0,0.0,0.0,0.0,0.0,0.0,0.0,0.0,0.0,0.0,0.0,0.0,0.0,0.0,0.0,0.0,0.0,0.0,0.0,0.0,0.0,0.0,0.0,0.0,0.0,0.0,0.0,0.0,0.0,0.0,0.0,0.0,0.0,0.0,0.0,0.0,0.0,0.0,0.0,0.0,0.0,0.0,0.0,0.0,0.0,0.0,0.0,0.0,0.0,0.0,0.0,0.0,0.0,0.0,0.0,0.0,0.0,0.0,0.0,0.0,0.0,0.0,0.0,0.0,0.0,0.0,0.0,0.0,0.0,0.0,0.0,0.0,0.0,0.0,0.0,0.0,0.0,0.0,0.0,0.0,0.0,-1.3376,-1.3247,-1.4323,-1.6638,-1.4897,-1.5077,0.0,0.0,0.0,0.0,0.0,0.0,0.0,0.0,0.0,0.0,0.0,0.0,0.0,0.0,0.0,0.0,0.0,0.0,0.0,0.0,0.0,0.0,0.0,0.0,0.0,0.0,0.0,0.0,0.0,0.0,0.0,0.0,0.0,0.0,0.0,0.0,0.0,0.0,0.0,0.0,0.0,0.0,0.0,0.0,0.0,0.0,0.0,0.0,0.0,0.0,0.0,0.0,0.0,0.0,0.0,0.0,0.0,0.0,0.0,0.0,0.0,0.0,0.0,0.0,0.0,0.0,0.0,0.0,0.0,0.0,0.0,0.0,0.0,0.0,0.0,0.0,0.0,0.0,0.0,0.0,0.0,0.0,0.0,0.0,0.0,0.0,0.0,0.0,0.0,0.0,0.0,0.0,0.0,0.0,0.0,0.0,0.0,0.0,0.0,0.0,0.0,0.0,0.0,0.0,0.0,0.0,0.0,0.0,0.0,-1.4563,-1.4689,-1.5659,-1.7389,-1.5612,-1.5563,-1.7582,0.0,0.0,0.0,0.0,0.0,0.0,0.0,0.0,0.0,0.0,0.0,0.0,0.0,0.0,0.0,0.0,0.0,0.0,0.0,0.0,0.0,0.0,0.0,0.0,0.0,0.0,0.0,0.0,0.0,0.0,0.0,0.0,0.0,0.0,0.0,0.0,0.0,0.0,0.0,0.0,0.0,0.0,0.0,0.0,0.0,0.0,0.0,0.0,0.0,0.0,0.0,0.0,0.0,0.0,0.0,0.0,0.0,0.0,0.0,0.0,0.0,0.0,0.0,0.0,0.0,0.0,0.0,0.0,0.0,0.0,0.0,0.0,0.0,0.0,0.0,0.0,0.0,0.0,0.0,0.0,0.0,0.0,0.0,0.0,0.0,0.0,0.0,0.0,0.0,0.0,0.0,0.0,0.0,0.0,0.0,0.0,0.0,0.0,0.0,0.0,0.0,0.0,0.0,0.0,0.0,0.0,0.0,0.0,-1.5951,-1.726,-1.7427,-1.6441,-1.6627,-1.6143,0.0,0.0,0.0,0.0,0.0,0.0,0.0,0.0,0.0,0.0,0.0,0.0,0.0,0.0,0.0,0.0,0.0,0.0,0.0,0.0,0.0,0.0,0.0,0.0,0.0,0.0,0.0,0.0,0.0,0.0,0.0,0.0,0.0,0.0,0.0,0.0,0.0,0.0,0.0,0.0,0.0,0.0,0.0,0.0,0.0,0.0,0.0,0.0,0.0,0.0,0.0,0.0,0.0,0.0,0.0,0.0,0.0,0.0,0.0,0.0,0.0,0.0,0.0,0.0,0.0,0.0,0.0,0.0,0.0,0.0,0.0,0.0,0.0,0.0,0.0,0.0,0.0,0.0,0.0,0.0,0.0,0.0,0.0,0.0,0.0,0.0,0.0,0.0,0.0,0.0,0.0,0.0,0.0,0.0,0.0,0.0,0.0,0.0,0.0,0.0,0.0,0.0,0.0,0.0,0.0,0.0,0.0,0.0,0.0,-1.5516,-1.6729,-1.7351,-1.7231,-1.5466,-1.5189,0.0,0.0,0.0,0.0,0.0,0.0,0.0,0.0,0.0,0.0,0.0,0.0,0.0,0.0,0.0,0.0,0.0,0.0,0.0,0.0,0.0,0.0,0.0,0.0,0.0,0.0,0.0,0.0,0.0,0.0,0.0,0.0,0.0,0.0,0.0,0.0,0.0,0.0,0.0,0.0,0.0,0.0,0.0,0.0,0.0,0.0,0.0,0.0,0.0,0.0,0.0,0.0,0.0,0.0,0.0,0.0,0.0,0.0,0.0,0.0,0.0,0.0,0.0,0.0,0.0,0.0,0.0,0.0,0.0,0.0,0.0,0.0,0.0,0.0,0.0,0.0,0.0,0.0,0.0,0.0,0.0,0.0,0.0,0.0,0.0,0.0,0.0,0.0,0.0,0.0,0.0,0.0,0.0,0.0,0.0,0.0,0.0,0.0,0.0,0.0,0.0,0.0,0.0,0.0,0.0,0.0,0.0,0.0,-1.5314,-1.5349,-1.683,-1.7322,-1.6693,-1.5283,-1.4974,0.0,0.0,0.0,0.0,0.0,0.0,0.0,0.0,0.0,0.0,0.0,0.0,0.0,0.0,0.0,0.0,0.0,0.0,0.0,0.0,0.0,0.0,0.0,0.0,0.0,0.0,0.0,0.0,0.0,0.0,0.0,0.0,0.0,0.0,0.0,0.0,0.0,0.0,0.0,0.0,0.0,0.0,0.0,0.0,0.0,0.0,0.0,0.0,0.0,0.0,0.0,0.0,0.0,0.0,0.0,0.0,0.0,0.0,0.0,0.0,0.0,0.0,0.0,0.0,0.0,0.0,0.0,0.0,0.0,0.0,0.0,0.0,0.0,0.0,0.0,0.0,0.0,0.0,0.0,0.0,0.0,0.0,0.0,0.0,0.0,0.0,0.0,0.0,0.0,0.0,0.0,0.0,0.0,0.0,0.0,0.0,0.0,0.0,0.0,0.0,0.0,0.0,0.0,0.0,0.0,0.0,0.0,0.0,-1.5214,-1.5262,-1.7105,-1.7275,-1.5552,-1.5523,-1.5107,0.0,0.0,0.0,0.0,0.0,0.0,0.0,0.0,0.0,0.0,0.0,0.0,0.0,0.0,0.0,0.0,0.0,0.0,0.0,0.0,0.0,0.0,0.0,0.0,0.0,0.0,0.0,0.0,0.0,0.0,0.0,0.0,0.0,0.0,0.0,0.0,0.0,0.0,0.0,0.0,0.0,0.0,0.0,0.0,0.0,0.0,0.0,0.0,0.0,0.0,0.0,0.0,0.0,0.0,0.0,0.0,0.0,0.0,0.0,0.0,0.0,0.0,0.0,0.0,0.0,0.0,0.0,0.0,0.0,0.0,0.0,0.0,0.0,0.0,0.0,0.0,0.0,0.0,0.0,0.0,0.0,0.0,0.0,0.0,0.0,0.0,0.0,0.0,0.0,0.0,0.0,0.0,0.0,0.0,0.0,0.0,0.0,0.0,0.0,0.0,0.0,0.0,0.0,0.0,0.0,0.0,0.0,0.0,-1.4132,-1.4853,-1.6581,-1.6932,-1.5806,-1.4842,-1.4238,0.0,0.0,0.0,0.0,0.0,0.0,0.0,0.0,0.0,0.0,0.0,0.0,0.0,0.0,0.0,0.0,0.0,0.0,0.0,0.0,0.0,0.0,0.0,0.0,0.0,0.0,0.0,0.0,0.0,0.0,0.0,0.0,0.0,0.0,0.0,0.0,0.0,0.0,0.0,0.0,0.0,0.0,0.0,0.0,0.0,0.0,0.0,0.0,-1.2667,0.0,0.0,0.0,0.0,0.0,0.0,0.0,0.0,0.0,0.0,0.0,0.0,0.0,0.0,0.0,0.0,0.0,0.0,0.0,0.0,0.0,0.0,0.0,0.0,0.0,0.0,0.0,0.0,0.0,0.0,0.0,0.0,0.0,0.0,0.0,0.0,0.0,0.0,0.0,0.0,0.0,0.0,0.0,0.0,0.0,0.0,0.0,0.0,0.0,0.0,0.0,0.0,0.0,0.0,0.0,0.0,0.0,0.0,0.0,-1.4277,-1.5195,-1.6492,-1.6821,-1.6081,-1.4153,-1.3358,0.0,0.0,0.0,0.0,0.0,0.0,0.0,0.0,0.0,0.0,0.0,0.0,0.0,0.0,0.0,0.0,0.0,0.0,0.0,0.0,0.0,0.0,0.0,0.0,0.0,0.0,0.0,0.0,0.0,0.0,0.0,0.0,0.0,0.0,0.0,0.0,0.0,0.0,0.0,0.0,0.0,0.0,0.0,0.0,0.0,0.0,0.0,0.0,0.0,0.0,0.0,0.0,0.0,0.0,0.0,0.0,0.0,0.0,0.0,0.0,0.0,0.0,0.0,0.0,0.0,0.0,0.0,0.0,0.0,0.0,0.0,0.0,0.0,0.0,0.0,0.0,0.0,0.0,0.0,0.0,0.0,0.0,0.0,0.0,0.0,0.0,0.0,0.0,0.0,0.0,0.0,0.0,0.0,0.0,0.0,0.0,0.0,0.0,0.0,0.0,0.0,0.0,0.0,0.0,0.0,0.0,0.0,-1.3045,-1.47,-1.5691,-1.6451,-1.6626,-1.6146,-1.3521,-1.2561,-1.3518,0.0,0.0,0.0,0.0,0.0,0.0,0.0,0.0,0.0,0.0,0.0,0.0,0.0,0.0,0.0,0.0,0.0,0.0,0.0,0.0,0.0,0.0,0.0,0.0,0.0,0.0,0.0,0.0,0.0,0.0,0.0,0.0,0.0,0.0,0.0,0.0,0.0,0.0,-0.8321,-0.839,0.0,0.0,0.0,0.0,0.0,0.0,0.0,0.0,-1.1143,0.0,0.0,0.0,0.0,0.0,0.0,0.0,0.0,0.0,0.0,0.0,0.0,0.0,0.0,0.0,0.0,0.0,0.0,0.0,0.0,0.0,0.0,0.0,0.0,0.0,0.0,0.0,0.0,0.0,0.0,0.0,0.0,0.0,0.0,0.0,0.0,0.0,0.0,0.0,0.0,0.0,0.0,0.0,0.0,0.0,0.0,0.0,0.0,0.0,0.0,0.0,0.0,0.0,0.0,0.0,0.0,-1.1073,-1.2532,-1.4043,-1.5649,-1.6095,-1.5915,-1.5034,-1.2917,-1.2029,-1.2541,0.0,0.0,0.0,0.0,0.0,0.0,0.0,0.0,0.0,0.0,0.0,0.0,0.0,0.0,0.0,0.0,0.0,0.0,0.0,0.0,0.0,0.0,0.0,0.0,0.0,0.0,0.0,0.0,0.0,0.0,0.0,0.0,0.0,0.0,0.0,0.0,0.0,0.0,0.0,-0.8475,-0.8819,0.0,0.0,0.0,0.0,0.0,0.0,0.0,0.0,-1.1581,0.0,0.0,0.0,0.0,0.0,0.0,0.0,0.0,0.0,0.0,0.0,0.0,0.0,0.0,0.0,0.0,0.0,0.0,0.0,0.0,0.0,0.0,0.0,0.0,0.0,0.0,0.0,0.0,0.0,0.0,0.0,0.0,0.0,0.0,0.0,0.0,0.0,0.0,0.0,0.0,0.0,0.0,0.0,0.0,0.0,0.0,0.0,0.0,0.0,0.0,0.0,0.0,0.0,0.0,0.0,-1.0867,-1.1996,-1.3441,-1.5159,-1.5644,-1.5478,-1.4716,-1.2754,-1.186,0.0,0.0,0.0,0.0,0.0,0.0,0.0,0.0,0.0,0.0,0.0,0.0,0.0,0.0,0.0,0.0,0.0,0.0,0.0,0.0,0.0,0.0,0.0,0.0,0.0,0.0,0.0,0.0,0.0,0.0,0.0,0.0,0.0,0.0,0.0,0.0,0.0,0.0,0.0,0.0,-0.8948,-0.9231,-0.878,0.0,0.0,0.0,0.0,0.0,0.0,-1.0406,-1.0689,0.0,0.0,0.0,0.0,0.0,0.0,0.0,0.0,0.0,0.0,0.0,0.0,0.0,0.0,0.0,0.0,0.0,0.0,0.0,0.0,0.0,0.0,0.0,0.0,0.0,0.0,0.0,0.0,0.0,0.0,0.0,0.0,0.0,0.0,0.0,0.0,0.0,0.0,0.0,0.0,0.0,0.0,0.0,0.0,0.0,0.0,0.0,0.0,0.0,0.0,0.0,0.0,0.0,0.0,0.0,-1.0489,-1.1557,-1.2932,-1.4584,-1.4942,-1.4932,-1.4441,-1.2549,-1.1752,0.0,0.0,0.0,0.0,0.0,0.0,0.0,0.0,0.0,0.0,0.0,0.0,0.0,0.0,0.0,0.0,0.0,0.0,0.0,0.0,0.0,0.0,0.0,0.0,0.0,0.0,0.0,0.0,0.0,0.0,0.0,0.0,0.0,0.0,0.0,0.0,0.0,0.0,0.0,0.0,0.0,-0.9638,-0.9262,-0.9303,0.0,0.0,0.0,0.0,-1.0932,-1.0189,0.0,0.0,0.0,0.0,0.0,0.0,0.0,0.0,0.0,0.0,0.0,0.0,0.0,0.0,0.0,0.0,0.0,0.0,0.0,0.0,0.0,0.0,0.0,0.0,0.0,0.0,0.0,0.0,0.0,0.0,0.0,0.0,0.0,0.0,0.0,0.0,0.0,0.0,0.0,0.0,0.0,0.0,0.0,0.0,0.0,0.0,0.0,0.0,0.0,0.0,0.0,0.0,0.0,0.0,0.0,0.0,-0.9913,-1.118,-1.2568,-1.3989,-1.3957,-1.3914,-1.3894,-1.1883,-1.1217,0.0,0.0,0.0,0.0,0.0,0.0,0.0,0.0,0.0,0.0,0.0,0.0,0.0,0.0,0.0,0.0,0.0,0.0,0.0,0.0,0.0,0.0,0.0,0.0,0.0,0.0,0.0,0.0,0.0,0.0,0.0,0.0,0.0,0.0,0.0,0.0,0.0,0.0,0.0,0.0,0.0,-0.9947,-0.9973,-0.9914,-0.9797,0.0,0.0,-0.9223,-0.9751,-0.998,0.0,0.0,0.0,0.0,0.0,0.0,0.0,0.0,0.0,0.0,0.0,0.0,0.0,0.0,0.0,0.0,0.0,0.0,0.0,0.0,0.0,0.0,0.0,0.0,0.0,0.0,0.0,0.0,0.0,0.0,0.0,0.0,0.0,0.0,0.0,0.0,0.0,0.0,0.0,0.0,0.0,0.0,0.0,0.0,0.0,0.0,0.0,0.0,0.0,0.0,0.0,0.0,0.0,0.0,0.0,-0.8541,-0.9774,-1.0596,-1.1705,-1.3038,-1.3488,-1.3517,-1.3182,-1.2004,-1.1699,0.0,0.0,0.0,0.0,0.0,0.0,0.0,0.0,0.0,0.0,0.0,0.0,0.0,0.0,0.0,0.0,0.0,0.0,0.0,0.0,0.0,0.0,0.0,0.0,0.0,0.0,0.0,0.0,0.0,0.0,0.0,0.0,0.0,0.0,0.0,0.0,0.0,0.0,0.0,0.0,0.0,0.0,-0.9637,-0.9724,0.0,0.0,0.0,-0.946,-1.018,0.0,0.0,0.0,0.0,0.0,0.0,0.0,0.0,0.0,0.0,0.0,0.0,0.0,0.0,0.0,0.0,0.0,0.0,0.0,0.0,0.0,0.0,0.0,0.0,0.0,0.0,0.0,0.0,0.0,0.0,0.0,0.0,0.0,0.0,0.0,0.0,0.0,0.0,0.0,0.0,0.0,0.0,0.0,0.0,0.0,0.0,0.0,0.0,0.0,0.0,0.0,0.0,0.0,0.0,0.0,0.0,0.0,-0.9567,-1.0093,-1.0993,-1.235,-1.3051,-1.3224,-1.2704,-1.2046,0.0,0.0,0.0,0.0,0.0,0.0,0.0,0.0,0.0,0.0,0.0,0.0,0.0,0.0,0.0,0.0,0.0,0.0,0.0,0.0,0.0,0.0,0.0,0.0,0.0,0.0,0.0,-1.1129,0.0,0.0,0.0,0.0,0.0,0.0,0.0,0.0,0.0,0.0,0.0,0.0,0.0,0.0,-0.9616,-0.9548,-0.9699,-0.9843,0.0,0.0,-0.9717,-1.0378,-0.9766,-0.9589,0.0,0.0,0.0,0.0,0.0,0.0,0.0,0.0,0.0,0.0,0.0,0.0,0.0,0.0,0.0,0.0,0.0,0.0,0.0,0.0,0.0,0.0,0.0,0.0,0.0,0.0,0.0,0.0,0.0,0.0,0.0,0.0,0.0,0.0,0.0,0.0,0.0,0.0,0.0,0.0,0.0,0.0,0.0,0.0,0.0,0.0,0.0,0.0,0.0,0.0,0.0,0.0,0.0,0.0,0.0,-0.9047,-0.9807,-1.0899,-1.2278,-1.2625,-1.2742,-1.2686,-1.17,-1.1431,0.0,0.0,0.0,0.0,0.0,0.0,0.0,0.0,0.0,0.0,0.0,0.0,0.0,0.0,0.0,0.0,0.0,0.0,0.0,0.0,0.0,0.0,0.0,0.0,0.0,0.0,0.0,0.0,0.0,0.0,0.0,0.0,0.0,0.0,0.0,0.0,0.0,0.0,0.0,0.0,0.0,-1.0518,-1.0169,-1.0409,-1.0429,0.0,0.0,-0.9684,-0.9598,-0.996,-0.9993,-0.9394,0.0,0.0,0.0,0.0,0.0,0.0,0.0,0.0,0.0,0.0,0.0,0.0,0.0,0.0,0.0,0.0,0.0,0.0,0.0,0.0,0.0,0.0,0.0,0.0,0.0,0.0,0.0,0.0,0.0,0.0,0.0,0.0,0.0,0.0,0.0,0.0,0.0,0.0,0.0,0.0,0.0,0.0,0.0,0.0,0.0,0.0,0.0,0.0,0.0,0.0,0.0,0.0,0.0,-0.8225,-0.9234,-0.9848,-1.0683,-1.1656,-1.235,-1.2674,-1.2709,-1.1684,-1.1339,0.0,0.0,0.0,0.0,0.0,0.0,0.0,0.0,0.0,0.0,0.0,0.0,0.0,0.0,0.0,0.0,0.0,0.0,0.0,0.0,0.0,0.0,0.0,0.0,0.0,0.0,0.0,0.0,-0.6698,-0.6983,-0.7024,0.0,0.0,0.0,0.0,0.0,0.0,0.0,0.0,0.0,0.0,-0.9809,-0.9934,-1.0041,0.0,0.0,-0.973,-0.9667,-0.9618,-0.9598,-0.9538,-0.9483,-0.9529,0.0,0.0,0.0,0.0,0.0,0.0,0.0,0.0,0.0,0.0,0.0,0.0,0.0,0.0,0.0,0.0,0.0,0.0,0.0,0.0,0.0,0.0,0.0,0.0,0.0,0.0,0.0,0.0,0.0,0.0,0.0,0.0,0.0,0.0,0.0,0.0,0.0,0.0,0.0,0.0,0.0,0.0,0.0,0.0,0.0,0.0,0.0,0.0,0.0,0.0,0.0,0.0,-0.8558,-0.9608,-1.0097,-1.0708,-1.1538,-1.2141,-1.2468,-1.2409,-1.1411,-1.1111,0.0,0.0,0.0,0.0,0.0,0.0,0.0,0.0,0.0,0.0,0.0,0.0,0.0,0.0,0.0,0.0,0.0,0.0,0.0,0.0,0.0,0.0,0.0,0.0,0.0,0.0,0.0,0.0,-0.5725,-0.6476,-0.6784,0.0,0.0,0.0,0.0,0.0,0.0,0.0,0.0,0.0,0.0,-0.9314,-0.9509,-0.9725,-0.9897,-0.9857,-0.9999,-1.0026,-0.9875,-0.975,-0.9573,-0.9391,0.0,0.0,0.0,0.0,0.0,0.0,0.0,0.0,0.0,0.0,0.0,0.0,0.0,0.0,0.0,0.0,0.0,0.0,0.0,0.0,0.0,0.0,0.0,0.0,0.0,0.0,0.0,0.0,0.0,0.0,-1.0922,0.0,0.0,0.0,0.0,0.0,0.0,0.0,0.0,0.0,0.0,0.0,0.0,0.0,0.0,0.0,0.0,0.0,0.0,0.0,0.0,0.0,0.0,-0.9223,-1.0176,-1.0451,-1.1066,-1.201,-1.1986,-1.1916,-1.188,-1.087,-1.057,-1.1099,0.0,0.0,0.0,0.0,0.0,0.0,0.0,0.0,0.0,0.0,0.0,0.0,0.0,0.0,0.0,0.0,0.0,0.0,0.0,0.0,0.0,0.0,0.0,0.0,0.0,0.0,-0.5529,-0.577,-0.6154,0.0,0.0,0.0,0.0,0.0,0.0,0.0,0.0,0.0,0.0,-0.8926,-0.9128,-0.9056,-0.9748,-1.0266,-1.0233,-1.0606,-1.0726,-1.0321,-1.0579,-1.034,0.0,0.0,0.0,0.0,0.0,0.0,0.0,0.0,0.0,0.0,0.0,0.0,0.0,0.0,0.0,0.0,0.0,0.0,0.0,0.0,0.0,0.0,0.0,0.0,0.0,0.0,0.0,-1.4898,-1.4056,0.0,0.0,0.0,0.0,0.0,0.0,0.0,0.0,0.0,0.0,0.0,-1.0556,-1.0982,0.0,0.0,0.0,0.0,0.0,0.0,0.0,0.0,0.0,0.0,0.0,0.0,-0.9682,-1.1348,-1.0889,-1.0862,-1.1408,-1.173,-1.1712,-1.1395,-1.0678,-1.0389,-1.0558,0.0,0.0,0.0,0.0,0.0,0.0,0.0,0.0,0.0,0.0,0.0,0.0,0.0,0.0,0.0,0.0,0.0,0.0,0.0,0.0,0.0,0.0,0.0,0.0,0.0,-0.4899,0.0,0.0,0.0,0.0,0.0,0.0,0.0,0.0,0.0,0.0,0.0,-0.8643,-0.8752,-0.8923,-0.9056,-0.9016,-0.9502,-0.9885,0.0,0.0,0.0,0.0,0.0,0.0,0.0,0.0,0.0,0.0,0.0,0.0,0.0,0.0,-0.6271,-0.549,-0.533,-0.5041,-0.4163,0.0,0.0,0.0,0.0,0.0,0.0,0.0,0.0,0.0,0.0,0.0,0.0,0.0,0.0,-1.5143,0.0,-1.3933,0.0,0.0,0.0,0.0,0.0,0.0,0.0,0.0,-1.2613,-1.2188,-1.1283,-1.2325,-1.2755,0.0,-1.2688,-1.1786,0.0,0.0,0.0,0.0,0.0,0.0,0.0,0.0,-1.0658,-1.2008,-1.1419,-1.1243,-1.1628,-1.1616,-1.1628,-1.1628,-1.0954,-1.0497,-1.0329,-1.0427,-1.0463,0.0,0.0,0.0,0.0,0.0,0.0,0.0,0.0,0.0,0.0,0.0,0.0,0.0,0.0,0.0,0.0,0.0,0.0,0.0,0.0,0.0,0.0,0.0,-0.4383,0.0,0.0,0.0,0.0,0.0,0.0,0.0,0.0,0.0,-0.8691,-0.841,-0.824,-0.8528,-0.8633,-0.8658,-0.8529,0.0,0.0,0.0,0.0,0.0,0.0,0.0,-0.9172,-0.8257,-0.8373,-0.8357,-0.7599,-0.7873,-0.7891,-0.7039,0.0,0.0,-0.6012,-0.5917,-0.5673,-0.4873,-0.4943,-0.5077,-0.4892,-0.4773,-0.4782,0.0,0.0,0.0,0.0,0.0,0.0,0.0,0.0,-1.4674,-1.5116,0.0,-1.4221,0.0,0.0,0.0,0.0,0.0,-1.3535,0.0,0.0,-1.3594,-1.3001,-1.1445,-1.3119,-1.4544,-1.5574,-1.5703,-1.5225,-1.4082,-1.0905,0.0,0.0,0.0,0.0,0.0,0.0,-1.2136,-1.2194,-1.2034,-1.2157,-1.2637,-1.1664,-1.1592,-1.2516,-1.158,-1.081,-1.0353,-1.0616,-1.1029,-1.1544,-1.1148,0.0,0.0,0.0,0.0,0.0,0.0,0.0,0.0,0.0,0.0,0.0,0.0,0.0,0.0,0.0,0.0,0.0,0.0,0.0,0.0,-0.2062,0.0,0.0,0.0,0.0,0.0,0.0,0.0,0.0,0.0,0.0,-0.849,-0.7962,-0.7641,-0.7916,0.0,0.0,0.0,0.0,-0.9851,-0.9071,-0.9952,-1.0553,-1.0324,-0.9859,-0.9239,-0.837,0.0,0.0,-0.7125,-0.7996,-0.8564,-0.7981,-0.7678,-0.721,-0.6021,-0.5975,-0.5979,-0.5896,-0.5906,-0.599,-0.5971,-0.575,-0.5731,-1.9984,0.0,0.0,0.0,0.0,-1.8472,-1.8143,-1.7604,-1.7274,-1.7174,-1.72,-1.5947,0.0,0.0,0.0,0.0,0.0,0.0,-1.5413,-1.5816,-1.6068,-1.5348,-1.3921,-1.4947,-1.6352,-1.7933,-1.6446,-1.5432,-1.4824,-1.3493,-1.2787,-1.2722,0.0,0.0,0.0,0.0,-1.2805,-1.4014,-1.307,-1.2518,-1.2709,-1.2013,-1.1447,-1.1003,-1.069,-1.0461,-1.0317,-1.075,-1.1104,-1.1217,-1.1134,0.0,0.0,0.0,0.0,0.0,0.0,0.0,0.0,0.0,0.0,0.0,0.0,0.0,0.0,0.0,0.0,0.0,0.0,0.0,-0.2529,-0.3118,-0.3947,0.0,0.0,0.0,0.0,0.0,0.0,0.0,0.0,0.0,-0.7976,-0.7754,-0.7736,0.0,0.0,-0.8157,-0.8325,-0.8632,-0.878,-0.8524,-0.8715,0.0,-0.8492,-0.8522,-0.8222,-0.7319,-0.7206,-0.7257,-0.7352,-0.7802,-0.813,-0.7902,-0.778,-0.7544,-0.7232,-0.6795,-0.6371,-0.5801,-0.6081,-0.6294,-0.5812,-0.5741,-0.5769,-2.1744,-2.0957,-2.0616,-2.0026,-1.9351,-1.9364,-1.8963,-1.8297,-1.794,-1.7932,-1.8131,-1.717,-1.7109,-1.7709,-1.6955,0.0,0.0,0.0,-1.7111,-1.7517,-1.7581,-1.7246,-1.6627,-1.694,-1.7728,-1.8909,-1.7665,-1.6781,-1.6338,-1.6001,-1.5605,-1.5131,0.0,0.0,-1.4603,-1.3724,-1.3725,-1.4646,-1.3831,-1.324,-1.3023,-1.247,-1.1604,-1.0377,-1.0714,-1.0834,-1.063,-1.1135,-1.1426,-1.141,-1.1434,-1.0587,0.0,0.0,0.0,0.0,0.0,0.0,0.0,0.0,0.0,0.0,0.0,-0.4138,-0.2575,0.0,0.0,0.0,-0.169,-0.2506,-0.3452,-0.3805,0.0,0.0,0.0,0.0,0.0,0.0,0.0,-0.6569,-0.6693,-0.7065,-0.7809,-0.7793,-0.79,-0.837,-0.8078,-0.7898,-0.7961,0.0,-0.8181,-0.7836,-0.8018,-0.8092,-0.7829,-0.7724,-0.749,-0.6901,-0.7045,-0.7241,-0.7479,-0.7722,-0.7876,-0.7782,-0.7649,-0.755,-0.755,-0.7132,-0.6792,-0.6398,-0.6718,-0.6895,-0.6547,-0.6539,-0.6472,-2.363,-2.2956,-2.1904,-2.0887,-1.9857,-1.9651,-1.9071,-1.8167,-1.7543,-1.7974,-1.9054,-1.8028,-1.8368,-1.9785,-1.9258,0.0,-1.8552,-1.8637,-1.8465,-1.8174,-1.8375,-1.8657,-1.8988,-1.8756,-1.8768,-1.9012,-1.8982,-1.8746,-1.8265,-1.8205,-1.7953,-1.7424,-1.5483,-1.4682,-1.5097,-1.5085,-1.4874,-1.4422,-1.4373,-1.4072,-1.3505,-1.2938,-1.195,-1.051,-1.1375,-1.1652,-1.1195,-1.1696,-1.194,-1.1952,-1.1838,-1.0877,-0.8957,0.0,0.0,0.0,0.0,0.0,0.0,0.0,0.0,0.0,0.0,0.0,0.0,0.0,0.0,0.0,-0.1941,0.0,-0.36,-0.4326,0.0,0.0,0.0,-0.6093,-0.5406,-0.6649,-0.7116,-0.6046,0.0,0.0,-0.7916,-0.8018,-0.8082,-0.7963,-0.772,-0.7463,-0.7128,-0.773,-0.7896,-0.7181,-0.7681,-0.8112,-0.7779,-0.7392,-0.7034,-0.6981,-0.7248,-0.7453,-0.7513,-0.7675,-0.7749,-0.7589,-0.7405,-0.7302,-0.7347,-0.7096,-0.7053,-0.7493,-0.7528,-0.7568,-0.7604,-0.7485,-0.7374,-2.4544,-2.4336,-2.4066,-2.3146,-2.184,-2.1398,-2.1107,-2.0804,-1.9989,-1.984,-2.0086,-1.9123,-1.8805,-1.8882,-1.8786,-1.9054,-1.9588,-1.9309,-1.9364,-1.9623,-1.9407,-1.9193,-1.9023,-1.8946,-1.8946,-1.8982,-1.9011,-1.8927,-1.8794,-1.8398,-1.8133,-1.7953,-1.6714,-1.6125,-1.6188,-1.5804,-1.554,-1.5464,-1.5055,-1.4405,-1.3505,-1.2589,-1.1926,-1.152,-1.176,-1.182,-1.1712,-1.2205,-1.2516,-1.2492,-1.1351,-1.0379,-0.9788,-0.9362,0.0,0.0,0.0,0.0,0.0,0.0,0.0,0.0,0.0,-0.7574,-0.6505,0.0,-0.5439,0.0,-0.478,-0.4894,-0.6032,-0.5663,0.0,0.0,-0.6575,-0.6642,-0.6562,-0.7093,-0.7361,-0.7242,-0.749,-0.7786,-0.8172,-0.8238,-0.8215,-0.8222,-0.8034,-0.7895,-0.7721,-0.7443,-0.7235,-0.709,-0.7215,-0.7283,-0.7228,-0.7092,-0.6972,-0.6979,-0.7081,-0.7201,-0.7473,-0.7522,-0.7622,-0.7756,-0.7615,-0.7488,-0.7462,-0.7082,-0.6893,-0.7163,-0.7294,-0.7243,-0.7127,-0.7048,-0.7,-2.511,-2.4771,-2.4544,-2.3898,-2.3155,-2.2734,-2.2281,-2.1766,-2.1307,-2.1015,-2.086,-2.0335,-2.0034,-1.9845,-1.9845,-2.0112,-2.0561,-2.0382,-2.0273,-2.0182,-1.9978,-1.9565,-1.8987,-1.8987,-1.8987,-1.8987,-1.8987,-1.8987,-1.8975,-1.8698,-1.8542,-1.8542,-1.7965,-1.7556,-1.7303,-1.6524,-1.614,-1.614,-1.5396,-1.4658,-1.3843,-1.2818,-1.2275,-1.2251,-1.1772,-1.1781,-1.2239,-1.2335,-1.2313,-1.2301,-1.1745,-1.09,-0.9892,-0.9683,-0.9332,0.0,0.0,0.0,0.0,0.0,0.0,0.0,0.0,0.0,0.0,0.0,-0.8054,-0.7532,-0.6474,-0.63,-0.7523,-0.7097,-0.6917,-0.7372,-0.7447,-0.7439,-0.7391,-0.7745,-0.8107,-0.8431,-0.83,-0.825,-0.8503,-0.8585,-0.8529,-0.8316,-0.8398,-0.8379,-0.8084,-0.7645,-0.7308,-0.7308,-0.7147,-0.6972,-0.6972,-0.6972,-0.6972,-0.6972,-0.6972,-0.7081,-0.7235,-0.7268,-0.7328,-0.7475,-0.7381,-0.7268,-0.7268,-0.6989,-0.6772,-0.6862,-0.6879,-0.6872,-0.6963,-0.6896,-0.6811,-2.5705,-2.5104,-2.453,-2.4167,-2.4022,-2.377,-2.3022,-2.1902,-2.1807,-2.165,-2.141,-2.141,-2.141,-2.141,-2.141,-2.141,-2.141,-2.141,-2.097,-2.0271,-2.0233,-1.9747,-1.9016,-1.8987,-1.8987,-1.8987,-1.8987,-1.9028,-1.9093,-1.9093,-1.9105,-1.9093,-1.9032,-1.8738,-1.8277,-1.7255,-1.6666,-1.6522,-1.5576,-1.4881,-1.4494,-1.3397,-1.2818,-1.277,-1.1748,-1.1628,-1.2553,-1.2133,-1.1913,-1.1892,-1.2106,-1.1459,-0.9893,-0.981,-1.0057,0.0,-0.9547,0.0,0.0,0.0,0.0,0.0,0.0,0.0,0.0,-1.0668,-1.0283,-0.8981,-0.7818,-0.7538,-0.8558,-0.8565,-0.8423,-0.8191,-0.8318,-0.83,-0.8072,-0.8561,-0.905,-0.9374,-0.9195,-0.9025,-0.8993,-0.9089,-0.8975,-0.8643,-0.8871,-0.8937,-0.8545,-0.8077,-0.7773,-0.7765,-0.7391,-0.714,-0.7098,-0.7063,-0.6972,-0.6972,-0.6972,-0.6972,-0.6985,-0.6992,-0.6985,-0.6992,-0.7012,-0.6992,-0.6972,-0.6829,-0.6715,-0.6734,-0.6575,-0.6586,-0.6914,-0.6884,-0.6769,-2.7234,-2.706,-2.6504,-2.5633,-2.4626,-2.4641,-2.3784,-2.2417,-2.1996,-2.165,-2.1423,-2.141,-2.141,-2.141,-2.141,-2.141,-2.141,-2.141,-2.1166,-2.066,-2.0372,-1.9799,-1.9016,-1.9032,-1.8987,-1.8987,-1.8987,-1.9198,-1.9512,-1.9512,-1.9512,-1.95,-1.9068,-1.8814,-1.877,0.0,0.0,0.0,-1.5744,-1.5588,-1.5444,-1.4069,-1.3348,-1.3324,-1.2323,0.0,-1.2013,-1.1974,-1.1913,-1.1865,-1.0358,0.0,0.0,0.0,0.0,0.0,0.0,0.0,0.0,0.0,0.0,0.0,-1.2866,-1.2233,-1.1614,-1.1315,-1.0861,-1.0293,-0.9989,-0.9938,-1.0146,-0.9837,-0.9573,-0.9548,-0.9279,-0.9013,-0.8691,-0.9243,-0.9649,-0.9493,-0.9916,-1.0154,-0.9864,-0.989,-0.9734,-0.9435,-0.9515,-0.9554,-0.9435,-0.8692,-0.8226,-0.8152,-0.7814,-0.7558,-0.7551,-0.7266,-0.7056,-0.6972,-0.6972,-0.7021,-0.7021,-0.6972,-0.6972,-0.6972,-0.6972,-0.6972,-0.6979,-0.6829,-0.6715,-0.6715,-0.6538,-0.6447,-0.6544,-0.6526,-0.6489,-2.7549,0.0,-2.6562,-2.5908,0.0,-2.466,-2.3974,-2.3184,-2.2498,-2.1983,-2.1602,-2.1471,-2.141,-2.141,-2.141,-2.141,-2.141,-2.141,-2.1166,-2.0795,-2.0372,-1.9876,-1.9285,-1.9109,-1.8987,-1.8987,-1.8987,-1.9093,-1.9303,-1.9303,-1.9303,-1.9291,-1.9034,-1.8931,-1.8939,-1.7941,-1.7027,-1.6188,-1.5924,-1.5672,-1.536,-1.3888,-1.3228,-1.3445,-1.1962,0.0,0.0,0.0,0.0,0.0,0.0,0.0,0.0,0.0,0.0,-1.2466,-1.2056,-1.1986,-1.2604,-1.2693,-1.2873,-1.328,-1.2814,-1.2312,-1.1716,-1.129,-1.1012,-1.1061,-1.0702,-1.0538,-1.0771,-1.0447,-1.0254,-1.0244,-1.005,-0.996,-1.0037,-1.0366,-1.0614,-1.0738,-1.0874,-1.0825,-1.0475,-1.0233,-0.998,-0.9762,-0.9723,-0.9723,-0.9634,-0.9105,-0.8602,-0.8365,-0.8144,-0.8021,-0.7979,-0.7855,-0.7565,-0.7391,-0.7356,-0.7266,-0.7063,-0.6972,-0.6972,-0.6972,-0.6972,-0.6972,-0.6979,-0.6829,-0.6715,-0.6672,-0.6544,-0.6416,-0.641,-0.641,-0.641,-2.7694,-2.7055,-2.6402,-2.5995,-2.5705,-2.4675,-2.4094,-2.3847,0.0,0.0,0.0,-2.1574,-2.141,-2.141,-2.141,-2.141,-2.141,-2.141,-2.1215,-2.0908,-2.0472,-2.0118,-1.9811,-1.9396,-1.9198,-1.9198,-1.9198,-1.9239,-1.9303,-1.9356,-1.9356,-1.9291,-1.9251,-1.9097,-1.8794,-1.7989,-1.7291,-1.6774,-1.62,-1.572,-1.5265,-1.3864,-1.3252,-1.3493,-1.1688,-1.1051,-1.17,-1.1455,-1.1195,-1.1099,-1.1003,-1.1195,-1.17,-1.1168,-1.1484,-1.2822,-1.2184,-1.2079,-1.301,-1.2862,-1.2743,-1.2751,-1.2425,-1.2045,-1.1538,-1.1157,-1.1096,-1.1452,-1.0897,-1.0677,-1.1062,-1.0961,-1.0856,-1.0784,-1.0917,-1.1083,-1.1216,-1.146,-1.1634,-1.1746,-1.1562,-1.1287,-1.0898,-1.0554,-1.0202,-0.9987,-0.9916,-0.9824,-0.9725,-0.9439,-0.9016,-0.8732,-0.8561,-0.8439,-0.8398,-0.8316,-0.8193,-0.7848,-0.7783,-0.7644,-0.7306,-0.7137,-0.7101,-0.7121,-0.7074,-0.6985,-0.6979,-0.6829,-0.6715,-0.6715,-0.6544,-0.641,-0.641,-0.641,-0.641,-2.8985,-2.8361,-2.7723,-2.6808,-2.5778,-2.5589,-2.4907,-2.38,-2.2733,-2.2398,-2.263,-2.1751,-2.141,-2.141,-2.141,-2.141,-2.141,-2.141,-2.1375,-2.1313,-2.0908,-2.0696,-2.0597,-2.022,-2.0016,-2.0016,-2.0016,-2.022,-2.0497,-2.0547,-2.0547,-2.0497,-2.022,-1.9483,-1.8389,-1.8169,-1.7832,-1.7303,-1.6774,-1.6474,-1.6344,-1.5265,-1.4297,-1.3517,-1.2758,-1.1986,-1.1243,-1.1568,-1.1568,-1.1111,-1.0666,-1.0666,-1.1159,-1.1116,-1.1494,-1.2413,-1.2495,-1.2547,-1.2581,-1.2238,-1.2039,-1.2069,-1.2296,-1.218,-1.1556,-1.1452,-1.1457,-1.1485,-1.1361,-1.1372,-1.1459,-1.1746,-1.1772,-1.1491,-1.2095,-1.2197,-1.1323,-1.2042,-1.2326,-1.146,-1.173,-1.1844,-1.1256,-1.1084,-1.0957,-1.0699,-1.0385,-1.0187,-1.0141,-0.9853,-0.9621,-0.9475,-0.9145,-0.8943,-0.8937,-0.8578,-0.8454,-0.8234,-0.8152,-0.807,-0.7938,-0.7602,-0.7419,-0.7439,-0.7181,-0.6992,-0.6985,-0.6829,-0.6708,-0.6666,-0.6538,-0.641,-0.641,-0.641,-0.641,-2.9044,-2.8158,-2.7853,-2.7186,-2.63,-2.5937,-2.5458,-2.4863,-2.3855,-2.3054,-2.2484,-2.2572,-2.2183,-2.1477,-2.1749,-2.1722,-2.141,-2.141,-2.141,-2.1361,-2.1006,-2.0894,-2.0944,-2.0459,-2.0321,-2.061,-2.0321,-2.0372,-2.0646,-2.056,-2.0472,-2.0459,-2.0271,-1.9737,-1.8908,-1.8635,-1.8376,-1.8047,-1.7105,-1.6584,-1.656,-1.5307,-1.4277,-1.3505,-1.2987,-1.2215,-1.1147,-1.1636,-1.164,-1.1123,-1.087,-1.0978,-1.1484,-1.1255,-1.1535,-1.246,-1.2072,-1.1966,-1.2275,-1.2019,-1.1859,-1.1909,-1.2124,-1.2192,-1.1963,-1.1856,-1.1796,-1.1833,-1.1723,-1.1649,-1.166,-1.2004,-1.2123,-1.1916,-1.2487,-1.2802,-1.2735,-1.3092,-1.3266,-1.2787,-1.3092,-1.282,-1.144,-1.1551,-1.1432,-1.0789,-1.056,-1.0634,-1.0634,-1.0487,-1.0367,-1.0316,-1.0146,-0.9953,-0.9751,-0.9716,-0.9512,-0.9098,-0.8885,-0.8731,-0.8467,-0.7965,-0.7578,-0.7493,-0.7221,-0.7005,-0.695,-0.6836,-0.6708,-0.6575,-0.6496,-0.641,-0.641,-0.641,-0.6373,-2.9102,-2.7955,-2.7955,-2.7505,-2.6765,-2.6228,-2.5923,-2.5763,-2.5229,-2.4048,-2.2634,-2.32,-2.2798,-2.1722,-2.2101,-2.1979,-2.1505,-2.1757,-2.1779,-2.1485,-2.1385,-2.1372,-2.1382,-2.0871,-2.0858,-2.1188,-2.0858,-2.0759,-2.0908,-2.0759,-2.056,-2.0472,-2.0409,-2.0139,-1.9603,-1.927,-1.9056,-1.8887,-1.7803,-1.7046,-1.6733,-1.5423,-1.4444,-1.3824,-1.3446,-1.2745,-1.1834,-1.208,-1.2001,-1.1484,-1.1339,-1.1459,-1.1865,-1.1508,-1.1733,-1.2494,-1.1919,-1.1676,-1.2128,-1.2004,-1.1909,-1.202,-1.2138,-1.2233,-1.234,-1.2317,-1.2244,-1.2263,-1.2124,-1.2121,-1.2313,-1.2541,-1.2656,-1.2589,-1.3034,-1.3495,-1.3856,-1.4113,-1.4059,-1.3925,-1.4,-1.3485,-1.2141,-1.1936,-1.181,-1.0929,-1.0929,-1.114,-1.1076,-1.1104,-1.1177,-1.1131,-1.103,-1.0673,-1.0413,-1.0572,-1.0436,-0.9813,-0.9551,-0.9237,-0.8823,-0.8136,-0.7695,-0.7602,-0.7341,-0.7092,-0.694,-0.6793,-0.6666,-0.6526,-0.6453,-0.641,-0.641,-0.641,-0.6373,-2.9726,-2.8666,-2.8536,-2.7882,-2.6823,-2.6692,-2.6344,-2.5908,-2.6344,-2.5228,-2.3182,-2.2922,-2.2702,-2.2237,-2.2305,-2.2047,-2.1586,-2.2867,-2.2857,-2.1959,-2.2554,-2.2608,-2.2105,-2.203,-2.203,-2.2077,-2.1983,-2.1935,-2.1983,-2.1983,-2.1684,-2.1175,-2.1077,-2.0782,-2.0181,-2.008,-2.0054,-2.0066,-1.9417,-1.8497,-1.7206,-1.6479,-1.5691,-1.4723,-1.476,-1.4453,-1.3666,-1.3472,-1.3095,-1.2589,-1.2094,-1.1844,-1.1892,-1.1832,-1.2106,-1.2649,-1.2567,-1.2508,-1.2365,-1.2186,-1.215,-1.2341,-1.2365,-1.2449,-1.2651,-1.2651,-1.271,-1.2814,-1.2789,-1.2938,-1.3472,-1.3868,-1.3895,-1.3545,-1.4252,-1.4616,-1.4052,-1.4499,-1.4529,-1.3126,-1.352,-1.33,-1.2353,-1.2077,-1.1916,-1.1417,-1.1581,-1.1766,-1.1508,-1.1711,-1.1859,-1.1803,-1.1417,-1.0837,-1.0533,-1.0662,-1.0687,-1.0174,-0.9864,-0.9578,-0.917,-0.8658,-0.8203,-0.7809,-0.7595,-0.7277,-0.6986,-0.6793,-0.6666,-0.6611,-0.6489,-0.641,-0.641,-0.641,-0.6373,-2.9767,-2.8637,-2.8274,-2.7607,-2.6837,-2.6794,-2.6634,-2.6431,-2.6649,-2.6093,-2.5,-2.4376,-2.3474,-2.2359,-2.3051,-2.3155,-2.2775,-2.3036,-2.2928,-2.2574,-2.2572,-2.2503,-2.2431,-2.2278,-2.2324,-2.2555,-2.2324,-2.2278,-2.237,-2.2263,-2.2091,-2.1827,-2.1779,-2.1589,-2.1166,-2.0908,-2.0809,-2.0858,-2.0109,-1.9287,-1.8503,-1.7393,-1.6343,-1.5368,-1.5101,-1.4747,-1.4254,-1.4041,-1.3722,-1.3216,-1.2963,-1.2709,-1.2396,-1.2349,-1.248,-1.265,-1.2591,-1.2556,-1.2567,-1.2377,-1.2365,-1.2567,-1.2603,-1.2639,-1.2733,-1.2987,-1.3322,-1.3599,-1.3341,-1.3299,-1.3848,-1.419,-1.4301,-1.4221,-1.4695,-1.498,-1.4853,-1.4844,-1.4474,-1.3717,-1.3806,-1.3446,-1.2173,-1.1786,-1.1752,-1.1822,-1.2043,-1.1975,-1.1865,-1.1984,-1.1948,-1.1831,-1.1647,-1.1434,-1.114,-1.1371,-1.1331,-1.093,-1.0473,-1.0008,-0.9784,-0.8948,-0.8277,-0.7989,-0.7695,-0.7395,-0.696,-0.6885,-0.6793,-0.6738,-0.6702,-0.6623,-0.6453,-0.641,-0.641,-2.9891,-2.8832,-2.7973,-2.7462,-2.7223,-2.7137,-2.7115,-2.7115,-2.7115,-2.6791,-2.6208,-2.5726,-2.4563,-2.318,-2.3797,-2.3958,-2.3723,-2.3608,-2.3412,-2.3265,-2.315,-2.3122,-2.2962,-2.2765,-2.2858,-2.3028,-2.264,-2.2509,-2.2661,-2.2523,-2.237,-2.2324,-2.2324,-2.2137,-2.1793,-2.1479,-2.1396,-2.1334,-2.0628,-2.0061,-1.9439,-1.8274,-1.7112,-1.6063,-1.5502,-1.5049,-1.4651,-1.4546,-1.4265,-1.3734,-1.359,-1.3324,-1.2963,-1.2794,-1.2709,-1.2674,-1.2556,-1.2532,-1.2674,-1.2556,-1.2556,-1.2674,-1.2709,-1.277,-1.295,-1.3276,-1.3795,-1.4357,-1.3998,-1.3955,-1.4399,-1.465,-1.4751,-1.4798,-1.5091,-1.5379,-1.549,-1.5232,-1.4767,-1.425,-1.4156,-1.3697,-1.222,-1.1818,-1.1927,-1.2052,-1.2067,-1.2076,-1.2076,-1.2067,-1.1975,-1.17,-1.1911,-1.1865,-1.1608,-1.1755,-1.1865,-1.1478,-1.0839,-1.0332,-1.0218,-0.9147,-0.8317,-0.8043,-0.7756,-0.741,-0.7006,-0.6921,-0.6872,-0.6865,-0.6781,-0.6708,-0.6453,-0.641,-0.641,-3.0505,-2.9213,-2.798,-2.7706,-2.8203,-2.7921,-2.7815,-2.7765,-2.7815,-2.7171,-2.6249,-2.6608,-2.5974,-2.4551,-2.4394,-2.3986,-2.3931,-2.5029,-2.4855,-2.3812,-2.4861,-2.4965,-2.3891,-2.3847,-2.3833,-2.3717,-2.3086,-2.2812,-2.2843,-2.2857,-2.2752,-2.2601,-2.2569,-2.231,-2.1902,-2.1793,-2.1664,-2.141,-2.1293,-2.0858,-1.9917,-1.8973,-1.8007,-1.6987,-1.6219,-1.5653,-1.5496,-1.5174,-1.4766,-1.4277,-1.3831,-1.3517,-1.3421,-1.2987,-1.2709,-1.2709,-1.2674,-1.2686,-1.2733,-1.2722,-1.2722,-1.2745,-1.2818,-1.2938,-1.3348,-1.3553,-1.3997,-1.4869,-1.4839,-1.5054,-1.5516,-1.5557,-1.5596,-1.5652,-1.5712,-1.5748,-1.5792,-1.5659,-1.5277,-1.4562,-1.4261,-1.3679,-1.2561,-1.2482,-1.2267,-1.2166,-1.2076,-1.2076,-1.2076,-1.2076,-1.2049,-1.203,-1.2021,-1.1938,-1.1627,-1.1819,-1.1823,-1.139,-1.0856,-1.021,-0.971,-0.9127,-0.8561,-0.8136,-0.7943,-0.7596,-0.7098,-0.6872,-0.6787,-0.6745,-0.6623,-0.6502,-0.6416,-0.6416,-0.641,-2.9993,-2.8272,-2.7669,-2.7535,-2.7735,-2.7821,-2.7913,-2.7913,-2.7913,-2.7629,-2.7265,-2.7259,-2.696,-2.6433,-2.6121,-2.5668,-2.518,-2.5477,-2.5354,-2.4976,-2.5148,-2.495,-2.4496,-2.4211,-2.4028,-2.38,-2.3227,-2.2864,-2.2902,-2.2888,-2.2857,-2.2797,-2.2797,-2.2601,-2.2324,-2.2137,-2.1935,-2.1664,-2.1506,-2.0962,-2.0096,-1.9132,-1.8168,-1.7312,-1.6327,-1.5796,-1.5721,-1.5591,-1.5265,-1.4778,-1.4574,-1.4165,-1.3541,-1.2987,-1.2709,-1.2709,-1.2709,-1.2854,-1.3155,-1.3216,-1.3216,-1.324,-1.3541,-1.3602,-1.365,-1.4069,-1.4605,-1.4965,-1.5348,-1.5624,-1.572,-1.5792,-1.5792,-1.5792,-1.5792,-1.5792,-1.5748,-1.5525,-1.5187,-1.4766,-1.4258,-1.342,-1.29,-1.2471,-1.2332,-1.2224,-1.2175,-1.2126,-1.2076,-1.2076,-1.2076,-1.2076,-1.2076,-1.203,-1.1911,-1.1957,-1.1918,-1.136,-1.0795,-1.0218,-0.971,-0.9159,-0.8615,-0.811,-0.7949,-0.7696,-0.722,-0.7054,-0.6963,-0.6708,-0.6587,-0.6496,-0.6459,-0.6416,-0.641,-3.0539,-2.9144,-2.8703,-2.8546,-2.8531,-2.8587,-2.8504,-2.8334,-2.8304,-2.8207,-2.8061,-2.7913,-2.7715,-2.75,-2.7384,-2.7027,-2.6414,-2.6064,-2.5944,-2.5994,-2.5625,-2.5371,-2.509,-2.4753,-2.4601,-2.4365,-2.3616,-2.3227,-2.3192,-2.2989,-2.2888,-2.2888,-2.2888,-2.2812,-2.2615,-2.2417,-2.2184,-2.1855,-2.1616,-2.1118,-2.0205,-1.9429,-1.8554,-1.764,-1.6809,-1.6118,-1.5608,-1.5903,-1.5856,-1.5308,-1.5294,-1.4918,-1.401,-1.3289,-1.2902,-1.2734,-1.2866,-1.3035,-1.3252,-1.3553,-1.3674,-1.3529,-1.3975,-1.4168,-1.4021,-1.4605,-1.5025,-1.5289,-1.554,-1.5792,-1.5792,-1.5792,-1.5792,-1.5792,-1.5792,-1.5792,-1.5792,-1.5513,-1.5289,-1.4971,-1.4165,-1.3467,-1.3142,-1.2715,-1.252,-1.251,-1.2363,-1.2224,-1.2175,-1.2175,-1.2175,-1.2184,-1.2126,-1.2076,-1.2021,-1.2039,-1.1877,-1.1368,-1.0787,-1.0218,-0.971,-0.9159,-0.8655,-0.815,-0.7849,-0.7669,-0.7486,-0.7332,-0.7061,-0.68,-0.6623,-0.6532,-0.6453,-0.6416,-0.6325,-3.2185,-3.1616,-3.1223,-3.0691,-3.0485,-3.0146,-2.9706,-2.9092,-2.9045,-2.8826,-2.8511,-2.8463,-2.8158,-2.77,-2.7898,-2.7765,-2.75,-2.707,-2.6739,-2.654,-2.6645,-2.6366,-2.5857,-2.5626,-2.5597,-2.561,-2.4428,-2.3862,-2.3862,-2.3221,-2.2902,-2.2917,-2.2917,-2.2797,-2.2615,-2.2555,-2.2324,-2.1949,-2.1807,-2.1251,-2.0307,-1.9995,-1.9257,-1.8134,-1.7726,-1.6867,-1.5266,-1.6253,-1.6464,-1.5802,-1.5919,-1.568,-1.4798,-1.4023,-1.3309,-1.3014,-1.3247,-1.3215,-1.3035,-1.3782,-1.4084,-1.3855,-1.4084,-1.4562,-1.4773,-1.4989,-1.5265,-1.5624,-1.5744,-1.5792,-1.5792,-1.5792,-1.5792,-1.5792,-1.5792,-1.5792,-1.5792,-1.5792,-1.5614,-1.5108,-1.4269,-1.3847,-1.3847,-1.3238,-1.2715,-1.2803,-1.2657,-1.2431,-1.2323,-1.2274,-1.2283,-1.2283,-1.2175,-1.2076,-1.2076,-1.2076,-1.1728,-1.1326,-1.0787,-1.021,-0.9658,-0.9145,-0.8582,-0.8123,-0.7802,-0.7615,-0.752,-0.7351,-0.7068,-0.6829,-0.6702,-0.6532,-0.6453,-0.6367,-0.6142,-3.1956,-3.1772,-3.1442,-3.0893,-3.0352,-3.0418,-2.9957,-2.9153,-2.9091,-2.9029,-2.8936,-2.892,-2.8779,-2.8669,-2.8669,-2.8669,-2.8574,-2.8174,-2.7792,-2.7474,-2.7282,-2.7093,-2.6835,-2.652,-2.6433,-2.6103,-2.4247,-2.3717,-2.4192,-2.3438,-2.3091,-2.3441,-2.3105,-2.2917,-2.2797,-2.2661,-2.2431,-2.2077,-2.1902,-2.1396,-2.0657,-2.0193,-1.9656,-1.8958,-1.8403,-1.7678,-1.6923,-1.6905,-1.6756,-1.6481,-1.6606,-1.6239,-1.5439,-1.472,-1.4218,-1.3886,-1.3961,-1.4192,-1.4293,-1.4533,-1.473,-1.467,-1.5019,-1.5175,-1.5085,-1.5336,-1.5588,-1.578,-1.5792,-1.5792,-1.5792,-1.5792,-1.5792,-1.5792,-1.5792,-1.5792,-1.5792,-1.5792,-1.5558,-1.5153,-1.4501,-1.4071,-1.3705,-1.3104,-1.2774,-1.2813,-1.2666,-1.248,-1.2421,-1.2372,-1.2274,-1.2283,-1.2175,-1.2076,-1.2076,-1.1877,-1.1519,-1.1167,-1.0685,-1.0064,-0.9562,-0.9169,-0.8579,-0.8183,-0.7856,-0.7674,-0.7527,-0.7368,-0.715,-0.6878,-0.6679,-0.6551,-0.6459,-0.6276,-0.605,-3.2841,-3.2657,-3.2593,-3.2048,-3.1326,-3.1358,-3.0719,-2.9736,-2.9547,-2.9374,-2.9138,-2.9091,-2.9091,-2.9091,-2.9091,-2.9091,-2.9075,-2.8826,-2.8559,-2.8255,-2.7625,-2.7401,-2.735,-2.6989,-2.6466,-2.5952,-2.4675,-2.4413,-2.5081,-2.4148,-2.3685,-2.3775,-2.3484,-2.312,-2.2917,-2.2752,-2.2615,-2.2324,-2.2091,-2.165,-2.1037,-2.0708,-2.0223,-1.966,-1.9265,-1.8786,-1.8175,-1.7738,-1.7434,-1.7167,-1.7086,-1.6767,-1.6077,-1.5452,-1.494,-1.4631,-1.455,-1.461,-1.479,-1.5013,-1.5193,-1.5145,-1.5492,-1.5648,-1.542,-1.5648,-1.578,-1.5792,-1.5792,-1.5792,-1.5792,-1.5792,-1.5792,-1.5792,-1.5792,-1.5792,-1.5792,-1.5614,-1.5424,-1.5006,-1.4444,-1.4082,-1.38,-1.32,-1.2871,-1.291,-1.2774,-1.2637,-1.2578,-1.2431,-1.2382,-1.2234,-1.1927,-1.1927,-1.2026,-1.1719,-1.1309,-1.0947,-1.0584,-0.9925,-0.9263,-0.9054,-0.8637,-0.8423,-0.8099,-0.801,-0.79,-0.7549,-0.7286,-0.7012,-0.671,-0.6593,-0.6447,-0.6142,-0.5916,-3.4643,-3.4201,-3.4382,-3.3973,-3.3303,-3.287,-3.1871,-3.0718,-3.0323,-2.9832,-2.9327,-2.9185,-2.9091,-2.9091,-2.9091,-2.9091,-2.9091,-2.9075,-2.9029,-2.8748,-2.8073,-2.7503,-2.7299,-2.682,-2.615,-2.5422,-2.5387,-2.5647,-2.5792,-2.5023,-2.4559,-2.4167,-2.3949,-2.3601,-2.312,-2.2946,-2.2752,-2.2555,-2.2324,-2.1921,-2.1321,-2.1382,-2.0994,-2.0165,-2.0274,-1.9913,-1.9098,-1.8814,-1.8338,-1.7595,-1.75,-1.7361,-1.6857,-1.6144,-1.555,-1.5217,-1.5091,-1.4904,-1.4759,-1.5271,-1.5552,-1.5229,-1.5528,-1.5792,-1.5744,-1.5744,-1.5792,-1.5792,-1.5792,-1.5792,-1.5792,-1.5792,-1.5792,-1.5792,-1.5792,-1.5792,-1.5703,-1.539,-1.5244,-1.5017,-1.4316,-1.38,-1.4165,-1.343,-1.3152,-1.3152,-1.3017,-1.2832,-1.2725,-1.2627,-1.2529,-1.2274,-1.1927,-1.1877,-1.2026,-1.1351,-1.0998,-1.1108,-1.0694,-1.0079,-0.9273,-0.9006,-0.8778,-0.8572,-0.8269,-0.8215,-0.8056,-0.7646,-0.7361,-0.7082,-0.6847,-0.6691,-0.6441,-0.6136,-0.5787,-3.5299,-3.4707,-3.4756,-3.4279,-3.3559,-3.3337,-3.253,-3.1342,-3.0766,-3.0338,-2.9864,-2.9343,-2.9138,-2.9091,-2.9107,-2.9091,-2.9091,-2.9091,-2.9091,-2.9029,-2.8527,-2.771,-2.696,-2.6337,-2.6191,-2.6093,-2.5575,-2.5589,-2.6358,-2.5444,-2.5023,-2.5241,-2.4326,-2.3833,-2.3615,-2.312,-2.2826,-2.2601,-2.2569,-2.2324,-2.1983,-2.1935,-2.1771,-2.1369,-2.0945,-2.0589,-2.0026,-1.9659,-1.894,-1.7923,-1.822,-1.804,-1.7321,-1.678,-1.6439,-1.6228,-1.5856,-1.5647,-1.5721,-1.5775,-1.574,-1.5624,-1.5728,-1.5792,-1.5792,-1.5792,-1.5792,-1.5792,-1.5792,-1.5792,-1.5792,-1.5792,-1.5792,-1.5792,-1.5792,-1.5659,-1.5435,-1.548,-1.5525,-1.5108,-1.4444,-1.4212,-1.3978,-1.3525,-1.2968,-1.3017,-1.2978,-1.2881,-1.2822,-1.2725,-1.2627,-1.2382,-1.2126,-1.2017,-1.181,-1.1091,-1.0838,-1.1108,-1.0897,-1.0431,-0.9688,-0.919,-0.8892,-0.8682,-0.8214,-0.8044,-0.7835,-0.7537,-0.7331,-0.7144,-0.6976,-0.6751,-0.6441,-0.6173,-0.5744,-3.5578,-3.4899,-3.4899,-3.4603,-3.4082,-3.3986,-3.3274,-3.2289,-3.171,-3.1134,-3.056,-2.988,-2.9564,-2.9548,-2.9233,-2.9107,-2.9091,-2.9091,-2.9091,-2.8967,-2.8463,-2.7685,-2.6887,-2.6374,-2.6416,-2.6663,-2.6025,-2.6141,-2.6562,-2.5981,-2.5778,-2.556,-2.4791,-2.4167,-2.3818,-2.3235,-2.2843,-2.2737,-2.2661,-2.2523,-2.237,-2.2137,-2.1949,-2.1752,-2.1327,-2.092,-2.0528,-2.0216,-1.9497,-1.8615,-1.856,-1.8395,-1.7514,-1.724,-1.6989,-1.668,-1.6219,-1.6064,-1.6032,-1.5913,-1.5836,-1.5836,-1.5913,-1.5913,-1.5881,-1.5913,-1.6001,-1.5836,-1.5792,-1.5792,-1.5792,-1.5792,-1.5792,-1.5792,-1.5792,-1.5614,-1.5153,-1.5096,-1.496,-1.4547,-1.4222,-1.3941,-1.3752,-1.32,-1.2978,-1.2939,-1.2929,-1.2891,-1.2881,-1.2783,-1.2686,-1.2539,-1.2224,-1.2008,-1.1968,-1.1451,-1.1191,-1.141,-1.1006,-1.0584,-0.99,-0.9278,-0.904,-0.8676,-0.8199,-0.7816,-0.7756,-0.7629,-0.7428,-0.7258,-0.7062,-0.6842,-0.6568,-0.6179,-0.5744,-3.5628,-3.4899,-3.4899,-3.4899,-3.4818,-3.4626,-3.4039,-3.3324,-3.2821,-3.2173,-3.1337,-3.056,-3.0085,-3.0148,-2.958,-2.917,-2.9122,-2.9406,-2.9297,-2.9077,-2.8504,-2.772,-2.7085,-2.6753,-2.6692,-2.6765,-2.6779,-2.6721,-2.6736,-2.6692,-2.6431,-2.5894,-2.5212,-2.4559,-2.4036,-2.3354,-2.2917,-2.2843,-2.2752,-2.2646,-2.2555,-2.2278,-2.2044,-2.1841,-2.1527,-2.1159,-2.0765,-2.0535,-2.0121,-1.9051,-1.8942,-1.8475,-1.7701,-1.7527,-1.7186,-1.671,-1.6497,-1.6293,-1.6088,-1.6088,-1.5969,-1.6044,-1.6207,-1.6194,-1.6001,-1.6032,-1.6032,-1.5836,-1.5792,-1.5792,-1.5792,-1.5792,-1.5792,-1.5792,-1.5792,-1.5525,-1.5153,-1.4686,-1.4212,-1.3705,-1.3658,-1.3382,-1.3104,-1.2929,-1.2891,-1.2891,-1.2891,-1.2891,-1.2881,-1.2822,-1.2842,-1.2803,-1.2431,-1.195,-1.1909,-1.1868,-1.1819,-1.1769,-1.12,-1.0635,-0.9865,-0.9349,-0.9131,-0.8779,-0.8439,-0.8207,-0.8056,-0.7862,-0.7528,-0.7288,-0.7065,-0.6934,-0.6787,-0.6313,-0.5836,-3.6092,-3.4899,-3.4899,-3.4899,-3.4899,-3.4851,-3.4544,-3.4105,-3.3324,-3.2804,-3.2125,-3.0879,-3.0307,-3.0259,-3.0006,-2.9674,-2.9437,-3.0069,-3.035,-2.9428,-2.8985,-2.8339,-2.7661,-2.721,-2.6861,-2.6808,-2.6794,-2.6794,-2.6794,-2.6832,-2.6721,-2.6445,-2.5436,-2.4791,-2.453,-2.3453,-2.2888,-2.2888,-2.2843,-2.2797,-2.2797,-2.2661,-2.2417,-2.2077,-2.1664,-2.1369,-2.1274,-2.1185,-2.0833,-2.0256,-1.9714,-1.9168,-1.8502,-1.7864,-1.7512,-1.7389,-1.7028,-1.6846,-1.6934,-1.6735,-1.6663,-1.6577,-1.6466,-1.6281,-1.6194,-1.6032,-1.5957,-1.5792,-1.5792,-1.5836,-1.5792,-1.5792,-1.5792,-1.5748,-1.5513,-1.5289,-1.5108,-1.4971,-1.4628,-1.4165,-1.38,-1.3525,-1.343,-1.3017,-1.2978,-1.2929,-1.2891,-1.2891,-1.2881,-1.2871,-1.2891,-1.291,-1.2578,-1.2157,-1.2264,-1.2175,-1.1968,-1.1868,-1.1351,-1.0846,-1.0072,-0.951,-0.9309,-0.9054,-0.8772,-0.8514,-0.8163,-0.7816,-0.7473,-0.7248,-0.7088,-0.6976,-0.6781,-0.6355,-0.6142,-3.6257,-3.4932,-3.4899,-3.4899,-3.4899,-3.4899,-3.4756,-3.4431,-3.4007,-3.3583,-3.3029,-3.1598,-3.1038,-3.1245,-3.0592,-3.0085,-3.0291,-3.0796,-3.0935,-3.0357,-2.9898,-2.9042,-2.8246,-2.8047,-2.7897,-2.7074,-2.7113,-2.7084,-2.6934,-2.6951,-2.6974,-2.6715,-2.5658,-2.5039,-2.4704,-2.3615,-2.2946,-2.2888,-2.2888,-2.2888,-2.2888,-2.2797,-2.2509,-2.2077,-2.1712,-2.1568,-2.141,-2.1396,-2.1247,-2.0894,-2.0392,-1.9822,-1.9307,-1.8758,-1.8403,-1.7996,-1.7787,-1.7349,-1.7219,-1.7086,-1.6947,-1.6918,-1.6892,-1.671,-1.6582,-1.6411,-1.625,-1.6001,-1.5913,-1.6001,-1.5836,-1.5792,-1.5792,-1.5748,-1.557,-1.5424,-1.5334,-1.5006,-1.4547,-1.4082,-1.3763,-1.3478,-1.3238,-1.3017,-1.2978,-1.2891,-1.2891,-1.2891,-1.2891,-1.2881,-1.2881,-1.2842,-1.2618,-1.2461,-1.2569,-1.2421,-1.2067,-1.1868,-1.151,-1.1049,-1.049,-0.9976,-0.9562,-0.9247,-0.8834,-0.8369,-0.8036,-0.7682,-0.7446,-0.7174,-0.7005,-0.6992,-0.6907,-0.6647,-0.6568,-3.6273,-3.4899,-3.4899,-3.4899,-3.4899,-3.4899,-3.4787,-3.4594,-3.4513,-3.4268,-3.3907,-3.2482,-3.2079,-3.2254,-3.1292,-3.1052,-3.1365,-3.1365,-3.1363,-3.113,-3.0829,-2.9827,-2.8994,-2.9207,-2.9282,-2.7615,-2.7662,-2.7506,-2.7187,-2.7196,-2.7233,-2.6843,-2.5874,-2.5464,-2.496,-2.3766,-2.311,-2.3272,-2.3141,-2.2978,-2.2888,-2.2752,-2.2449,-2.2137,-2.1902,-2.1793,-2.1664,-2.1616,-2.1541,-2.1492,-2.1029,-2.0566,-2.017,-1.97,-1.9327,-1.8462,-1.8355,-1.8033,-1.7483,-1.7337,-1.7323,-1.7115,-1.7352,-1.7256,-1.6837,-1.6837,-1.668,-1.638,-1.6163,-1.6151,-1.5913,-1.5824,-1.5836,-1.5792,-1.5792,-1.5792,-1.5647,-1.496,-1.4398,-1.3894,-1.3716,-1.3478,-1.3152,-1.2929,-1.2939,-1.2891,-1.2891,-1.2891,-1.2891,-1.2891,-1.2891,-1.2891,-1.2725,-1.2666,-1.2725,-1.2403,-1.2049,-1.181,-1.156,-1.1049,-1.0643,-1.0226,-0.9651,-0.9214,-0.8803,-0.8416,-0.8056,-0.7802,-0.7502,-0.7125,-0.6979,-0.6979,-0.6985,-0.695,-0.6907,-3.6549,-3.4899,-3.4899,-3.4899,-3.4899,-3.4899,-3.4851,-3.4804,-3.4594,-3.4513,-3.4268,-3.334,-3.2724,-3.2657,-3.251,-3.2536,-3.2621,-3.2329,-3.1939,-3.1732,-3.1529,-3.0819,-3.0234,-3.0426,-3.0593,-3.0134,-2.9184,-2.7995,-2.7432,-2.7335,-2.7509,-2.7345,-2.6258,-2.5792,-2.5706,-2.4611,-2.3644,-2.3747,-2.3467,-2.3187,-2.2933,-2.2843,-2.2692,-2.237,-2.2231,-2.2091,-2.203,-2.2044,-2.2091,-2.2063,-2.1979,-2.182,-2.1407,-2.0456,-1.9595,-1.9008,-1.893,-1.8685,-1.8045,-1.7949,-1.7989,-1.7909,-1.7733,-1.7516,-1.7214,-1.7102,-1.7031,-1.6778,-1.6423,-1.6269,-1.6225,-1.5944,-1.5836,-1.5792,-1.5792,-1.5792,-1.5703,-1.5334,-1.472,-1.4258,-1.3894,-1.3478,-1.32,-1.2978,-1.2891,-1.2891,-1.2891,-1.2891,-1.2891,-1.2891,-1.2891,-1.2891,-1.2881,-1.2881,-1.2891,-1.2344,-1.1922,-1.1742,-1.1443,-1.0838,-1.0431,-1.0167,-0.9799,-0.9318,-0.8916,-0.8494,-0.819,-0.7929,-0.7595,-0.7248,-0.7128,-0.6992,-0.6979,-0.6985,-0.6979,-3.6693,-3.5198,-3.4977,-3.4977,-3.5118,-3.4994,-3.4899,-3.4899,-3.4756,-3.4707,-3.4429,-3.3776,-3.3453,-3.347,-3.3064,-3.3139,-3.3268,-3.3061,-3.2699,-3.2541,-3.2457,-3.2295,-3.157,-3.1725,-3.142,-3.0876,-2.9695,-2.8495,-2.7755,-2.791,-2.7944,-2.7716,-2.6881,-2.658,-2.6198,-2.5062,-2.4178,-2.4045,-2.3629,-2.326,-2.2933,-2.2888,-2.2783,-2.2615,-2.2477,-2.2324,-2.2217,-2.217,-2.217,-2.217,-2.217,-2.217,-2.1955,-2.1499,-2.0554,-1.9792,-1.9642,-1.9266,-1.8556,-1.8347,-1.8361,-1.8307,-1.8055,-1.7882,-1.7801,-1.7679,-1.757,-1.7227,-1.6625,-1.6324,-1.6349,-1.6044,-1.5836,-1.5792,-1.5792,-1.5836,-1.5748,-1.557,-1.5198,-1.472,-1.4118,-1.3658,-1.3382,-1.3162,-1.2978,-1.2891,-1.2891,-1.2891,-1.2891,-1.2891,-1.2891,-1.2891,-1.2891,-1.2891,-1.2891,-1.2559,-1.2129,-1.1891,-1.1443,-1.0838,-1.0328,-1.0072,-0.9814,-0.9451,-0.9064,-0.867,-0.8317,-0.8049,-0.7689,-0.7375,-0.7308,-0.7221,-0.7081,-0.6972,-0.6972,-3.6787,-3.5287,-3.5024,-3.5071,-3.5241,-3.5024,-3.4899,-3.4899,-3.4899,-3.4899,-3.4816,-3.4164,-3.4085,-3.4186,-3.3795,-3.3499,-3.3761,-3.3523,-3.3387,-3.3271,-3.3077,-3.3108,-3.3072,-3.244,-3.153,-3.0441,-3.0117,-2.9095,-2.8232,-2.8271,-2.8319,-2.8119,-2.7845,-2.7411,-2.6688,-2.5892,-2.4879,-2.4475,-2.3878,-2.3599,-2.3127,-2.2963,-2.2888,-2.2706,-2.2661,-2.2569,-2.2417,-2.2495,-2.2526,-2.2526,-2.248,-2.2495,-2.2434,-2.2356,-2.1716,-2.0684,-2.0458,-1.9724,-1.8894,-1.8528,-1.8542,-1.8542,-1.8517,-1.8333,-1.8201,-1.8214,-1.8268,-1.7787,-1.7242,-1.6697,-1.6693,-1.6275,-1.6057,-1.5881,-1.5881,-1.5869,-1.5812,-1.5724,-1.5647,-1.5051,-1.4351,-1.3894,-1.361,-1.3152,-1.2929,-1.2891,-1.2891,-1.2891,-1.2891,-1.2891,-1.2891,-1.2891,-1.2891,-1.2891,-1.2891,-1.2891,-1.2559,-1.2363,-1.1701,-1.0998,-1.049,-1.0028,-0.9769,-0.9458,-0.9261,-0.8857,-0.8514,-0.817,-0.7856,-0.7622,-0.7574,-0.7355,-0.7121,-0.6979,-0.6972,-3.6645,-3.4947,-3.493,-3.4947,-3.4994,-3.4994,-3.4947,-3.493,-3.4961,-3.4899,-3.493,-3.4719,-3.4558,-3.4431,-3.4169,-3.4003,-3.4018,-3.3949,-3.3797,-3.3578,-3.3195,-3.3042,-3.3045,-3.1902,-3.0945,-3.0086,-3.0033,-2.9468,-2.8714,-2.8527,-2.8669,-2.8685,-2.8155,-2.7813,-2.8059,-2.6974,-2.6683,-2.6655,-2.5716,-2.4526,-2.3554,-2.3319,-2.3172,-2.2963,-2.2873,-2.2828,-2.2828,-2.3038,-2.3187,-2.3187,-2.3231,-2.3231,-2.3187,-2.2963,-2.212,-2.1297,-2.0624,-2.0085,-1.9069,-1.8745,-1.8745,-1.8721,-1.862,-1.8503,-1.8503,-1.845,-1.8464,-1.8439,-1.7962,-1.757,-1.7267,-1.6837,-1.6552,-1.6262,-1.6113,-1.5988,-1.5876,-1.5856,-1.578,-1.5558,-1.4869,-1.4305,-1.3894,-1.3344,-1.2891,-1.2891,-1.2891,-1.2891,-1.2891,-1.2891,-1.2891,-1.2891,-1.2891,-1.2891,-1.2891,-1.2891,-1.2735,-1.2627,-1.1918,-1.1158,-1.0592,-1.0079,-0.9718,-0.9429,-0.9254,-0.9045,-0.8698,-0.8344,-0.8044,-0.7816,-0.7649,-0.7375,-0.7038,-0.6992,-0.7014,-3.6598,-3.5453,-3.5287,-3.5424,-3.5739,-3.5588,-3.5481,-3.5397,-3.5032,-3.4964,-3.5061,-3.4697,-3.4625,-3.4609,-3.4448,-3.4333,-3.43,-3.4201,-3.405,-3.3933,-3.3544,-3.315,-3.257,-3.2146,-3.1302,-3.0268,-2.9956,-2.969,-2.9077,-2.8826,-2.892,-2.8982,-2.8668,-2.8369,-2.8726,-2.785,-2.7014,-2.6262,-2.5226,-2.4371,-2.3857,-2.3551,-2.3319,-2.3216,-2.3187,-2.3172,-2.326,-2.3523,-2.3739,-2.3739,-2.3739,-2.3739,-2.3653,-2.3376,-2.276,-2.201,-2.1462,-2.0553,-1.9248,-1.8917,-1.886,-1.8898,-1.8798,-1.8721,-1.876,-1.8721,-1.8683,-1.8683,-1.824,-1.7976,-1.7773,-1.7222,-1.6774,-1.6485,-1.6343,-1.6132,-1.602,-1.5988,-1.5913,-1.5647,-1.5424,-1.4869,-1.4351,-1.3847,-1.344,-1.3296,-1.3113,-1.2891,-1.2891,-1.2891,-1.2891,-1.2891,-1.2891,-1.2891,-1.2891,-1.2891,-1.2627,-1.2372,-1.181,-1.115,-1.0651,-1.0138,-0.9769,-0.951,-0.9422,-0.9176,-0.8826,-0.86,-0.8412,-0.8064,-0.7742,-0.7428,-0.7134,-0.7027,-0.7014,-3.674,-3.6028,-3.5677,-3.5854,-3.6301,-3.6037,-3.577,-3.5522,-3.5019,-3.4813,-3.4701,-3.4382,-3.4451,-3.4861,-3.4739,-3.4643,-3.4723,-3.4431,-3.425,-3.4218,-3.394,-3.3416,-3.2926,-3.2638,-3.1837,-3.0732,-3.0513,-2.9973,-2.9404,-2.9167,-2.9167,-2.9137,-2.9028,-2.8807,-2.8521,-2.8239,-2.7709,-2.6248,-2.5521,-2.4783,-2.42,-2.3867,-2.3681,-2.3595,-2.3551,-2.3551,-2.3595,-2.3925,-2.4109,-2.4109,-2.4109,-2.4109,-2.4051,-2.3752,-2.318,-2.2471,-2.1987,-2.1083,-1.9861,-1.9161,-1.9031,-1.8988,-1.8974,-1.8898,-1.9011,-1.8936,-1.886,-1.8874,-1.863,-1.8458,-1.8289,-1.7692,-1.7238,-1.6888,-1.6602,-1.6362,-1.6175,-1.6163,-1.6076,-1.5869,-1.5691,-1.5513,-1.496,-1.4408,-1.4035,-1.3752,-1.344,-1.3027,-1.2929,-1.2978,-1.2929,-1.2929,-1.2891,-1.2891,-1.2891,-1.2832,-1.2578,-1.2323,-1.176,-1.1309,-1.0854,-1.0395,-0.9932,-0.9725,-0.9607,-0.9489,-0.9269,-0.8997,-0.8721,-0.8105,-0.7627,-0.7428,-0.7228,-0.7137,-0.714,-3.7101,-3.6419,-3.6054,-3.5907,-3.5994,-3.589,-3.5531,-3.5061,-3.4899,-3.4338,-3.3777,-3.3729,-3.4392,-3.499,-3.4905,-3.4908,-3.5237,-3.4961,-3.4691,-3.4316,-3.3923,-3.386,-3.3518,-3.2854,-3.1933,-3.1357,-3.0988,-3.0332,-2.9678,-2.9494,-2.9339,-2.9137,-2.9137,-2.9059,-2.8854,-2.8539,-2.7987,-2.6859,-2.6314,-2.5561,-2.4818,-2.4317,-2.4193,-2.4024,-2.3982,-2.3982,-2.3982,-2.4276,-2.4457,-2.4441,-2.4457,-2.4457,-2.44,-2.4094,-2.3507,-2.2892,-2.2278,-2.1361,-2.0294,-1.9397,-1.9107,-1.9116,-1.9064,-1.9064,-1.9101,-1.9101,-1.9078,-1.9064,-1.886,-1.8774,-1.8609,-1.8319,-1.7801,-1.7446,-1.707,-1.6778,-1.6595,-1.6423,-1.6337,-1.6076,-1.5913,-1.5736,-1.5513,-1.4949,-1.4593,-1.4316,-1.3752,-1.3334,-1.3142,-1.3094,-1.2958,-1.291,-1.2929,-1.2891,-1.2891,-1.2783,-1.2735,-1.2529,-1.2116,-1.171,-1.1309,-1.0753,-1.0241,-1.0092,-1.001,-0.9884,-0.9676,-0.9302,-0.8791,-0.7985,-0.762,-0.7699,-0.7559,-0.7433,-0.7467,-3.7073,-3.6788,-3.6632,-3.6574,-3.6574,-3.6574,-3.6157,-3.5474,-3.5404,-3.4789,-3.3796,-3.3778,-3.3888,-3.4259,-3.4555,-3.4571,-3.4745,-3.4891,-3.4833,-3.4754,-3.4541,-3.4414,-3.4088,-3.3452,-3.2463,-3.1742,-3.1356,-3.0665,-2.9598,-2.9763,-2.9651,-2.9418,-2.9215,-2.9137,-2.8949,-2.8428,-2.7715,-2.7146,-2.634,-2.5359,-2.5073,-2.458,-2.4416,-2.4333,-2.4276,-2.4291,-2.4374,-2.462,-2.4742,-2.4782,-2.4782,-2.4782,-2.4726,-2.4441,-2.3998,-2.3326,-2.2606,-2.1605,-2.0713,-1.9764,-1.913,-1.9116,-1.9116,-1.9116,-1.9116,-1.9116,-1.9116,-1.9116,-1.9116,-1.8965,-1.8902,-1.8623,-1.8254,-1.7963,-1.7624,-1.7323,-1.6976,-1.6765,-1.6479,-1.6219,-1.6132,-1.6013,-1.578,-1.5457,-1.5142,-1.4823,-1.4212,-1.3647,-1.3447,-1.3256,-1.3112,-1.2929,-1.29,-1.2929,-1.2891,-1.2891,-1.2891,-1.2735,-1.248,-1.2067,-1.1669,-1.1259,-1.0838,-1.0637,-1.0432,-1.027,-1.0,-0.9522,-0.9009,-0.8437,-0.8252,-0.8301,-0.8092,-0.7814,-0.7758,-3.697,-3.697,-3.697,-3.697,-3.697,-3.697,-3.6408,-3.5618,-3.5685,-3.52,-3.4172,-3.3785,-3.3823,-3.4106,-3.4558,-3.4922,-3.5108,-3.5234,-3.5237,-3.5161,-3.5068,-3.4977,-3.4605,-3.41,-3.3383,-3.2417,-3.1805,-3.1144,-3.0071,-3.0179,-2.9846,-2.9482,-2.9404,-2.939,-2.887,-2.8268,-2.7604,-2.713,-2.6577,-2.5591,-2.5415,-2.5111,-2.4786,-2.4739,-2.4645,-2.4645,-2.4686,-2.4846,-2.4926,-2.4966,-2.4966,-2.4966,-2.4886,-2.4766,-2.4482,-2.382,-2.2935,-2.1879,-2.1114,-1.9992,-1.9145,-1.9116,-1.9116,-1.9116,-1.9116,-1.9116,-1.9116,-1.9116,-1.9116,-1.9084,-1.9075,-1.8855,-1.8567,-1.8296,-1.8149,-1.7828,-1.7297,-1.6976,-1.665,-1.6362,-1.6275,-1.6188,-1.5957,-1.5635,-1.5232,-1.496,-1.4686,-1.4143,-1.3726,-1.349,-1.3273,-1.3082,-1.2909,-1.29,-1.2891,-1.2891,-1.2891,-1.2881,-1.2627,-1.2372,-1.1968,-1.1619,-1.1301,-1.1007,-1.0771,-1.066,-1.0432,-1.0108,-0.9597,-0.9004,-0.8812,-0.8588,-0.8607,-0.83,-0.8021,-3.697,-3.697,-3.6935,-3.6939,-3.6882,-3.7009,-3.611,-3.4969,-3.5267,-3.4973,-3.4129,-3.3819,-3.4129,-3.4887,-3.5214,-3.5625,-3.5788,-3.5788,-3.5688,-3.5616,-3.5316,-3.5287,-3.5128,-3.4678,-3.3964,-3.3598,-3.2741,-3.1713,-3.0833,-3.0525,-2.9987,-2.9733,-2.9842,-2.9751,-2.9153,-2.9044,-2.8695,-2.8094,-2.7762,-2.6814,-2.5977,-2.5636,-2.5296,-2.5012,-2.4886,-2.4886,-2.4926,-2.4926,-2.5005,-2.5005,-2.5005,-2.5005,-2.4966,-2.4966,-2.4766,-2.4364,-2.339,-2.254,-2.1842,-2.007,-1.933,-1.9116,-1.9116,-1.9116,-1.9116,-1.9116,-1.9116,-1.9116,-1.9116,-1.9116,-1.9078,-1.904,-1.8812,-1.8659,-1.8514,-1.8147,-1.7585,-1.7144,-1.682,-1.6491,-1.6405,-1.6306,-1.6088,-1.578,-1.5277,-1.5051,-1.5006,-1.4698,-1.4264,-1.3986,-1.3773,-1.3423,-1.3243,-1.3122,-1.3123,-1.2929,-1.2891,-1.2881,-1.2783,-1.2578,-1.2382,-1.2175,-1.1801,-1.1425,-1.1204,-1.1058,-1.0953,-1.0775,-1.0136,-0.945,-0.8996,-0.8815,-0.8854,-0.8724,-0.8316,-3.697,-3.6882,-3.5881,-3.5759,-3.6162,-3.6215,-3.5618,-3.4653,-3.3986,-3.3615,-3.3735,-3.3587,-3.3694,-3.4303,-3.5134,-3.5669,-3.5687,-3.5708,-3.5571,-3.5554,-3.522,-3.5118,-3.4941,-3.4545,-3.4074,-3.3488,-3.2774,-3.2226,-3.1623,-3.108,-3.0755,-3.0513,-3.0247,-2.9903,-2.921,-2.8742,-2.8094,-2.7431,-2.6893,-2.6214,-2.5496,-2.5401,-2.5322,-2.5037,-2.5045,-2.5045,-2.5045,-2.5045,-2.5045,-2.5045,-2.5045,-2.5005,-2.5005,-2.5005,-2.4846,-2.4387,-2.3484,-2.2273,-2.1231,-1.9942,-1.9553,-1.9288,-1.9153,-1.9176,-1.9101,-1.9116,-1.9116,-1.9116,-1.9116,-1.9116,-1.9116,-1.9116,-1.8965,-1.8874,-1.8655,-1.8226,-1.7747,-1.7352,-1.7031,-1.665,-1.6448,-1.6436,-1.6262,-1.6057,-1.5647,-1.5468,-1.5468,-1.5468,-1.5096,-1.4767,-1.4549,-1.4011,-1.3731,-1.3484,-1.3344,-1.321,-1.3075,-1.3027,-1.2978,-1.2832,-1.2686,-1.2529,-1.2471,-1.2157,-1.1799,-1.1487,-1.1161,-1.0868,-1.0414,-0.989,-0.9496,-0.9119,-0.9047,-0.8765,-0.8275,-3.6022,-3.5671,-3.4723,-3.4389,-3.467,-3.4898,-3.4846,-3.4389,-3.3125,-3.2827,-3.3423,-3.3757,-3.3757,-3.4071,-3.506,-3.5623,-3.5491,-3.5402,-3.5419,-3.5348,-3.4901,-3.476,-3.4535,-3.4396,-3.4416,-3.3846,-3.3333,-3.2751,-3.2446,-3.1704,-3.1373,-3.1199,-3.0824,-3.0281,-2.9556,-2.893,-2.8275,-2.7769,-2.7376,-2.6598,-2.6054,-2.5815,-2.5767,-2.5422,-2.5323,-2.5362,-2.5246,-2.5185,-2.5185,-2.5146,-2.5068,-2.4989,-2.4989,-2.4966,-2.4776,-2.4202,-2.3155,-2.188,-2.0685,-2.0257,-1.9869,-1.9523,-1.945,-1.9362,-1.9273,-1.9273,-1.9176,-1.9139,-1.9101,-1.9101,-1.9101,-1.9101,-1.9064,-1.8974,-1.8822,-1.8422,-1.8108,-1.7707,-1.7352,-1.6976,-1.6693,-1.665,-1.6479,-1.6275,-1.6013,-1.5969,-1.5981,-1.5925,-1.5836,-1.5412,-1.5073,-1.4642,-1.4196,-1.3946,-1.3716,-1.3488,-1.3344,-1.3162,-1.3065,-1.2978,-1.2891,-1.2735,-1.2832,-1.2832,-1.2297,-1.1756,-1.1246,-1.0869,-1.0428,-1.0205,-1.001,-0.9686,-0.9368,-0.8886,-0.8398,-3.4214,-3.3528,-3.3423,-3.3003,-3.2599,-3.3125,-3.374,-3.4354,-3.3003,-3.2809,-3.3441,-3.4091,-3.3968,-3.4022,-3.5794,-3.6211,-3.5714,-3.5439,-3.5319,-3.515,-3.4694,-3.4496,-3.446,-3.4547,-3.4559,-3.4684,-3.4281,-3.3332,-3.322,-3.2579,-3.2159,-3.1692,-3.0945,-3.058,-3.0118,-2.9379,-2.8788,-2.8475,-2.8007,-2.7267,-2.6645,-2.6911,-2.6409,-2.5967,-2.5726,-2.5742,-2.5615,-2.554,-2.5503,-2.5406,-2.5208,-2.5036,-2.4974,-2.5005,-2.4523,-2.3733,-2.256,-2.1647,-2.068,-2.0441,-2.0339,-2.0061,-2.0025,-1.9833,-1.9654,-1.9545,-1.945,-1.9288,-1.9213,-1.9139,-1.9101,-1.9101,-1.9116,-1.9064,-1.9011,-1.8745,-1.8514,-1.8147,-1.7828,-1.7503,-1.7186,-1.6989,-1.6693,-1.6448,-1.6491,-1.6522,-1.6466,-1.6219,-1.6044,-1.5647,-1.5311,-1.5141,-1.471,-1.4422,-1.4165,-1.3905,-1.3705,-1.361,-1.3248,-1.3113,-1.3027,-1.2929,-1.2891,-1.2773,-1.2471,-1.1963,-1.126,-1.0791,-1.0449,-1.0293,-1.0225,-0.9883,-0.9487,-0.9128,-0.8683,-3.3722,-3.3336,-3.1774,-3.1265,-3.1493,-3.123,-3.1528,-3.2125,-3.2248,-3.2564,-3.2739,-3.295,-3.3143,-3.3634,-3.4776,-3.5074,-3.5119,-3.514,-3.4914,-3.4605,-3.4165,-3.4125,-3.4168,-3.4269,-3.443,-3.4219,-3.3863,-3.3634,-3.3186,-3.2865,-3.2224,-3.1511,-3.0967,-3.0805,-3.0438,-2.9634,-2.9304,-2.9055,-2.8633,-2.7781,-2.7252,-2.7344,-2.6768,-2.633,-2.617,-2.617,-2.5997,-2.5908,-2.5835,-2.5503,-2.5427,-2.5125,-2.4239,-2.4602,-2.4507,-2.2907,-2.2429,-2.2102,-2.0978,-2.0695,-2.0628,-2.0543,-2.0543,-2.0254,-2.0061,-1.9908,-1.9852,-1.9642,-1.9479,-1.9457,-1.922,-1.9101,-1.9116,-1.9064,-1.9026,-1.8822,-1.8592,-1.8383,-1.8068,-1.7828,-1.7516,-1.7269,-1.6947,-1.6947,-1.6989,-1.7047,-1.6964,-1.6667,-1.6293,-1.5856,-1.5591,-1.5389,-1.5209,-1.4903,-1.4674,-1.4455,-1.4258,-1.4025,-1.3658,-1.3382,-1.3392,-1.3296,-1.3027,-1.2782,-1.2612,-1.1935,-1.1094,-1.0781,-1.0693,-1.04,-1.0293,-0.9941,-0.9646,-0.9337,-0.9016,-3.2001,-3.151,-3.0229,-2.972,-2.9772,-2.9685,-2.9913,-3.0404,-3.1159,-3.1493,-3.1528,-3.1809,-3.2002,-3.2213,-3.3161,-3.3599,-3.323,-3.3134,-3.302,-3.2893,-3.3122,-3.252,-3.2633,-3.3356,-3.3584,-3.3494,-3.3625,-3.3745,-3.3168,-3.2393,-3.1716,-3.1839,-3.1081,-3.0994,-3.0803,-2.9954,-2.9467,-2.9306,-2.8925,-2.7948,-2.7568,-2.7504,-2.7253,-2.6617,-2.6604,-2.6705,-2.6367,-2.6315,-2.6106,-2.5664,-2.5505,-2.4767,-2.384,-2.3875,-2.3559,-2.2157,-2.1881,-2.1568,-2.0872,-2.081,-2.081,-2.081,-2.081,-2.0628,-2.0596,-2.0547,-2.0334,-2.0117,-1.9968,-1.9782,-1.9397,-1.9116,-1.9116,-1.9116,-1.895,-1.8798,-1.863,-1.85,-1.8266,-1.8082,-1.7841,-1.7557,-1.7434,-1.7447,-1.7447,-1.7462,-1.738,-1.7173,-1.668,-1.6132,-1.5869,-1.568,-1.5546,-1.5334,-1.5153,-1.496,-1.4777,-1.449,-1.4165,-1.3941,-1.3847,-1.3705,-1.3573,-1.3229,-1.2866,-1.2203,-1.1565,-1.1283,-1.1103,-1.0861,-1.0685,-1.0541,-1.0202,-0.967,-0.9332,-2.9753,-2.9,-2.8825,-2.8456,-2.7877,-2.8526,-2.8842,-2.8895,-2.9614,-3.0018,-3.0264,-3.0756,-3.0703,-3.0878,-3.1721,-3.1861,-3.1687,-3.1568,-3.155,-3.0838,-3.1214,-3.0962,-3.1185,-3.1726,-3.2624,-3.3118,-3.3384,-3.3422,-3.2984,-3.2057,-3.1411,-3.2107,-3.0779,-3.0501,-3.1027,-2.9845,-2.9401,-2.961,-2.8983,-2.802,-2.769,-2.7911,-2.823,-2.7199,-2.735,-2.7739,-2.6978,-2.664,-2.6455,-2.5843,-2.5092,-2.4293,-2.3565,-2.2801,-2.2185,-2.19,-2.1584,-2.1205,-2.0936,-2.081,-2.081,-2.081,-2.081,-2.0903,-2.0973,-2.0886,-2.0635,-2.027,-2.007,-1.9708,-1.9324,-1.9153,-1.9116,-1.9116,-1.9026,-1.895,-1.8874,-1.8745,-1.863,-1.8397,-1.8147,-1.7908,-1.7868,-1.7882,-1.8002,-1.7948,-1.7787,-1.7625,-1.7173,-1.6509,-1.6219,-1.6001,-1.578,-1.5691,-1.5603,-1.5412,-1.5244,-1.496,-1.4628,-1.4444,-1.4362,-1.4269,-1.4118,-1.371,-1.3305,-1.2858,-1.2358,-1.1975,-1.1587,-1.139,-1.1273,-1.1283,-1.0868,-1.0268,-0.9818,-2.9266,-2.8976,-2.8305,-2.7859,-2.7736,-2.7894,-2.7999,-2.7999,-2.8175,-2.8983,-2.986,-2.9702,-2.972,-3.0071,-3.0334,-3.0422,-3.039,-3.0427,-3.0622,-3.0501,-3.0385,-3.0057,-3.0385,-3.1307,-3.1917,-3.2022,-3.2284,-3.2773,-3.2283,-3.1282,-3.0475,-3.0703,-3.0091,-3.0462,-3.0918,-2.9715,-2.9542,-2.9702,-2.8899,-2.8237,-2.8013,-2.7978,-2.8047,-2.7478,-2.7558,-2.7558,-2.6965,-2.6522,-2.6126,-2.5546,-2.458,-2.3826,-2.3158,-2.2331,-2.1948,-2.1853,-2.1637,-2.1305,-2.0987,-2.0893,-2.0925,-2.0827,-2.0906,-2.1205,-2.1282,-2.109,-2.0808,-2.0406,-2.0083,-1.9723,-1.9383,-1.9242,-1.9139,-1.9139,-1.9116,-1.9101,-1.9116,-1.9026,-1.8912,-1.8707,-1.8422,-1.8344,-1.8358,-1.8397,-1.8514,-1.8475,-1.8279,-1.8028,-1.7625,-1.7089,-1.668,-1.638,-1.6044,-1.5913,-1.5913,-1.5824,-1.5647,-1.5468,-1.5187,-1.5051,-1.4926,-1.4766,-1.4571,-1.4201,-1.3778,-1.3346,-1.2884,-1.2381,-1.2063,-1.1881,-1.1783,-1.1753,-1.1475,-1.0964,-1.0541,-2.8981,-2.8829,-2.8271,-2.801,-2.7982,-2.7876,-2.7836,-2.7806,-2.773,-2.8175,-2.893,-2.8614,-2.8631,-2.9035,-2.9035,-2.9123,-2.9193,-2.9404,-2.9197,-2.9246,-2.9474,-2.9215,-2.9737,-3.0472,-3.0404,-3.0527,-3.1355,-3.1723,-3.1352,-3.1212,-3.0668,-3.0422,-3.0317,-3.0334,-3.0615,-3.0214,-2.9481,-2.9376,-2.8635,-2.8161,-2.8085,-2.8122,-2.8051,-2.7618,-2.7601,-2.748,-2.6835,-2.6338,-2.5832,-2.5077,-2.4043,-2.3205,-2.2639,-2.2166,-2.1876,-2.1778,-2.1665,-2.1633,-2.1231,-2.1103,-2.1135,-2.1071,-2.1023,-2.1343,-2.1079,-2.0901,-2.1036,-2.0736,-2.0829,-2.0537,-1.9876,-1.9632,-1.9472,-1.9384,-1.931,-1.9273,-1.9176,-1.9064,-1.9026,-1.895,-1.8784,-1.8784,-1.8745,-1.8745,-1.886,-1.8874,-1.8669,-1.8475,-1.8028,-1.7612,-1.7214,-1.685,-1.6509,-1.6175,-1.6057,-1.6057,-1.5969,-1.5836,-1.5691,-1.5647,-1.5513,-1.5266,-1.5028,-1.4755,-1.4365,-1.3871,-1.3413,-1.2872,-1.2612,-1.2439,-1.2312,-1.2204,-1.1885,-1.1602,-1.1178,-2.8722,-2.8658,-2.8504,-2.8428,-2.8402,-2.8085,-2.8002,-2.8027,-2.777,-2.7683,-2.7912,-2.7836,-2.7701,-2.7701,-2.7701,-2.7701,-2.7859,-2.8263,-2.7964,-2.7912,-2.7947,-2.8175,-2.8438,-2.8719,-2.8921,-2.9411,-3.0164,-3.0267,-3.0071,-3.0036,-3.0124,-3.0545,-3.0633,-3.0562,-3.0931,-3.0317,-2.9092,-2.9078,-2.8526,-2.7674,-2.7722,-2.8007,-2.7851,-2.7851,-2.7799,-2.7504,-2.6683,-2.5906,-2.5431,-2.4624,-2.3583,-2.2819,-2.2348,-2.2026,-2.1886,-2.1732,-2.1826,-2.1699,-2.154,-2.1601,-2.154,-2.1479,-2.1386,-2.1214,-2.1006,-2.0936,-2.1088,-2.1127,-2.1245,-2.0936,-2.0294,-1.9919,-1.9762,-1.953,-1.9457,-1.9384,-1.9213,-1.9101,-1.9101,-1.9064,-1.9101,-1.9101,-1.9101,-1.9087,-1.9101,-1.9101,-1.9026,-1.8836,-1.8553,-1.8187,-1.7787,-1.738,-1.7005,-1.668,-1.6318,-1.6188,-1.6188,-1.6013,-1.5913,-1.6057,-1.61,-1.5768,-1.5534,-1.5389,-1.4994,-1.4367,-1.3831,-1.3287,-1.31,-1.2812,-1.2656,-1.2528,-1.2344,-1.2061,-1.1723,-2.8228,-2.8682,-2.8634,-2.8634,-2.8518,-2.7876,-2.7967,-2.8341,-2.7512,-2.7469,-2.7761,-2.7765,-2.7701,-2.7683,-2.7701,-2.7701,-2.7701,-2.7701,-2.7701,-2.7719,-2.7719,-2.7701,-2.7841,-2.815,-2.8001,-2.8481,-2.9061,-2.9176,-2.922,-2.8838,-2.8456,-2.8609,-2.9242,-2.9312,-2.9334,-2.886,-2.8732,-2.8583,-2.8075,-2.7221,-2.6982,-2.7225,-2.7565,-2.7391,-2.6974,-2.6648,-2.6069,-2.5077,-2.4552,-2.3922,-2.3247,-2.2564,-2.2265,-2.2141,-2.201,-2.1982,-2.2039,-2.1998,-2.1969,-2.1998,-2.194,-2.1836,-2.1718,-2.1538,-2.1308,-2.1071,-2.1118,-2.1118,-2.108,-2.0655,-2.0185,-2.0096,-1.994,-1.9617,-1.9472,-1.9325,-1.9139,-1.9139,-1.9139,-1.9139,-1.9139,-1.9139,-1.9124,-1.9124,-1.9176,-1.9176,-1.9124,-1.8936,-1.8707,-1.8514,-1.8319,-1.7948,-1.7503,-1.6976,-1.6522,-1.6405,-1.6318,-1.6188,-1.6132,-1.6306,-1.6306,-1.6144,-1.6001,-1.5844,-1.5344,-1.4687,-1.4201,-1.3742,-1.3286,-1.3025,-1.29,-1.2773,-1.2666,-1.2575,-1.2332]},{"header":{"parameterUnit":"m.s-1","parameterCategory":1,"la1":31.0,"la2":29.5877,"lo1":-88.7671,"lo2":-86.6584,"dy":0.0162,"dx":0.0185,"nx":115,"ny":88,"refTime":"2023-05-30T06:00:00:Z","depth":0,"parameterNumber":3,"parameterNumberName":"V-component_of_WINDS"},"data":[0.0,0.0,0.0,0.0,0.0,0.0,0.0,0.0,0.0,0.0,0.0,0.0,0.0,0.0,0.0,0.0,0.0,0.0,0.0,0.0,0.0,0.0,0.0,0.0,0.0,0.0,0.0,0.0,0.0,0.0,0.0,0.0,0.0,0.0,0.0,0.0,0.0,0.0,0.0,0.0,0.0,0.0,0.0,0.0,0.0,0.0,0.0,0.0,0.0,0.0,0.0,0.0,0.0,0.0,0.0,0.0,0.0,0.0,0.0,0.0,0.0,0.0,0.0,0.0,0.0,0.0,0.0,0.0,0.0,0.0,0.0,0.0,0.0,0.0,0.0,0.0,0.0,0.0,0.0,0.0,0.0,0.0,0.0,0.0,0.0,0.0,0.0,0.0,0.0,0.0,0.0,0.0,0.0,0.0,0.0,0.0,0.0,0.0,0.0,0.0,0.0,0.0,0.0,0.0,0.0,0.0,0.0,0.0,0.0,0.0,0.0,0.0,0.0,0.0,0.0,0.0,0.0,0.0,0.0,0.0,0.0,0.0,0.0,0.0,0.0,0.0,0.0,0.0,0.0,0.0,0.0,0.0,0.0,0.0,0.0,0.0,0.0,0.0,0.0,0.0,0.0,0.0,0.0,0.0,0.0,0.0,0.0,0.0,0.0,0.0,0.0,0.0,0.0,0.0,0.0,0.0,0.0,0.0,0.0,0.0,0.0,0.0,0.0,0.0,0.0,0.0,0.0,0.0,0.0,0.0,0.0,0.0,0.0,0.0,0.0,0.0,0.0,0.0,0.0,0.0,0.0,0.0,0.0,0.0,0.0,0.0,0.0,0.0,0.0,0.0,0.0,0.0,0.0,0.0,0.0,0.0,0.0,0.0,0.0,0.0,0.0,0.0,0.0,0.0,0.0,0.0,0.0,0.0,0.0,0.0,0.0,0.0,0.0,0.0,0.0,0.0,0.0,0.0,0.0,0.0,0.0,0.0,0.0,0.0,0.0,0.0,0.0,0.0,0.0,0.0,0.0,0.0,0.0,0.0,0.0,0.0,0.0,0.0,0.0,0.0,0.0,0.0,0.0,0.0,0.0,0.0,0.0,0.0,0.0,0.0,0.0,0.0,0.0,0.0,0.0,0.0,0.0,0.0,0.0,0.0,0.0,0.0,0.0,0.0,0.0,0.0,0.0,0.0,0.0,0.0,0.0,0.0,0.0,0.0,0.0,0.0,0.0,0.0,0.0,0.0,0.0,0.0,0.0,0.0,0.0,0.0,0.0,0.0,0.0,0.0,0.0,0.0,0.0,0.0,0.0,0.0,0.0,0.0,0.0,0.0,0.0,0.0,0.0,0.0,0.0,0.0,0.0,0.0,0.0,0.0,0.0,0.0,0.0,0.0,0.0,0.0,0.0,0.0,0.0,0.0,0.0,0.0,0.0,0.0,0.0,0.0,0.0,0.0,0.0,0.0,0.0,0.0,0.0,0.0,0.0,0.0,0.0,0.0,0.0,0.0,0.0,0.0,0.0,0.0,0.0,0.0,0.0,0.0,0.0,0.0,0.0,0.0,0.0,0.0,0.0,0.0,0.0,0.0,0.0,0.0,0.0,0.0,0.0,0.0,0.0,0.0,0.0,0.0,0.0,0.0,0.0,0.0,0.0,0.0,0.0,0.0,0.0,0.0,0.0,0.0,0.0,0.0,0.0,0.0,0.0,0.0,0.0,0.0,0.0,0.0,0.0,0.0,0.0,0.0,0.0,0.0,0.0,0.0,0.0,0.0,0.0,0.0,0.0,0.0,0.0,0.0,0.0,0.0,0.0,0.0,0.0,0.0,0.0,0.0,0.0,0.0,0.0,0.0,0.0,0.0,0.0,0.0,0.0,0.0,0.0,0.0,0.0,0.0,0.0,0.0,0.0,0.0,0.0,0.0,0.0,0.0,0.0,0.0,0.0,0.0,0.0,0.0,0.0,0.0,0.0,0.0,0.0,0.0,0.0,0.0,0.0,0.0,0.0,0.0,0.0,0.0,0.0,0.0,0.0,0.0,0.0,0.0,0.0,0.0,0.0,0.0,0.0,0.0,0.0,0.0,0.0,0.0,0.0,0.0,0.0,0.0,0.0,0.0,0.0,0.0,0.0,0.0,0.0,0.0,0.0,0.0,0.0,0.0,0.0,0.0,0.0,0.0,0.0,0.0,0.0,0.0,0.0,0.0,0.0,0.0,0.0,0.0,0.0,0.0,0.0,0.0,0.0,0.0,0.0,0.0,0.0,0.0,0.0,0.0,0.0,0.0,0.0,0.0,0.0,0.0,0.0,0.0,0.0,0.0,0.0,0.0,0.0,0.0,0.0,0.0,0.0,0.0,0.0,0.0,0.0,0.0,0.0,0.0,0.0,0.0,0.0,0.0,0.0,0.0,0.0,0.0,0.0,0.0,0.0,0.0,0.0,0.0,0.0,0.0,0.0,0.0,0.0,0.0,0.0,0.0,0.0,0.0,0.0,0.0,0.0,0.0,0.0,0.0,0.0,0.0,0.0,0.0,0.0,0.0,0.0,0.0,0.0,0.0,0.0,0.0,0.0,0.0,0.0,0.0,0.0,0.0,0.0,0.0,0.0,0.0,0.0,0.0,0.0,0.0,0.0,0.0,0.0,0.0,0.0,0.0,0.0,0.0,0.0,0.0,0.0,0.0,0.0,0.0,0.0,0.0,0.0,0.0,0.0,0.0,0.0,0.0,0.0,0.0,0.0,0.0,0.0,0.0,0.0,0.0,0.0,0.0,0.0,0.0,0.0,0.0,0.0,0.0,0.0,0.0,0.0,0.0,0.0,0.0,0.0,0.0,0.0,0.0,0.0,0.0,0.0,0.0,0.0,0.0,0.0,0.0,0.0,0.0,0.0,0.0,0.0,0.0,0.0,0.0,0.0,0.0,0.0,0.0,0.0,0.0,0.0,0.0,0.0,0.0,0.0,0.0,0.0,0.0,0.0,0.0,0.0,0.0,0.0,0.0,0.0,0.0,0.0,0.0,0.0,0.0,0.0,0.0,0.0,0.0,0.0,0.0,0.0,0.0,0.0,0.0,0.0,0.0,0.0,0.0,0.0,0.0,0.0,0.0,0.0,0.0,0.0,0.0,0.0,0.0,0.0,0.0,0.0,0.0,0.0,0.0,0.0,0.0,0.0,0.0,0.0,0.0,0.0,0.0,0.0,0.0,0.0,0.0,0.0,0.0,0.0,0.0,0.0,0.0,0.0,0.0,0.0,0.0,0.0,0.0,0.0,0.0,0.0,0.0,0.0,0.0,0.0,0.0,0.0,0.0,0.0,0.0,0.0,0.0,0.0,0.0,0.0,0.0,0.0,0.0,0.0,0.0,0.0,0.0,0.0,0.0,0.0,0.0,0.0,0.0,0.0,0.0,0.0,0.0,0.0,0.0,0.0,0.0,0.0,0.0,0.0,0.0,0.0,0.0,0.0,0.0,0.0,0.0,0.0,0.0,0.0,0.0,0.0,0.0,0.0,0.0,0.0,0.0,0.0,0.0,0.0,0.0,0.0,0.0,0.0,0.0,0.0,0.0,0.0,0.0,0.0,0.0,0.0,0.0,0.0,0.0,0.0,0.0,0.0,0.0,0.0,0.0,0.0,0.0,0.0,0.0,0.0,0.0,0.0,0.0,0.0,0.0,0.0,0.0,0.0,0.0,0.0,0.0,0.0,0.0,0.0,0.0,0.0,0.0,0.0,0.0,0.0,0.0,0.0,0.0,0.0,0.0,0.0,0.0,0.0,0.0,0.0,0.0,0.0,0.0,0.0,0.0,0.0,0.0,0.0,0.0,0.0,0.0,0.0,0.0,0.0,0.0,0.0,0.0,0.0,0.0,0.0,0.0,0.0,0.0,0.0,0.0,0.0,0.0,0.0,0.0,0.0,0.0,0.0,0.0,0.0,0.0,0.0,0.0,0.0,0.0,0.0,0.0,0.0,0.0,0.0,0.0,0.0,0.0,0.0,0.0,0.0,0.0,0.0,0.0,0.0,0.0,0.0,0.0,0.0,0.0,0.0,0.0,0.0,0.0,0.0,0.0,0.0,0.0,0.0,0.0,0.0,0.0,0.0,0.0,0.0,0.0,0.0,0.0,0.0,0.0,0.0,0.0,0.0,0.0,0.0,0.0,0.0,0.0,0.0,0.0,0.0,0.0,0.0,0.0,0.0,0.0,0.0,0.0,0.0,0.0,0.0,0.0,0.0,0.0,0.0,0.0,0.0,0.0,0.0,0.0,0.0,0.0,-0.5895,0.0,0.0,0.0,0.0,0.0,0.0,0.0,0.0,0.0,0.0,0.0,0.0,0.0,0.0,0.0,0.0,0.0,0.0,0.0,0.0,0.0,0.0,0.0,0.0,0.0,0.0,0.0,0.0,0.0,0.0,0.0,0.0,0.0,0.0,0.0,0.0,0.0,0.0,0.0,0.0,0.0,0.0,0.0,0.0,0.0,0.0,0.0,0.0,0.0,0.0,0.0,0.0,0.0,0.0,0.0,0.0,0.0,0.0,0.0,0.0,0.0,0.0,0.0,0.0,0.0,0.0,0.0,0.0,0.0,0.0,0.0,0.0,0.0,0.0,0.0,0.0,0.0,0.0,0.0,0.0,0.0,0.0,0.0,0.0,0.0,0.0,0.0,0.0,0.0,0.0,0.0,0.0,0.0,0.0,0.0,0.0,0.0,0.0,0.0,0.0,0.0,0.0,0.0,0.0,0.0,0.0,0.0,0.0,0.0,0.0,-1.2313,-1.4877,-1.3293,-1.1465,-0.9343,0.0,0.0,0.0,0.0,0.0,0.0,0.0,0.0,0.0,0.0,0.0,0.0,0.0,0.0,0.0,0.0,0.0,0.0,0.0,0.0,0.0,0.0,0.0,0.0,0.0,0.0,0.0,0.0,0.0,0.0,0.0,0.0,0.0,0.0,0.0,0.0,0.0,0.0,0.0,0.0,0.0,0.0,0.0,0.0,0.0,0.0,0.0,0.0,0.0,0.0,0.0,0.0,0.0,0.0,0.0,0.0,0.0,0.0,0.0,0.0,0.0,0.0,0.0,0.0,0.0,0.0,0.0,0.0,0.0,0.0,0.0,0.0,0.0,0.0,0.0,0.0,0.0,0.0,0.0,0.0,0.0,0.0,0.0,0.0,0.0,0.0,0.0,0.0,0.0,0.0,0.0,0.0,0.0,0.0,0.0,0.0,0.0,0.0,0.0,0.0,0.0,0.0,0.0,0.0,0.0,0.0,0.0,0.0,0.0,0.0,0.0,0.0,-1.5746,-1.3365,-0.9903,0.0,0.0,0.0,0.0,0.0,0.0,0.0,0.0,0.0,0.0,0.0,0.0,0.0,0.0,0.0,0.0,0.0,0.0,0.0,0.0,0.0,0.0,0.0,0.0,0.0,0.0,0.0,0.0,0.0,0.0,0.0,0.0,0.0,0.0,0.0,0.0,0.0,0.0,0.0,0.0,0.0,0.0,0.0,0.0,0.0,0.0,0.0,0.0,0.0,0.0,0.0,0.0,0.0,0.0,0.0,0.0,0.0,0.0,0.0,0.0,0.0,0.0,0.0,0.0,0.0,0.0,0.0,0.0,0.0,0.0,0.0,0.0,0.0,0.0,0.0,0.0,0.0,0.0,0.0,0.0,0.0,0.0,0.0,0.0,0.0,0.0,0.0,0.0,0.0,0.0,0.0,0.0,0.0,0.0,0.0,0.0,0.0,0.0,0.0,0.0,0.0,0.0,0.0,0.0,0.0,0.0,0.0,0.0,0.0,0.0,-1.9976,-2.2039,-2.1857,0.0,-0.4684,0.0,0.0,0.0,0.0,0.0,0.0,0.0,0.0,0.0,0.0,0.0,0.0,0.0,0.0,0.0,0.0,0.0,0.0,0.0,0.0,0.0,0.0,0.0,0.0,0.0,0.0,0.0,0.0,0.0,0.0,0.0,0.0,0.0,0.0,0.0,0.0,0.0,0.0,0.0,0.0,0.0,0.0,0.0,0.0,0.0,0.0,0.0,0.0,0.0,0.0,0.0,0.0,0.0,0.0,0.0,0.0,0.0,0.0,0.0,0.0,0.0,0.0,0.0,0.0,0.0,0.0,0.0,0.0,0.0,0.0,0.0,0.0,0.0,0.0,0.0,0.0,0.0,0.0,0.0,0.0,0.0,0.0,0.0,0.0,0.0,0.0,0.0,0.0,0.0,0.0,0.0,0.0,0.0,0.0,0.0,0.0,0.0,0.0,0.0,0.0,0.0,0.0,0.0,0.0,0.0,0.0,0.0,0.0,0.0,0.0,-2.0466,-2.2344,-2.2294,-1.5817,0.0,0.0,0.0,0.0,0.0,0.0,0.0,0.0,0.0,0.0,0.0,0.0,0.0,0.0,0.0,0.0,0.0,0.0,0.0,0.0,0.0,0.0,0.0,0.0,0.0,0.0,0.0,0.0,0.0,0.0,0.0,0.0,0.0,0.0,0.0,0.0,0.0,0.0,0.0,0.0,0.0,0.0,0.0,0.0,0.0,0.0,0.0,0.0,0.0,0.0,0.0,0.0,0.0,0.0,0.0,0.0,0.0,0.0,0.0,0.0,0.0,0.0,0.0,0.0,0.0,0.0,0.0,0.0,0.0,0.0,0.0,0.0,0.0,0.0,0.0,0.0,0.0,0.0,0.0,0.0,0.0,0.0,0.0,0.0,0.0,0.0,0.0,0.0,0.0,0.0,0.0,0.0,0.0,0.0,0.0,0.0,0.0,0.0,0.0,0.0,0.0,0.0,0.0,0.0,0.0,0.0,0.0,0.0,0.0,0.0,-2.0068,-2.088,-2.2231,-2.1417,-1.4882,-0.2191,0.0,0.0,0.0,0.0,0.0,0.0,0.0,0.0,0.0,0.0,0.0,0.0,0.0,0.0,0.0,0.0,0.0,0.0,0.0,0.0,0.0,0.0,0.0,0.0,0.0,0.0,0.0,0.0,0.0,0.0,0.0,0.0,0.0,0.0,0.0,0.0,0.0,0.0,0.0,0.0,0.0,0.0,0.0,0.0,0.0,0.0,0.0,0.0,0.0,0.0,0.0,0.0,0.0,0.0,0.0,0.0,0.0,0.0,0.0,0.0,0.0,0.0,0.0,0.0,0.0,0.0,0.0,0.0,0.0,0.0,0.0,0.0,0.0,0.0,0.0,0.0,0.0,0.0,0.0,0.0,0.0,0.0,0.0,0.0,0.0,0.0,0.0,0.0,0.0,0.0,0.0,0.0,0.0,0.0,0.0,0.0,0.0,0.0,0.0,0.0,0.0,0.0,0.0,0.0,0.0,0.0,0.0,0.0,-2.315,-2.248,-2.2364,-2.2908,-2.0057,-1.3629,0.0,0.0,0.0,0.0,0.0,0.0,0.0,0.0,0.0,0.0,0.0,0.0,0.0,0.0,0.0,0.0,0.0,0.0,0.0,0.0,0.0,0.0,0.0,0.0,0.0,0.0,0.0,0.0,0.0,0.0,0.0,0.0,0.0,0.0,0.0,0.0,0.0,0.0,0.0,0.0,0.0,0.0,0.0,0.0,0.0,0.0,0.0,0.0,0.0,0.0,0.0,0.0,0.0,0.0,0.0,0.0,0.0,0.0,0.0,0.0,0.0,0.0,0.0,0.0,0.0,0.0,0.0,0.0,0.0,0.0,0.0,0.0,0.0,0.0,0.0,0.0,0.0,0.0,0.0,0.0,0.0,0.0,0.0,0.0,0.0,0.0,0.0,0.0,0.0,0.0,0.0,0.0,0.0,0.0,0.0,0.0,0.0,0.0,0.0,0.0,0.0,0.0,0.0,0.0,0.0,0.0,0.0,0.0,0.0,-1.9497,-2.0645,-2.1201,-2.1136,-1.9076,-1.3833,0.0,0.0,0.0,0.0,0.0,0.0,0.0,0.0,0.0,0.0,0.0,0.0,0.0,0.0,0.0,0.0,0.0,0.0,0.0,0.0,0.0,0.0,0.0,0.0,0.0,0.0,0.0,0.0,0.0,0.0,0.0,0.0,0.0,0.0,0.0,0.0,0.0,0.0,0.0,0.0,0.0,0.0,0.0,0.0,0.0,0.0,0.0,0.0,0.0,0.0,0.0,0.0,0.0,0.0,0.0,0.0,0.0,0.0,0.0,0.0,0.0,0.0,0.0,0.0,0.0,0.0,0.0,0.0,0.0,0.0,0.0,0.0,0.0,0.0,0.0,0.0,0.0,0.0,0.0,0.0,0.0,0.0,0.0,0.0,0.0,0.0,0.0,0.0,0.0,0.0,0.0,0.0,0.0,0.0,0.0,0.0,0.0,0.0,0.0,0.0,0.0,0.0,0.0,0.0,0.0,0.0,0.0,0.0,0.0,-1.8028,0.0,-2.031,-1.9353,-1.761,-1.3108,0.0,0.0,0.0,0.0,0.0,0.0,0.0,0.0,0.0,0.0,0.0,0.0,0.0,0.0,0.0,0.0,0.0,0.0,0.0,0.0,0.0,0.0,0.0,0.0,0.0,0.0,0.0,0.0,0.0,0.0,0.0,0.0,0.0,0.0,0.0,0.0,0.0,0.0,0.0,0.0,0.0,0.0,0.0,0.0,0.0,0.0,0.0,0.0,0.0,0.0,0.0,0.0,0.0,0.0,0.0,0.0,0.0,0.0,0.0,0.0,0.0,0.0,0.0,0.0,0.0,0.0,0.0,0.0,0.0,0.0,0.0,0.0,0.0,0.0,0.0,0.0,0.0,0.0,0.0,0.0,0.0,0.0,0.0,0.0,0.0,0.0,0.0,0.0,0.0,0.0,0.0,0.0,0.0,0.0,0.0,0.0,0.0,0.0,0.0,0.0,0.0,0.0,0.0,0.0,0.0,0.0,0.0,0.0,-1.6938,-1.9596,-2.0368,-1.9787,-1.7884,-1.572,-1.1324,0.0,0.0,0.0,0.0,0.0,0.0,0.0,0.0,0.0,0.0,0.0,0.0,0.0,0.0,0.0,0.0,0.0,0.0,0.0,0.0,0.0,0.0,0.0,0.0,0.0,0.0,0.0,0.0,0.0,0.0,0.0,0.0,0.0,0.0,0.0,0.0,0.0,0.0,0.0,0.0,0.0,0.0,0.0,0.0,0.0,0.0,0.0,0.0,0.0,0.0,0.0,0.0,0.0,0.0,0.0,0.0,0.0,0.0,0.0,0.0,0.0,0.0,0.0,0.0,0.0,0.0,0.0,0.0,0.0,0.0,0.0,0.0,0.0,0.0,0.0,0.0,0.0,0.0,0.0,0.0,0.0,0.0,0.0,0.0,0.0,0.0,0.0,0.0,0.0,0.0,0.0,0.0,0.0,0.0,0.0,0.0,0.0,0.0,0.0,0.0,0.0,0.0,0.0,0.0,0.0,0.0,0.0,0.0,0.0,-1.7751,-1.7579,-1.8006,-1.8972,-1.4962,-1.1569,0.0,0.0,0.0,0.0,0.0,0.0,0.0,0.0,0.0,0.0,0.0,0.0,0.0,0.0,0.0,0.0,0.0,0.0,0.0,0.0,0.0,0.0,0.0,0.0,0.0,0.0,0.0,0.0,0.0,0.0,0.0,0.0,0.0,0.0,0.0,0.0,0.0,0.0,0.0,0.0,0.0,0.0,0.0,0.0,0.0,0.0,0.0,0.0,0.0,0.0,0.0,0.0,0.0,0.0,0.0,0.0,0.0,0.0,0.0,0.0,0.0,0.0,0.0,0.0,0.0,0.0,0.0,0.0,0.0,0.0,0.0,0.0,0.0,0.0,0.0,0.0,0.0,0.0,0.0,0.0,0.0,0.0,0.0,0.0,0.0,0.0,0.0,0.0,0.0,0.0,0.0,0.0,0.0,0.0,0.0,0.0,0.0,0.0,0.0,0.0,0.0,0.0,0.0,0.0,0.0,0.0,0.0,0.0,0.0,-1.7432,-1.7428,-1.7934,-1.906,-1.5544,-1.2716,-1.0669,0.0,0.0,0.0,0.0,0.0,0.0,0.0,0.0,0.0,0.0,0.0,0.0,0.0,0.0,0.0,0.0,0.0,0.0,0.0,0.0,0.0,0.0,0.0,0.0,0.0,0.0,0.0,0.0,0.0,0.0,0.0,0.0,0.0,0.0,0.0,0.0,0.0,0.0,0.0,0.0,0.0,0.0,0.0,0.0,0.0,0.0,0.0,0.0,0.0,0.0,0.0,0.0,0.0,0.0,0.0,0.0,0.0,0.0,0.0,0.0,0.0,0.0,0.0,0.0,0.0,0.0,0.0,0.0,0.0,0.0,0.0,0.0,0.0,0.0,0.0,0.0,0.0,0.0,0.0,0.0,0.0,0.0,0.0,0.0,0.0,0.0,0.0,0.0,0.0,0.0,0.0,0.0,0.0,0.0,0.0,0.0,0.0,0.0,0.0,0.0,0.0,0.0,0.0,0.0,0.0,0.0,0.0,0.0,-1.8431,-1.9595,-1.9526,-1.8101,-1.7068,-1.4471,0.0,0.0,0.0,0.0,0.0,0.0,0.0,0.0,0.0,0.0,0.0,0.0,0.0,0.0,0.0,0.0,0.0,0.0,0.0,0.0,0.0,0.0,0.0,0.0,0.0,0.0,0.0,0.0,0.0,0.0,0.0,0.0,0.0,0.0,0.0,0.0,0.0,0.0,0.0,0.0,0.0,0.0,0.0,0.0,0.0,0.0,0.0,0.0,0.0,0.0,0.0,0.0,0.0,0.0,0.0,0.0,0.0,0.0,0.0,0.0,0.0,0.0,0.0,0.0,0.0,0.0,0.0,0.0,0.0,0.0,0.0,0.0,0.0,0.0,0.0,0.0,0.0,0.0,0.0,0.0,0.0,0.0,0.0,0.0,0.0,0.0,0.0,0.0,0.0,0.0,0.0,0.0,0.0,0.0,0.0,0.0,0.0,0.0,0.0,0.0,0.0,0.0,0.0,0.0,0.0,0.0,0.0,0.0,0.0,-1.995,-2.19,-2.1911,-1.9648,-1.7792,-1.566,0.0,0.0,0.0,0.0,0.0,0.0,0.0,0.0,0.0,0.0,0.0,0.0,0.0,0.0,0.0,0.0,0.0,0.0,0.0,0.0,0.0,0.0,0.0,0.0,0.0,0.0,0.0,0.0,0.0,0.0,0.0,0.0,0.0,0.0,0.0,0.0,0.0,0.0,0.0,0.0,0.0,0.0,0.0,0.0,0.0,0.0,0.0,0.0,0.0,0.0,0.0,0.0,0.0,0.0,0.0,0.0,0.0,0.0,0.0,0.0,0.0,0.0,0.0,0.0,0.0,0.0,0.0,0.0,0.0,0.0,0.0,0.0,0.0,0.0,0.0,0.0,0.0,0.0,0.0,0.0,0.0,0.0,0.0,0.0,0.0,0.0,0.0,0.0,0.0,0.0,0.0,0.0,0.0,0.0,0.0,0.0,0.0,0.0,0.0,0.0,0.0,0.0,0.0,0.0,0.0,0.0,0.0,0.0,-2.0982,-2.1223,-2.4147,-2.4398,-2.1755,-2.0374,-1.8005,0.0,0.0,0.0,0.0,0.0,0.0,0.0,0.0,0.0,0.0,0.0,0.0,0.0,0.0,0.0,0.0,0.0,0.0,0.0,0.0,0.0,0.0,0.0,0.0,0.0,0.0,0.0,0.0,0.0,0.0,0.0,0.0,0.0,0.0,0.0,0.0,0.0,0.0,0.0,0.0,0.0,0.0,0.0,0.0,0.0,0.0,0.0,0.0,0.0,0.0,0.0,0.0,0.0,0.0,0.0,0.0,0.0,0.0,0.0,0.0,0.0,0.0,0.0,0.0,0.0,0.0,0.0,0.0,0.0,0.0,0.0,0.0,0.0,0.0,0.0,0.0,0.0,0.0,0.0,0.0,0.0,0.0,0.0,0.0,0.0,0.0,0.0,0.0,0.0,0.0,0.0,0.0,0.0,0.0,0.0,0.0,0.0,0.0,0.0,0.0,0.0,0.0,0.0,0.0,0.0,0.0,0.0,0.0,-2.3095,-2.231,-2.5966,-2.6602,-2.3948,-2.3453,-2.0698,0.0,0.0,0.0,0.0,0.0,0.0,0.0,0.0,0.0,0.0,0.0,0.0,0.0,0.0,0.0,0.0,0.0,0.0,0.0,0.0,0.0,0.0,0.0,0.0,0.0,0.0,0.0,0.0,0.0,0.0,0.0,0.0,0.0,0.0,0.0,0.0,0.0,0.0,0.0,0.0,0.0,0.0,0.0,0.0,0.0,0.0,0.0,0.0,0.0,0.0,0.0,0.0,0.0,0.0,0.0,0.0,0.0,0.0,0.0,0.0,0.0,0.0,0.0,0.0,0.0,0.0,0.0,0.0,0.0,0.0,0.0,0.0,0.0,0.0,0.0,0.0,0.0,0.0,0.0,0.0,0.0,0.0,0.0,0.0,0.0,0.0,0.0,0.0,0.0,0.0,0.0,0.0,0.0,0.0,0.0,0.0,0.0,0.0,0.0,0.0,0.0,0.0,0.0,0.0,0.0,0.0,0.0,0.0,-2.2399,-2.2655,-2.5655,-2.6451,-2.4691,-2.2965,-2.062,0.0,0.0,0.0,0.0,0.0,0.0,0.0,0.0,0.0,0.0,0.0,0.0,0.0,0.0,0.0,0.0,0.0,0.0,0.0,0.0,0.0,0.0,0.0,0.0,0.0,0.0,0.0,0.0,0.0,0.0,0.0,0.0,0.0,0.0,0.0,0.0,0.0,0.0,0.0,0.0,0.0,0.0,0.0,0.0,0.0,0.0,0.0,0.0,-1.4193,0.0,0.0,0.0,0.0,0.0,0.0,0.0,0.0,0.0,0.0,0.0,0.0,0.0,0.0,0.0,0.0,0.0,0.0,0.0,0.0,0.0,0.0,0.0,0.0,0.0,0.0,0.0,0.0,0.0,0.0,0.0,0.0,0.0,0.0,0.0,0.0,0.0,0.0,0.0,0.0,0.0,0.0,0.0,0.0,0.0,0.0,0.0,0.0,0.0,0.0,0.0,0.0,0.0,0.0,0.0,0.0,0.0,0.0,0.0,-2.3298,-2.3852,-2.6013,-2.666,-2.5487,-2.2432,-1.9991,0.0,0.0,0.0,0.0,0.0,0.0,0.0,0.0,0.0,0.0,0.0,0.0,0.0,0.0,0.0,0.0,0.0,0.0,0.0,0.0,0.0,0.0,0.0,0.0,0.0,0.0,0.0,0.0,0.0,0.0,0.0,0.0,0.0,0.0,0.0,0.0,0.0,0.0,0.0,0.0,0.0,0.0,0.0,0.0,0.0,0.0,0.0,0.0,0.0,0.0,0.0,0.0,0.0,0.0,0.0,0.0,0.0,0.0,0.0,0.0,0.0,0.0,0.0,0.0,0.0,0.0,0.0,0.0,0.0,0.0,0.0,0.0,0.0,0.0,0.0,0.0,0.0,0.0,0.0,0.0,0.0,0.0,0.0,0.0,0.0,0.0,0.0,0.0,0.0,0.0,0.0,0.0,0.0,0.0,0.0,0.0,0.0,0.0,0.0,0.0,0.0,0.0,0.0,0.0,0.0,0.0,0.0,-2.2824,-2.4344,-2.511,-2.6455,-2.6737,-2.5839,-2.1744,-1.9159,-1.8352,0.0,0.0,0.0,0.0,0.0,0.0,0.0,0.0,0.0,0.0,0.0,0.0,0.0,0.0,0.0,0.0,0.0,0.0,0.0,0.0,0.0,0.0,0.0,0.0,0.0,0.0,0.0,0.0,0.0,0.0,0.0,0.0,0.0,0.0,0.0,0.0,0.0,0.0,-1.5816,-1.5779,0.0,0.0,0.0,0.0,0.0,0.0,0.0,0.0,-1.3163,0.0,0.0,0.0,0.0,0.0,0.0,0.0,0.0,0.0,0.0,0.0,0.0,0.0,0.0,0.0,0.0,0.0,0.0,0.0,0.0,0.0,0.0,0.0,0.0,0.0,0.0,0.0,0.0,0.0,0.0,0.0,0.0,0.0,0.0,0.0,0.0,0.0,0.0,0.0,0.0,0.0,0.0,0.0,0.0,0.0,0.0,0.0,0.0,0.0,0.0,0.0,0.0,0.0,0.0,0.0,0.0,-2.1385,-2.215,-2.3371,-2.5044,-2.6009,-2.5844,-2.4414,-2.0671,-1.8434,-1.7994,0.0,0.0,0.0,0.0,0.0,0.0,0.0,0.0,0.0,0.0,0.0,0.0,0.0,0.0,0.0,0.0,0.0,0.0,0.0,0.0,0.0,0.0,0.0,0.0,0.0,0.0,0.0,0.0,0.0,0.0,0.0,0.0,0.0,0.0,0.0,0.0,0.0,0.0,0.0,-1.5289,-1.5047,0.0,0.0,0.0,0.0,0.0,0.0,0.0,0.0,-1.356,0.0,0.0,0.0,0.0,0.0,0.0,0.0,0.0,0.0,0.0,0.0,0.0,0.0,0.0,0.0,0.0,0.0,0.0,0.0,0.0,0.0,0.0,0.0,0.0,0.0,0.0,0.0,0.0,0.0,0.0,0.0,0.0,0.0,0.0,0.0,0.0,0.0,0.0,0.0,0.0,0.0,0.0,0.0,0.0,0.0,0.0,0.0,0.0,0.0,0.0,0.0,0.0,0.0,0.0,0.0,-2.0876,-2.142,-2.2593,-2.4497,-2.4794,-2.4413,-2.3324,-1.964,-1.775,0.0,0.0,0.0,0.0,0.0,0.0,0.0,0.0,0.0,0.0,0.0,0.0,0.0,0.0,0.0,0.0,0.0,0.0,0.0,0.0,0.0,0.0,0.0,0.0,0.0,0.0,0.0,0.0,0.0,0.0,0.0,0.0,0.0,0.0,0.0,0.0,0.0,0.0,0.0,0.0,-1.5266,-1.4844,-1.365,0.0,0.0,0.0,0.0,0.0,0.0,-1.4192,-1.393,0.0,0.0,0.0,0.0,0.0,0.0,0.0,0.0,0.0,0.0,0.0,0.0,0.0,0.0,0.0,0.0,0.0,0.0,0.0,0.0,0.0,0.0,0.0,0.0,0.0,0.0,0.0,0.0,0.0,0.0,0.0,0.0,0.0,0.0,0.0,0.0,0.0,0.0,0.0,0.0,0.0,0.0,0.0,0.0,0.0,0.0,0.0,0.0,0.0,0.0,0.0,0.0,0.0,0.0,0.0,-2.0148,-2.0637,-2.1737,-2.3453,-2.3342,-2.2883,-2.2131,-1.8605,-1.702,0.0,0.0,0.0,0.0,0.0,0.0,0.0,0.0,0.0,0.0,0.0,0.0,0.0,0.0,0.0,0.0,0.0,0.0,0.0,0.0,0.0,0.0,0.0,0.0,0.0,0.0,0.0,0.0,0.0,0.0,0.0,0.0,0.0,0.0,0.0,0.0,0.0,0.0,0.0,0.0,0.0,-1.477,-1.4059,-1.3348,0.0,0.0,0.0,0.0,-1.5185,-1.4825,0.0,0.0,0.0,0.0,0.0,0.0,0.0,0.0,0.0,0.0,0.0,0.0,0.0,0.0,0.0,0.0,0.0,0.0,0.0,0.0,0.0,0.0,0.0,0.0,0.0,0.0,0.0,0.0,0.0,0.0,0.0,0.0,0.0,0.0,0.0,0.0,0.0,0.0,0.0,0.0,0.0,0.0,0.0,0.0,0.0,0.0,0.0,0.0,0.0,0.0,0.0,0.0,0.0,0.0,0.0,0.0,-1.9456,-1.9862,-2.0611,-2.1749,-2.1908,-2.1425,-2.0406,-1.7617,-1.6322,0.0,0.0,0.0,0.0,0.0,0.0,0.0,0.0,0.0,0.0,0.0,0.0,0.0,0.0,0.0,0.0,0.0,0.0,0.0,0.0,0.0,0.0,0.0,0.0,0.0,0.0,0.0,0.0,0.0,0.0,0.0,0.0,0.0,0.0,0.0,0.0,0.0,0.0,0.0,0.0,0.0,-1.454,-1.354,-1.4159,-1.4524,0.0,0.0,-1.5125,-1.5232,-1.5665,0.0,0.0,0.0,0.0,0.0,0.0,0.0,0.0,0.0,0.0,0.0,0.0,0.0,0.0,0.0,0.0,0.0,0.0,0.0,0.0,0.0,0.0,0.0,0.0,0.0,0.0,0.0,0.0,0.0,0.0,0.0,0.0,0.0,0.0,0.0,0.0,0.0,0.0,0.0,0.0,0.0,0.0,0.0,0.0,0.0,0.0,0.0,0.0,0.0,0.0,0.0,0.0,0.0,0.0,0.0,-1.7608,-1.9286,-1.8352,-1.8641,-2.027,-2.0091,-1.9576,-1.8738,-1.6675,-1.581,0.0,0.0,0.0,0.0,0.0,0.0,0.0,0.0,0.0,0.0,0.0,0.0,0.0,0.0,0.0,0.0,0.0,0.0,0.0,0.0,0.0,0.0,0.0,0.0,0.0,0.0,0.0,0.0,0.0,0.0,0.0,0.0,0.0,0.0,0.0,0.0,0.0,0.0,0.0,0.0,0.0,0.0,-1.456,-1.4831,0.0,0.0,0.0,-1.5666,-1.637,0.0,0.0,0.0,0.0,0.0,0.0,0.0,0.0,0.0,0.0,0.0,0.0,0.0,0.0,0.0,0.0,0.0,0.0,0.0,0.0,0.0,0.0,0.0,0.0,0.0,0.0,0.0,0.0,0.0,0.0,0.0,0.0,0.0,0.0,0.0,0.0,0.0,0.0,0.0,0.0,0.0,0.0,0.0,0.0,0.0,0.0,0.0,0.0,0.0,0.0,0.0,0.0,0.0,0.0,0.0,0.0,0.0,-1.9084,-1.7221,-1.7173,-1.9017,-1.8639,-1.8035,-1.7326,-1.5769,0.0,0.0,0.0,0.0,0.0,0.0,0.0,0.0,0.0,0.0,0.0,0.0,0.0,0.0,0.0,0.0,0.0,0.0,0.0,0.0,0.0,0.0,0.0,0.0,0.0,0.0,0.0,-1.6193,0.0,0.0,0.0,0.0,0.0,0.0,0.0,0.0,0.0,0.0,0.0,0.0,0.0,0.0,-1.5846,-1.5658,-1.5749,-1.5752,0.0,0.0,-1.6332,-1.7188,-1.6915,-1.6948,0.0,0.0,0.0,0.0,0.0,0.0,0.0,0.0,0.0,0.0,0.0,0.0,0.0,0.0,0.0,0.0,0.0,0.0,0.0,0.0,0.0,0.0,0.0,0.0,0.0,0.0,0.0,0.0,0.0,0.0,0.0,0.0,0.0,0.0,0.0,0.0,0.0,0.0,0.0,0.0,0.0,0.0,0.0,0.0,0.0,0.0,0.0,0.0,0.0,0.0,0.0,0.0,0.0,0.0,0.0,-1.8448,-1.7071,-1.6863,-1.8033,-1.7864,-1.7298,-1.6311,-1.4975,-1.4566,0.0,0.0,0.0,0.0,0.0,0.0,0.0,0.0,0.0,0.0,0.0,0.0,0.0,0.0,0.0,0.0,0.0,0.0,0.0,0.0,0.0,0.0,0.0,0.0,0.0,0.0,0.0,0.0,0.0,0.0,0.0,0.0,0.0,0.0,0.0,0.0,0.0,0.0,0.0,0.0,0.0,-1.708,-1.6354,-1.6986,-1.7271,0.0,0.0,-1.7744,-1.6965,-1.8061,-1.8598,-1.7302,0.0,0.0,0.0,0.0,0.0,0.0,0.0,0.0,0.0,0.0,0.0,0.0,0.0,0.0,0.0,0.0,0.0,0.0,0.0,0.0,0.0,0.0,0.0,0.0,0.0,0.0,0.0,0.0,0.0,0.0,0.0,0.0,0.0,0.0,0.0,0.0,0.0,0.0,0.0,0.0,0.0,0.0,0.0,0.0,0.0,0.0,0.0,0.0,0.0,0.0,0.0,0.0,0.0,-1.6588,-1.7366,-1.607,-1.5764,-1.6492,-1.6689,-1.6592,-1.6194,-1.4888,-1.4514,0.0,0.0,0.0,0.0,0.0,0.0,0.0,0.0,0.0,0.0,0.0,0.0,0.0,0.0,0.0,0.0,0.0,0.0,0.0,0.0,0.0,0.0,0.0,0.0,0.0,0.0,0.0,0.0,-1.4784,-1.5061,-1.515,0.0,0.0,0.0,0.0,0.0,0.0,0.0,0.0,0.0,0.0,-1.725,-1.7381,-1.7747,0.0,0.0,-1.792,-1.8086,-1.7714,-1.7769,-1.7845,-1.7742,-1.7828,0.0,0.0,0.0,0.0,0.0,0.0,0.0,0.0,0.0,0.0,0.0,0.0,0.0,0.0,0.0,0.0,0.0,0.0,0.0,0.0,0.0,0.0,0.0,0.0,0.0,0.0,0.0,0.0,0.0,0.0,0.0,0.0,0.0,0.0,0.0,0.0,0.0,0.0,0.0,0.0,0.0,0.0,0.0,0.0,0.0,0.0,0.0,0.0,0.0,0.0,0.0,0.0,-1.6353,-1.6982,-1.5474,-1.5081,-1.588,-1.5894,-1.5887,-1.5883,-1.4606,-1.4221,0.0,0.0,0.0,0.0,0.0,0.0,0.0,0.0,0.0,0.0,0.0,0.0,0.0,0.0,0.0,0.0,0.0,0.0,0.0,0.0,0.0,0.0,0.0,0.0,0.0,0.0,0.0,0.0,-1.4915,-1.535,-1.5238,0.0,0.0,0.0,0.0,0.0,0.0,0.0,0.0,0.0,0.0,-1.761,-1.817,-1.8387,-1.8517,-1.8538,-1.8706,-1.8758,-1.8573,-1.8241,-1.8004,-1.7945,0.0,0.0,0.0,0.0,0.0,0.0,0.0,0.0,0.0,0.0,0.0,0.0,0.0,0.0,0.0,0.0,0.0,0.0,0.0,0.0,0.0,0.0,0.0,0.0,0.0,0.0,0.0,0.0,0.0,0.0,-1.8728,0.0,0.0,0.0,0.0,0.0,0.0,0.0,0.0,0.0,0.0,0.0,0.0,0.0,0.0,0.0,0.0,0.0,0.0,0.0,0.0,0.0,0.0,-1.6302,-1.7625,-1.5567,-1.5161,-1.6454,-1.5692,-1.5252,-1.5206,-1.3913,-1.3529,-1.4206,0.0,0.0,0.0,0.0,0.0,0.0,0.0,0.0,0.0,0.0,0.0,0.0,0.0,0.0,0.0,0.0,0.0,0.0,0.0,0.0,0.0,0.0,0.0,0.0,0.0,0.0,-1.9282,-1.712,-1.5524,0.0,0.0,0.0,0.0,0.0,0.0,0.0,0.0,0.0,0.0,-1.8506,-1.8408,-1.8465,-1.8926,-1.9206,-1.9245,-1.9843,-2.0067,-1.9309,-1.9792,-1.9653,0.0,0.0,0.0,0.0,0.0,0.0,0.0,0.0,0.0,0.0,0.0,0.0,0.0,0.0,0.0,0.0,0.0,0.0,0.0,0.0,0.0,0.0,0.0,0.0,0.0,0.0,0.0,-2.0319,-2.0839,0.0,0.0,0.0,0.0,0.0,0.0,0.0,0.0,0.0,0.0,0.0,-1.9958,-2.0439,0.0,0.0,0.0,0.0,0.0,0.0,0.0,0.0,0.0,0.0,0.0,0.0,-1.6034,-1.6824,-1.5336,-1.468,-1.5003,-1.515,-1.4991,-1.4519,-1.3667,-1.3298,-1.3513,0.0,0.0,0.0,0.0,0.0,0.0,0.0,0.0,0.0,0.0,0.0,0.0,0.0,0.0,0.0,0.0,0.0,0.0,0.0,0.0,0.0,0.0,0.0,0.0,0.0,-1.9834,0.0,0.0,0.0,0.0,0.0,0.0,0.0,0.0,0.0,0.0,0.0,-1.8856,-1.9428,-1.8919,-1.8465,-1.8485,-1.8548,-1.859,0.0,0.0,0.0,0.0,0.0,0.0,0.0,0.0,0.0,0.0,0.0,0.0,0.0,0.0,-2.169,-2.1618,-2.1377,-2.1407,-2.2191,0.0,0.0,0.0,0.0,0.0,0.0,0.0,0.0,0.0,0.0,0.0,0.0,0.0,0.0,-1.9646,0.0,-1.9714,0.0,0.0,0.0,0.0,0.0,0.0,0.0,0.0,-1.9893,-2.0384,-2.0565,-2.1029,-2.1547,0.0,-2.1541,-2.1046,0.0,0.0,0.0,0.0,0.0,0.0,0.0,0.0,-1.618,-1.6528,-1.5361,-1.4785,-1.4883,-1.4868,-1.4883,-1.4883,-1.4021,-1.3436,-1.3221,-1.3466,-1.4076,0.0,0.0,0.0,0.0,0.0,0.0,0.0,0.0,0.0,0.0,0.0,0.0,0.0,0.0,0.0,0.0,0.0,0.0,0.0,0.0,0.0,0.0,0.0,-1.8612,0.0,0.0,0.0,0.0,0.0,0.0,0.0,0.0,0.0,-2.0351,-1.9812,-1.9651,-2.0462,-1.9737,-1.8999,-1.8715,0.0,0.0,0.0,0.0,0.0,0.0,0.0,-1.9558,-1.7808,-1.8163,-1.877,-1.9048,-2.1057,-2.2131,-2.0588,0.0,0.0,-2.1864,-2.189,-2.2136,-2.2925,-2.301,-2.3141,-2.3779,-2.3724,-2.3503,0.0,0.0,0.0,0.0,0.0,0.0,0.0,0.0,-1.703,-1.8014,0.0,-1.8285,0.0,0.0,0.0,0.0,0.0,-1.942,0.0,0.0,-2.0538,-2.1216,-2.0542,-2.1304,-2.1664,-2.1734,-2.2742,-2.2572,-2.1175,-1.8329,0.0,0.0,0.0,0.0,0.0,0.0,-1.6628,-1.6707,-1.5754,-1.556,-1.6102,-1.4929,-1.4837,-1.5948,-1.4821,-1.3836,-1.3251,-1.3961,-1.4702,-1.539,-1.6605,0.0,0.0,0.0,0.0,0.0,0.0,0.0,0.0,0.0,0.0,0.0,0.0,0.0,0.0,0.0,0.0,0.0,0.0,0.0,0.0,-1.6493,0.0,0.0,0.0,0.0,0.0,0.0,0.0,0.0,0.0,0.0,-2.1279,-2.0877,-2.0851,-2.1749,0.0,0.0,0.0,0.0,-2.0424,-1.9905,-2.0982,-2.2124,-2.2919,-2.1886,-2.0751,-2.0083,0.0,0.0,-1.9314,-2.1969,-2.3529,-2.2078,-2.1834,-2.1705,-2.1172,-2.2299,-2.3328,-2.343,-2.3468,-2.3587,-2.3511,-2.3063,-2.2565,-1.9984,0.0,0.0,0.0,0.0,-2.0425,-2.0327,-2.0073,-1.9269,-1.9411,-2.0139,-1.9431,0.0,0.0,0.0,0.0,0.0,0.0,-2.0177,-2.0062,-2.1616,-2.1919,-2.1234,-2.2264,-2.2715,-2.2646,-2.2429,-2.1836,-2.0878,-1.8829,-1.8347,-1.9404,0.0,0.0,0.0,0.0,-1.7227,-1.8346,-1.6805,-1.6022,-1.6194,-1.5375,-1.4652,-1.4083,-1.3682,-1.339,-1.3205,-1.3883,-1.4669,-1.5582,-1.5975,0.0,0.0,0.0,0.0,0.0,0.0,0.0,0.0,0.0,0.0,0.0,0.0,0.0,0.0,0.0,0.0,0.0,0.0,0.0,-1.9209,-1.7458,-1.6929,0.0,0.0,0.0,0.0,0.0,0.0,0.0,0.0,0.0,-2.1477,-2.1018,-2.1253,0.0,0.0,-2.0445,-2.0735,-1.9972,-1.9266,-1.9145,-2.0043,0.0,-1.9415,-1.9956,-1.9849,-1.8003,-1.8531,-1.941,-2.0063,-2.1437,-2.2336,-2.1858,-2.1818,-2.1756,-2.1615,-2.1552,-2.1681,-2.184,-2.2695,-2.3285,-2.2887,-2.3026,-2.3139,-2.0725,-2.0416,-2.0706,-2.0737,-2.0571,-2.0585,-2.0425,-2.0056,-1.9323,-1.9569,-2.0494,-1.9752,-1.9856,-2.0552,-2.0117,0.0,0.0,0.0,-2.085,-2.125,-2.2302,-2.2783,-2.2781,-2.3423,-2.374,-2.3666,-2.3126,-2.2473,-2.178,-2.076,-2.0522,-2.0922,0.0,0.0,-1.9467,-1.8296,-1.805,-1.8746,-1.7623,-1.687,-1.6594,-1.596,-1.4852,-1.3282,-1.3713,-1.3867,-1.3605,-1.4252,-1.4891,-1.549,-1.5883,-1.5333,0.0,0.0,0.0,0.0,0.0,0.0,0.0,0.0,0.0,0.0,0.0,-2.0803,-2.0601,0.0,0.0,0.0,-1.7163,-1.7023,-1.6598,-1.632,0.0,0.0,0.0,0.0,0.0,0.0,0.0,-1.9921,-1.9859,-2.0372,-2.1601,-2.0982,-2.113,-2.2997,-2.1606,-2.0441,-2.0605,0.0,-1.9273,-1.9036,-1.9721,-2.0029,-1.9377,-1.9608,-1.9385,-1.7979,-1.8843,-1.9895,-2.0411,-2.1216,-2.1639,-2.1382,-2.1305,-2.132,-2.132,-2.101,-2.1061,-2.1775,-2.2678,-2.3278,-2.3215,-2.338,-2.3338,-2.1276,-2.0943,-2.1904,-2.1535,-2.0384,-2.0528,-1.9921,-1.8731,-1.8166,-1.9024,-2.0793,-1.9588,-2.0045,-2.1686,-2.1109,0.0,-1.9981,-2.0881,-2.1524,-2.1949,-2.2793,-2.3667,-2.4524,-2.4554,-2.457,-2.4555,-2.4405,-2.3994,-2.3379,-2.3302,-2.2978,-2.2301,-1.9728,-1.8792,-1.941,-1.9395,-1.9038,-1.8376,-1.8315,-1.793,-1.7208,-1.6486,-1.5226,-1.3452,-1.456,-1.4914,-1.4329,-1.4904,-1.5283,-1.5298,-1.5999,-1.5249,-1.2851,0.0,0.0,0.0,0.0,0.0,0.0,0.0,0.0,0.0,0.0,0.0,0.0,0.0,0.0,0.0,-1.45,0.0,-1.1684,-1.4261,0.0,0.0,0.0,-1.9623,-1.9661,-2.0163,-2.052,-2.0575,0.0,0.0,-2.1457,-2.0751,-2.0516,-2.144,-2.0926,-2.023,-1.9583,-1.9878,-1.9918,-1.9335,-1.9751,-2.0462,-2.0946,-2.0173,-1.9326,-1.9179,-1.9913,-2.0338,-2.0503,-2.1088,-2.129,-2.0849,-2.0625,-2.062,-2.0604,-2.0609,-2.1078,-2.2558,-2.2998,-2.3293,-2.3754,-2.3382,-2.2864,-2.21,-2.2009,-2.2247,-2.1773,-2.0907,-2.1305,-2.1292,-2.0986,-2.0609,-2.0726,-2.1166,-2.0597,-2.0703,-2.1342,-2.114,-2.1162,-2.1284,-2.1825,-2.2374,-2.2975,-2.3438,-2.3914,-2.4348,-2.4359,-2.4359,-2.4405,-2.4333,-2.4225,-2.4056,-2.3548,-2.3209,-2.2978,-2.1393,-2.0639,-2.0813,-2.032,-1.998,-1.9793,-1.9269,-1.8438,-1.7208,-1.6041,-1.5196,-1.4744,-1.5052,-1.5129,-1.4991,-1.5622,-1.5948,-1.5918,-1.4727,-1.3773,-1.3167,-1.3686,0.0,0.0,0.0,0.0,0.0,0.0,0.0,0.0,0.0,-2.0668,-2.0476,0.0,-1.9611,0.0,-1.3785,-1.3267,-1.6801,-1.6331,0.0,0.0,-1.9508,-2.0144,-1.9471,-2.0031,-2.0225,-1.9499,-1.9385,-1.9394,-1.9489,-1.9291,-1.9237,-1.9489,-2.001,-2.0568,-2.1071,-2.0175,-1.9481,-1.9347,-1.9426,-1.9609,-1.9858,-1.9617,-1.9286,-1.9305,-1.9455,-1.9785,-2.0393,-2.0666,-2.0941,-2.1308,-2.0923,-2.0574,-2.0501,-2.0139,-2.0163,-2.1102,-2.18,-2.2126,-2.1773,-2.1532,-2.1384,-2.2609,-2.2402,-2.21,-2.1707,-2.1218,-2.1668,-2.18,-2.1766,-2.1588,-2.1573,-2.1696,-2.1522,-2.1483,-2.1657,-2.1657,-2.1757,-2.1953,-2.2146,-2.2614,-2.3319,-2.3494,-2.3839,-2.4302,-2.4302,-2.4302,-2.4302,-2.4302,-2.4302,-2.4287,-2.3933,-2.3733,-2.3733,-2.2994,-2.2471,-2.2147,-2.1245,-2.0751,-2.0751,-1.9795,-1.8761,-1.7638,-1.6332,-1.5641,-1.561,-1.5068,-1.5011,-1.5595,-1.5718,-1.576,-1.5745,-1.4965,-1.4014,-1.2892,-1.3389,-1.3327,0.0,0.0,0.0,0.0,0.0,0.0,0.0,0.0,0.0,0.0,0.0,-1.9686,-1.7532,-1.4456,-1.4149,-1.794,-1.7566,-1.7448,-1.8361,-1.9275,-1.9634,-1.913,-1.9788,-2.0065,-1.9506,-1.9435,-1.9435,-1.9325,-1.8947,-1.8715,-1.8789,-1.9201,-1.974,-2.0263,-1.9659,-1.9162,-1.9162,-1.9243,-1.9286,-1.9286,-1.9286,-1.9286,-1.9286,-1.9286,-1.9455,-1.9877,-1.9968,-2.0134,-2.0537,-2.028,-1.9968,-1.9968,-1.9737,-1.9667,-2.007,-2.0559,-2.0994,-2.1272,-2.1068,-2.0808,-2.3145,-2.2703,-2.2086,-2.176,-2.1629,-2.1877,-2.1847,-2.1712,-2.1807,-2.1935,-2.217,-2.217,-2.217,-2.217,-2.217,-2.217,-2.217,-2.217,-2.2586,-2.3216,-2.3275,-2.3638,-2.423,-2.4302,-2.4302,-2.4302,-2.4302,-2.4245,-2.4219,-2.4219,-2.4234,-2.4219,-2.4142,-2.3876,-2.3394,-2.2086,-2.1332,-2.1147,-2.0027,-1.9132,-1.8468,-1.707,-1.6332,-1.6271,-1.5037,-1.4883,-1.5994,-1.5529,-1.518,-1.5222,-1.5426,-1.4667,-1.2719,-1.3077,-1.3842,0.0,-1.5131,0.0,0.0,0.0,0.0,0.0,0.0,0.0,0.0,-2.0385,-1.9859,-1.8415,-1.5853,-1.5119,-1.7165,-1.816,-1.8376,-1.7666,-1.8253,-1.8753,-1.8789,-1.9342,-1.9743,-1.9765,-1.9719,-1.969,-1.9619,-1.8949,-1.8505,-1.8641,-1.8598,-1.8632,-1.875,-1.8914,-1.8999,-1.8981,-1.913,-1.9225,-1.924,-1.9274,-1.9286,-1.9286,-1.9286,-1.9286,-1.9323,-1.9341,-1.9323,-1.9341,-1.9396,-1.9341,-1.9286,-1.942,-1.9501,-1.9557,-1.9652,-2.0121,-2.1124,-2.1031,-2.0678,-2.4629,-2.4472,-2.3864,-2.308,-2.2271,-2.2284,-2.189,-2.118,-2.1616,-2.1935,-2.2184,-2.217,-2.217,-2.217,-2.217,-2.217,-2.217,-2.217,-2.2402,-2.2844,-2.3127,-2.3492,-2.3906,-2.4142,-2.4302,-2.4302,-2.4302,-2.4135,-2.3882,-2.3882,-2.3882,-2.3867,-2.3338,-2.3442,-2.4025,0.0,0.0,0.0,-2.0243,-2.0042,-1.9857,-1.8007,-1.7009,-1.6978,-1.5703,0.0,-1.5375,-1.5257,-1.518,-1.5119,-1.3198,0.0,0.0,0.0,0.0,0.0,0.0,0.0,0.0,0.0,0.0,0.0,-1.9074,-1.8837,-1.9816,-1.9403,-1.8718,-1.7828,-1.7214,-1.704,-1.7484,-1.7838,-1.8004,-1.7862,-1.8113,-1.8378,-1.8532,-1.8438,-1.8339,-1.853,-1.8263,-1.8132,-1.8358,-1.8121,-1.8117,-1.8319,-1.8277,-1.8256,-1.8319,-1.8639,-1.8807,-1.8861,-1.8982,-1.9064,-1.9046,-1.9178,-1.9256,-1.9286,-1.9286,-1.9289,-1.9289,-1.9286,-1.9286,-1.9286,-1.9286,-1.9286,-1.9305,-1.942,-1.9501,-1.9501,-1.9541,-1.9694,-1.9991,-1.9936,-1.9824,-2.4805,0.0,-2.3916,-2.3328,0.0,-2.2204,-2.1681,-2.1244,-2.135,-2.1602,-2.1983,-2.2137,-2.217,-2.217,-2.217,-2.217,-2.217,-2.217,-2.2402,-2.2694,-2.3127,-2.3478,-2.3815,-2.4131,-2.4302,-2.4302,-2.4302,-2.4219,-2.4051,-2.4051,-2.4051,-2.4036,-2.3716,-2.3799,-2.4241,-2.2963,-2.1793,-2.0813,-2.0474,-2.015,-1.9749,-1.7776,-1.6855,-1.7131,-1.5242,0.0,0.0,0.0,0.0,0.0,0.0,0.0,0.0,0.0,0.0,-1.6846,-1.6902,-1.7358,-1.8425,-1.796,-1.8215,-1.9596,-1.8732,-1.834,-1.8934,-1.798,-1.737,-1.7362,-1.7127,-1.7113,-1.7406,-1.7647,-1.776,-1.7743,-1.7854,-1.8061,-1.8486,-1.8416,-1.8477,-1.8788,-1.8461,-1.8195,-1.8421,-1.8087,-1.8005,-1.8168,-1.819,-1.819,-1.8215,-1.8463,-1.8659,-1.8788,-1.8843,-1.8895,-1.8913,-1.8965,-1.9082,-1.913,-1.9164,-1.9178,-1.9274,-1.9286,-1.9286,-1.9286,-1.9286,-1.9286,-1.9305,-1.942,-1.9501,-1.9516,-1.9559,-1.9602,-1.9583,-1.9583,-1.9583,-2.4936,-2.436,-2.3772,-2.3406,-2.3145,-2.2217,-2.1694,-2.1472,0.0,0.0,0.0,-2.2147,-2.217,-2.217,-2.217,-2.217,-2.217,-2.217,-2.2356,-2.2618,-2.3038,-2.3348,-2.361,-2.3952,-2.4135,-2.4135,-2.4135,-2.4078,-2.4051,-2.4009,-2.4009,-2.4036,-2.4094,-2.4116,-2.4056,-2.3025,-2.2132,-2.147,-2.0828,-2.0212,-1.9626,-1.7746,-1.6886,-1.7193,-1.496,-1.4144,-1.4975,-1.4596,-1.4329,-1.4206,-1.4083,-1.4329,-1.4975,-1.4621,-1.524,-1.7093,-1.7003,-1.7412,-1.8667,-1.8199,-1.8115,-1.8727,-1.8335,-1.8026,-1.7938,-1.6857,-1.6451,-1.7059,-1.67,-1.668,-1.7199,-1.7541,-1.7629,-1.7512,-1.7728,-1.8085,-1.8393,-1.8701,-1.8893,-1.9168,-1.8776,-1.8692,-1.8877,-1.8466,-1.8217,-1.8491,-1.8551,-1.8379,-1.8387,-1.8426,-1.8485,-1.862,-1.8678,-1.8734,-1.8752,-1.8789,-1.8843,-1.8947,-1.9142,-1.9282,-1.9413,-1.9476,-1.951,-1.9565,-1.9436,-1.9323,-1.9305,-1.942,-1.9501,-1.9501,-1.9559,-1.9583,-1.9583,-1.9583,-1.9583,-2.6099,-2.5537,-2.4962,-2.4138,-2.321,-2.3041,-2.2426,-2.1524,-2.1385,-2.182,-2.2531,-2.2328,-2.217,-2.217,-2.217,-2.217,-2.217,-2.217,-2.2231,-2.2263,-2.2618,-2.2785,-2.2875,-2.326,-2.3436,-2.3436,-2.3436,-2.326,-2.2965,-2.292,-2.292,-2.2965,-2.326,-2.3426,-2.3431,-2.3255,-2.2825,-2.2147,-2.147,-2.1085,-2.1013,-1.9626,-1.83,-1.7224,-1.6256,-1.5272,-1.439,-1.4806,-1.4806,-1.4221,-1.3652,-1.3652,-1.4283,-1.4292,-1.4912,-1.6398,-1.6507,-1.6956,-1.7967,-1.7396,-1.7035,-1.7157,-1.7642,-1.7722,-1.7295,-1.7059,-1.6986,-1.7108,-1.7003,-1.7019,-1.7149,-1.7662,-1.7785,-1.7362,-1.8274,-1.8604,-1.7774,-1.8542,-1.88,-1.7988,-1.7976,-1.8414,-1.8734,-1.8723,-1.8978,-1.9705,-1.943,-1.9159,-1.9073,-1.8629,-1.8287,-1.8298,-1.8443,-1.8542,-1.8632,-1.8714,-1.8877,-1.8825,-1.9561,-2.0101,-2.0153,-2.0199,-2.0246,-2.0301,-1.973,-1.9341,-1.9323,-1.942,-1.9483,-1.9497,-1.9541,-1.9583,-1.9583,-1.9583,-1.9583,-2.6151,-2.5354,-2.5079,-2.4478,-2.3681,-2.3354,-2.2923,-2.2387,-2.2245,-2.2069,-2.2095,-2.2671,-2.2672,-2.224,-2.2521,-2.2493,-2.217,-2.217,-2.217,-2.2217,-2.2526,-2.2603,-2.2558,-2.3024,-2.3172,-2.2889,-2.3172,-2.3127,-2.283,-2.2934,-2.3038,-2.3024,-2.3216,-2.3109,-2.2735,-2.2909,-2.2591,-2.1699,-2.1408,-2.1322,-2.1291,-1.9592,-1.8192,-1.7208,-1.6548,-1.5564,-1.4267,-1.4827,-1.4898,-1.4236,-1.3913,-1.4052,-1.4698,-1.4406,-1.4831,-1.6165,-1.6019,-1.6245,-1.713,-1.6929,-1.6779,-1.6696,-1.6998,-1.7093,-1.6849,-1.6853,-1.6847,-1.6821,-1.6898,-1.6949,-1.6965,-1.763,-1.7973,-1.7666,-1.86,-1.907,-1.888,-1.9228,-1.9393,-1.8868,-1.8872,-1.8917,-1.876,-1.9035,-1.9311,-1.9767,-1.9757,-1.9895,-1.9895,-1.9619,-1.9395,-1.9401,-1.949,-1.9326,-1.9034,-1.9381,-1.9503,-1.929,-2.0075,-2.0694,-2.0825,-2.075,-2.0541,-2.0448,-1.984,-1.9378,-1.9357,-1.9438,-1.9483,-1.9508,-1.9555,-1.9583,-1.9583,-1.9583,-1.9615,-2.6203,-2.5171,-2.5171,-2.4766,-2.4099,-2.3616,-2.3341,-2.3197,-2.3118,-2.2524,-2.1857,-2.2899,-2.2998,-2.2493,-2.2887,-2.276,-2.2269,-2.2432,-2.2356,-2.2152,-2.2437,-2.2423,-2.2142,-2.2678,-2.2663,-2.2328,-2.2663,-2.2754,-2.2618,-2.2754,-2.2934,-2.3038,-2.3068,-2.2864,-2.2451,-2.2763,-2.2509,-2.1727,-2.1596,-2.143,-2.113,-1.9477,-1.8159,-1.7379,-1.7056,-1.624,-1.4944,-1.5323,-1.536,-1.4698,-1.4514,-1.4667,-1.5119,-1.4729,-1.495,-1.5991,-1.5817,-1.5851,-1.6465,-1.6675,-1.6696,-1.6544,-1.6554,-1.6532,-1.6526,-1.6495,-1.6622,-1.6801,-1.6998,-1.7072,-1.7343,-1.7994,-1.8414,-1.8317,-1.9054,-1.9544,-1.9697,-1.9969,-2.0079,-1.9887,-1.981,-1.9621,-1.9429,-1.967,-1.995,-2.0024,-2.0446,-2.0842,-2.0722,-2.0773,-2.0911,-2.0825,-2.0636,-2.0073,-1.9481,-1.9884,-2.0154,-1.9899,-2.0717,-2.137,-2.1566,-2.1333,-2.0998,-2.0886,-2.017,-1.9617,-1.9464,-1.9453,-1.9497,-1.9504,-1.9569,-1.9583,-1.9583,-1.9583,-1.9615,-2.6765,-2.5811,-2.5694,-2.5105,-2.4151,-2.4034,-2.372,-2.3328,-2.372,-2.332,-2.2386,-2.2624,-2.2901,-2.3027,-2.3097,-2.2831,-2.2353,-2.3067,-2.2857,-2.1959,-2.2163,-2.2024,-2.1533,-2.1554,-2.1554,-2.1506,-2.1602,-2.165,-2.1602,-2.1602,-2.1874,-2.2314,-2.2406,-2.268,-2.3113,-2.3201,-2.3171,-2.3083,-2.2535,-2.1754,-2.0873,-2.008,-1.9034,-1.7782,-1.8556,-1.8252,-1.6578,-1.6861,-1.6686,-1.6041,-1.5411,-1.516,-1.5222,-1.5145,-1.5426,-1.6117,-1.6157,-1.6227,-1.6409,-1.6543,-1.657,-1.6452,-1.6409,-1.6371,-1.6265,-1.6265,-1.6639,-1.7317,-1.7602,-1.7808,-1.8458,-1.9088,-1.9213,-1.8815,-1.9798,-2.021,-1.9341,-1.9957,-2.0369,-1.937,-1.9857,-2.0286,-2.0559,-2.0812,-2.1062,-2.1248,-2.178,-2.2014,-2.1643,-2.191,-2.2186,-2.2082,-2.1359,-2.0274,-1.9705,-1.9947,-2.0529,-2.0745,-2.1519,-2.2159,-2.2415,-2.2555,-2.2538,-2.1455,-2.0868,-2.0131,-1.9592,-1.9453,-1.9497,-1.9475,-1.9536,-1.9583,-1.9583,-1.9583,-1.9615,-2.622,-2.5785,-2.5458,-2.4857,-2.4164,-2.4125,-2.3981,-2.3799,-2.3995,-2.391,-2.3621,-2.354,-2.3372,-2.3154,-2.387,-2.3769,-2.3075,-2.3036,-2.2729,-2.2087,-2.1893,-2.1542,-2.1193,-2.1326,-2.1277,-2.1033,-2.1277,-2.1326,-2.1229,-2.1313,-2.152,-2.1732,-2.1779,-2.1969,-2.2402,-2.2618,-2.2709,-2.2663,-2.2236,-2.1896,-2.1569,-2.082,-1.9737,-1.8643,-1.8984,-1.8791,-1.7761,-1.7731,-1.7485,-1.684,-1.6517,-1.6194,-1.5795,-1.5806,-1.5902,-1.6191,-1.6262,-1.6289,-1.6305,-1.6425,-1.6409,-1.6305,-1.6277,-1.625,-1.6225,-1.6548,-1.7128,-1.7803,-1.7704,-1.7809,-1.8545,-1.9264,-1.9594,-1.9483,-2.0225,-2.0525,-1.989,-2.0431,-2.0575,-1.9865,-2.0372,-2.0705,-2.0666,-2.1046,-2.1644,-2.2117,-2.253,-2.2522,-2.2315,-2.2539,-2.247,-2.2134,-2.179,-2.1505,-2.0842,-2.1273,-2.1537,-2.1568,-2.2205,-2.3016,-2.3049,-2.3009,-2.274,-2.1951,-2.1143,-2.0317,-1.9519,-1.9442,-1.9453,-1.9431,-1.9464,-1.9512,-1.9569,-1.9583,-1.9583,-2.587,-2.5508,-2.4858,-2.4403,-2.4085,-2.3798,-2.3675,-2.3675,-2.3675,-2.3807,-2.4015,-2.399,-2.3824,-2.3691,-2.4535,-2.4487,-2.362,-2.3403,-2.2906,-2.2272,-2.1968,-2.1656,-2.1226,-2.1322,-2.1223,-2.1009,-2.1113,-2.1082,-2.0947,-2.1095,-2.1229,-2.1277,-2.1277,-2.1471,-2.1793,-2.2049,-2.2156,-2.2189,-2.2024,-2.1989,-2.1971,-2.1302,-2.0393,-1.9486,-1.9489,-1.9175,-1.8419,-1.8452,-1.8176,-1.75,-1.7316,-1.6978,-1.6517,-1.6302,-1.6194,-1.6222,-1.6289,-1.6332,-1.6222,-1.6289,-1.6289,-1.6222,-1.6194,-1.6271,-1.6502,-1.6916,-1.7577,-1.8377,-1.8161,-1.8268,-1.8936,-1.953,-1.9844,-1.9907,-2.0395,-2.0595,-2.0462,-2.0679,-2.0703,-2.0446,-2.0889,-2.1193,-2.0955,-2.143,-2.2082,-2.2548,-2.2694,-2.2712,-2.2712,-2.2694,-2.2522,-2.2005,-2.2401,-2.2315,-2.1832,-2.2108,-2.2315,-2.2407,-2.2853,-2.3343,-2.35,-2.3371,-2.285,-2.2097,-2.1308,-2.0499,-1.9648,-1.9408,-1.9405,-1.9387,-1.9416,-1.9483,-1.9569,-1.9583,-1.9583,-2.6054,-2.495,-2.3898,-2.3768,-2.4088,-2.3119,-2.2725,-2.2786,-2.2725,-2.2799,-2.3121,-2.3541,-2.401,-2.4338,-2.4716,-2.4515,-2.3826,-2.4382,-2.369,-2.2205,-2.2681,-2.2479,-2.1511,-2.1472,-2.1459,-2.1355,-2.1062,-2.0812,-2.0749,-2.0762,-2.0848,-2.0983,-2.1046,-2.1264,-2.1712,-2.1793,-2.1949,-2.217,-2.2146,-2.2076,-2.1831,-2.1445,-2.0991,-2.0699,-2.0391,-1.9767,-1.8967,-1.9076,-1.89,-1.8192,-1.7623,-1.7224,-1.7101,-1.6548,-1.6194,-1.6194,-1.6222,-1.6237,-1.6225,-1.6283,-1.6283,-1.624,-1.6332,-1.6486,-1.7009,-1.727,-1.7915,-1.9117,-1.9165,-1.9443,-1.995,-2.0091,-2.0234,-2.0215,-2.0292,-2.0339,-2.0304,-2.0407,-2.0646,-2.099,-2.1243,-2.1576,-2.2201,-2.2402,-2.2476,-2.2642,-2.2712,-2.2712,-2.2712,-2.2712,-2.266,-2.2625,-2.2608,-2.2453,-2.1867,-2.2229,-2.2712,-2.2845,-2.3018,-2.3482,-2.3735,-2.3777,-2.3051,-2.2354,-2.1822,-2.1013,-1.9905,-1.9405,-1.9435,-1.945,-1.9512,-1.9573,-1.9602,-1.9602,-1.9583,-2.5391,-2.4903,-2.3841,-2.3517,-2.3583,-2.2934,-2.2604,-2.2604,-2.2604,-2.2675,-2.2777,-2.3179,-2.3436,-2.3592,-2.3936,-2.4252,-2.4422,-2.4282,-2.3643,-2.2786,-2.2743,-2.2465,-2.2153,-2.2089,-2.1826,-2.1524,-2.1284,-2.1043,-2.0712,-2.0699,-2.0762,-2.0799,-2.0799,-2.0983,-2.1277,-2.1471,-2.165,-2.1949,-2.2077,-2.2381,-2.2615,-2.172,-2.1367,-2.1667,-2.0804,-2.0128,-1.9764,-1.9866,-1.9626,-1.8915,-1.8654,-1.813,-1.7254,-1.6548,-1.6194,-1.6194,-1.6194,-1.6379,-1.6763,-1.684,-1.684,-1.687,-1.7254,-1.7331,-1.7393,-1.8007,-1.8778,-1.924,-1.9734,-2.0088,-2.0212,-2.0304,-2.0304,-2.0304,-2.0304,-2.0304,-2.0339,-2.0509,-2.0712,-2.0991,-2.1339,-2.1899,-2.2231,-2.2497,-2.2596,-2.2632,-2.2659,-2.2685,-2.2712,-2.2712,-2.2712,-2.2712,-2.2712,-2.2625,-2.2401,-2.2488,-2.2773,-2.3035,-2.3283,-2.35,-2.3735,-2.4016,-2.351,-2.2281,-2.184,-2.1288,-2.011,-1.9381,-1.9393,-1.9483,-1.9545,-1.9555,-1.9587,-1.9602,-1.9583,-2.473,-2.5001,-2.3766,-2.3219,-2.3207,-2.2638,-2.227,-2.2137,-2.2113,-2.2237,-2.2421,-2.2604,-2.2847,-2.3075,-2.3182,-2.3598,-2.431,-2.3883,-2.3463,-2.2998,-2.2972,-2.2844,-2.269,-2.2682,-2.2444,-2.2035,-2.164,-2.1284,-2.0974,-2.0791,-2.0699,-2.0699,-2.0699,-2.0812,-2.0997,-2.118,-2.1423,-2.1759,-2.1996,-2.2449,-2.304,-2.2058,-2.1628,-2.1881,-2.0944,-2.0172,-1.9977,-1.9993,-1.9756,-1.9244,-1.9055,-1.8505,-1.7456,-1.6857,-1.6514,-1.6521,-1.6542,-1.6609,-1.6886,-1.727,-1.7423,-1.7239,-1.7807,-1.8053,-1.7946,-1.8778,-1.9317,-1.9657,-1.998,-2.0304,-2.0304,-2.0304,-2.0304,-2.0304,-2.0304,-2.0304,-2.0304,-2.0494,-2.0662,-2.0893,-2.1401,-2.1869,-2.2089,-2.236,-2.247,-2.2453,-2.2535,-2.2632,-2.2659,-2.2659,-2.2659,-2.2676,-2.2685,-2.2712,-2.2608,-2.2643,-2.2816,-2.3052,-2.3265,-2.35,-2.3735,-2.4016,-2.362,-2.2391,-2.1565,-2.107,-2.0429,-1.9612,-1.9399,-1.9472,-1.9512,-1.9522,-1.9569,-1.9602,-1.9611,-2.4143,-2.5261,-2.3635,-2.2814,-2.2764,-2.2205,-2.1682,-2.1331,-2.1296,-2.1526,-2.1877,-2.1939,-2.2298,-2.2834,-2.2592,-2.2786,-2.3075,-2.3428,-2.3244,-2.2667,-2.347,-2.3636,-2.318,-2.3175,-2.3149,-2.2959,-2.1995,-2.1485,-2.1485,-2.1,-2.0712,-2.0725,-2.0725,-2.0799,-2.0997,-2.1033,-2.1277,-2.1664,-2.1807,-2.2296,-2.3054,-2.2207,-2.1766,-2.1804,-2.0846,-2.0012,-1.9451,-1.9456,-1.9277,-1.8916,-1.8639,-1.8278,-1.7872,-1.7395,-1.7188,-1.7192,-1.7186,-1.6914,-1.6609,-1.7562,-1.7946,-1.7654,-1.7946,-1.8638,-1.8994,-1.9271,-1.9626,-2.0088,-2.0243,-2.0304,-2.0304,-2.0304,-2.0304,-2.0304,-2.0304,-2.0304,-2.0304,-2.0304,-2.0441,-2.0794,-2.1355,-2.1631,-2.1631,-2.2032,-2.236,-2.2287,-2.2371,-2.2542,-2.2579,-2.2605,-2.2623,-2.2623,-2.2659,-2.2712,-2.2712,-2.2712,-2.2893,-2.3095,-2.3265,-2.3482,-2.3756,-2.3979,-2.3419,-2.2318,-2.1437,-2.0923,-2.0521,-1.9792,-1.9418,-1.942,-1.9464,-1.9522,-1.9569,-1.9597,-1.9628,-2.3863,-2.4269,-2.2949,-2.2342,-2.2255,-2.1697,-2.1368,-2.1181,-2.1233,-2.1285,-2.1411,-2.14,-2.1588,-2.1702,-2.1702,-2.1702,-2.1827,-2.231,-2.2506,-2.2648,-2.3301,-2.3551,-2.3431,-2.367,-2.3592,-2.2992,-2.1641,-2.1355,-2.1878,-2.1197,-2.0882,-2.1106,-2.0895,-2.0725,-2.0799,-2.0947,-2.1193,-2.1506,-2.1712,-2.2156,-2.2741,-2.2134,-2.183,-2.2002,-2.0801,-1.9982,-1.999,-1.962,-1.9361,-1.9212,-1.9104,-1.893,-1.8482,-1.7936,-1.7715,-1.7853,-1.7869,-1.8084,-1.8377,-1.8685,-1.8854,-1.8777,-1.9223,-1.9423,-1.9395,-1.9718,-2.0042,-2.0289,-2.0304,-2.0304,-2.0304,-2.0304,-2.0304,-2.0304,-2.0304,-2.0304,-2.0304,-2.0304,-2.046,-2.0761,-2.1198,-2.1462,-2.1721,-2.2135,-2.2349,-2.2304,-2.2388,-2.2515,-2.2525,-2.2552,-2.2605,-2.2623,-2.2659,-2.2712,-2.2712,-2.2816,-2.2977,-2.3151,-2.3312,-2.3566,-2.3816,-2.3886,-2.3253,-2.2483,-2.1584,-2.0943,-2.0539,-1.9973,-1.9512,-1.9424,-1.9534,-1.9578,-1.9587,-1.9606,-1.9636,-2.321,-2.3401,-2.2611,-2.2129,-2.1935,-2.1855,-2.161,-2.1308,-2.1369,-2.1342,-2.1267,-2.1233,-2.1233,-2.1233,-2.1233,-2.1233,-2.1221,-2.1526,-2.1815,-2.2175,-2.3078,-2.3403,-2.3463,-2.3878,-2.3935,-2.3367,-2.2217,-2.1982,-2.2583,-2.1839,-2.1419,-2.1407,-2.1146,-2.0908,-2.0725,-2.0848,-2.0997,-2.1277,-2.152,-2.1935,-2.2363,-2.211,-2.1973,-2.1931,-2.1024,-2.0323,-2.0009,-1.9614,-1.9362,-1.9234,-1.9228,-1.9119,-1.8991,-1.8497,-1.8286,-1.8559,-1.8623,-1.87,-1.8931,-1.9302,-1.9533,-1.9472,-1.9919,-2.0119,-1.9826,-2.0119,-2.0289,-2.0304,-2.0304,-2.0304,-2.0304,-2.0304,-2.0304,-2.0304,-2.0304,-2.0304,-2.0304,-2.0441,-2.0561,-2.0844,-2.1214,-2.1479,-2.1661,-2.2077,-2.2293,-2.2248,-2.2349,-2.2449,-2.246,-2.2542,-2.2569,-2.2649,-2.279,-2.279,-2.2738,-2.2876,-2.306,-2.3212,-2.3359,-2.3667,-2.3976,-2.4056,-2.3731,-2.2832,-2.1952,-2.1568,-2.113,-1.9926,-1.9232,-1.9396,-1.9627,-1.9563,-1.955,-1.9628,-1.9656,-2.2283,-2.2852,-2.2542,-2.2062,-2.1731,-2.2276,-2.211,-2.1509,-2.1629,-2.1575,-2.1307,-2.1204,-2.1233,-2.1233,-2.1233,-2.1233,-2.1233,-2.1221,-2.1285,-2.1663,-2.2531,-2.3283,-2.3522,-2.3833,-2.3962,-2.3914,-2.3263,-2.3093,-2.3223,-2.2531,-2.2113,-2.176,-2.1564,-2.125,-2.0908,-2.0751,-2.0848,-2.1033,-2.1277,-2.1636,-2.2175,-2.2142,-2.2027,-2.1814,-2.1364,-2.071,-1.995,-1.9653,-1.9324,-1.8951,-1.8932,-1.9113,-1.9222,-1.8986,-1.8948,-1.9216,-1.9315,-1.8991,-1.8806,-1.9546,-1.9996,-1.958,-1.9965,-2.0304,-2.0243,-2.0243,-2.0304,-2.0304,-2.0304,-2.0304,-2.0304,-2.0304,-2.0304,-2.0304,-2.0304,-2.0304,-2.0373,-2.061,-2.0695,-2.086,-2.1324,-2.1661,-2.1401,-2.1915,-2.2106,-2.2106,-2.2209,-2.2338,-2.2377,-2.2432,-2.2487,-2.2605,-2.279,-2.2816,-2.2738,-2.3017,-2.3188,-2.3157,-2.333,-2.3602,-2.3846,-2.3928,-2.4116,-2.3235,-2.2264,-2.1971,-2.1405,-2.0182,-1.9559,-1.9724,-1.9745,-1.9571,-1.9532,-1.9609,-1.9695,-2.2272,-2.2111,-2.2035,-2.1838,-2.1586,-2.1857,-2.1942,-2.1844,-2.1543,-2.164,-2.1598,-2.1319,-2.1267,-2.1233,-2.1244,-2.1233,-2.1233,-2.1233,-2.1233,-2.1285,-2.1889,-2.2944,-2.3644,-2.361,-2.3686,-2.391,-2.3231,-2.3041,-2.3733,-2.291,-2.2531,-2.2727,-2.1904,-2.1459,-2.1263,-2.0908,-2.0825,-2.0983,-2.1046,-2.1277,-2.1602,-2.165,-2.1677,-2.1746,-2.1314,-2.0952,-2.0737,-2.0358,-1.9613,-1.8722,-1.9033,-1.9177,-1.9069,-1.9134,-1.9248,-1.9426,-1.9756,-1.9848,-1.9588,-1.9921,-2.0147,-2.0088,-2.0131,-2.0304,-2.0304,-2.0304,-2.0304,-2.0304,-2.0304,-2.0304,-2.0304,-2.0304,-2.0304,-2.0304,-2.0304,-2.0407,-2.0577,-2.0543,-2.0509,-2.0794,-2.1214,-2.137,-2.1524,-2.1857,-2.2237,-2.2209,-2.2254,-2.231,-2.2321,-2.2377,-2.2432,-2.2569,-2.2685,-2.2721,-2.2807,-2.3122,-2.3242,-2.3157,-2.3236,-2.3427,-2.3533,-2.348,-2.3783,-2.3694,-2.2264,-2.166,-2.1238,-2.0431,-2.0278,-2.0034,-1.97,-1.9468,-1.9532,-1.9577,-1.9707,-2.2232,-2.1807,-2.1807,-2.1728,-2.1712,-2.1861,-2.2024,-2.2088,-2.1998,-2.2004,-2.2102,-2.1709,-2.1479,-2.1468,-2.1337,-2.1244,-2.1233,-2.1233,-2.1233,-2.1336,-2.1939,-2.2822,-2.3579,-2.354,-2.3785,-2.4008,-2.3433,-2.3537,-2.3916,-2.3393,-2.321,-2.3014,-2.2322,-2.176,-2.1446,-2.1013,-2.0749,-2.0835,-2.0947,-2.1095,-2.1229,-2.1471,-2.1664,-2.1752,-2.1514,-2.1475,-2.1257,-2.0934,-2.0189,-1.9276,-1.922,-1.9216,-1.8946,-1.9064,-1.9288,-1.953,-1.994,-2.0015,-2.0065,-2.0185,-2.027,-2.027,-2.0185,-2.0185,-2.0235,-2.0185,-2.0115,-2.027,-2.0304,-2.0304,-2.0304,-2.0304,-2.0304,-2.0304,-2.0304,-2.0441,-2.0761,-2.0778,-2.0877,-2.1166,-2.1386,-2.157,-2.1691,-2.2077,-2.2254,-2.2299,-2.2282,-2.2327,-2.231,-2.2366,-2.2422,-2.2504,-2.2632,-2.2703,-2.2747,-2.2968,-2.3074,-2.301,-2.3206,-2.3359,-2.3466,-2.3404,-2.3706,-2.3675,-2.2373,-2.1473,-2.1308,-2.096,-2.0409,-2.0076,-1.9669,-1.9457,-1.9489,-1.9596,-1.9707,-2.2263,-2.1807,-2.1807,-2.1807,-2.1863,-2.2166,-2.2211,-2.2266,-2.2452,-2.2632,-2.256,-2.2102,-2.1858,-2.1904,-2.1491,-2.129,-2.1256,-2.1463,-2.1481,-2.1713,-2.227,-2.3055,-2.3441,-2.3878,-2.4034,-2.4099,-2.4112,-2.406,-2.4073,-2.4034,-2.3799,-2.3315,-2.2701,-2.2113,-2.1642,-2.1028,-2.0725,-2.0749,-2.0848,-2.0934,-2.1033,-2.1326,-2.1568,-2.1746,-2.2002,-2.1815,-2.1597,-2.1358,-2.0836,-1.9642,-1.953,-1.9383,-1.9065,-1.896,-1.9087,-1.9479,-1.966,-1.9854,-2.0045,-2.0045,-2.0166,-2.008,-1.9925,-1.9909,-2.0115,-2.0065,-2.0065,-2.027,-2.0304,-2.0304,-2.0304,-2.0304,-2.0304,-2.0304,-2.0304,-2.0509,-2.0761,-2.1071,-2.137,-2.1721,-2.1751,-2.1945,-2.2135,-2.2282,-2.2327,-2.2327,-2.2327,-2.2327,-2.231,-2.2321,-2.2355,-2.24,-2.2542,-2.2712,-2.2756,-2.2799,-2.2825,-2.285,-2.3091,-2.3335,-2.3671,-2.3733,-2.3943,-2.3637,-2.2722,-2.2245,-2.2134,-2.1602,-2.0684,-2.0023,-1.9543,-1.9445,-1.9435,-1.9574,-1.9701,-2.2553,-2.1807,-2.1807,-2.1807,-2.1807,-2.1883,-2.2113,-2.236,-2.2371,-2.2546,-2.2599,-2.2127,-2.1918,-2.1884,-2.1801,-2.156,-2.1388,-2.1947,-2.2356,-2.2479,-2.2953,-2.3257,-2.352,-2.3863,-2.408,-2.4138,-2.4125,-2.4125,-2.4125,-2.4054,-2.406,-2.3812,-2.2802,-2.2322,-2.2086,-2.121,-2.0699,-2.0699,-2.0749,-2.0799,-2.0799,-2.0947,-2.118,-2.1506,-2.1949,-2.2128,-2.203,-2.2034,-2.1668,-2.0976,-2.0414,-1.9936,-1.9412,-1.9073,-1.9027,-1.906,-1.9332,-1.9465,-1.931,-1.9508,-1.9596,-1.9669,-1.9711,-1.9839,-1.9909,-2.0065,-2.015,-2.0304,-2.0304,-2.027,-2.0304,-2.0304,-2.0304,-2.0339,-2.0494,-2.0662,-2.0794,-2.0893,-2.1087,-2.1401,-2.1661,-2.1857,-2.1915,-2.2209,-2.2254,-2.2282,-2.2327,-2.2327,-2.231,-2.2293,-2.2327,-2.2361,-2.246,-2.2624,-2.2588,-2.2659,-2.2747,-2.2799,-2.3017,-2.3259,-2.3584,-2.3837,-2.3937,-2.3742,-2.3306,-2.2923,-2.2428,-2.1473,-2.0393,-1.9913,-1.9473,-1.943,-1.9416,-1.956,-1.9628,-2.2656,-2.1828,-2.1807,-2.1807,-2.1807,-2.1807,-2.2035,-2.236,-2.2296,-2.2546,-2.27,-2.2228,-2.2139,-2.2287,-2.2023,-2.1858,-2.2007,-2.2375,-2.2682,-2.2772,-2.3149,-2.3413,-2.3492,-2.3849,-2.4144,-2.4164,-2.4413,-2.4387,-2.4145,-2.3949,-2.3865,-2.3949,-2.27,-2.225,-2.2243,-2.1263,-2.0751,-2.0699,-2.0699,-2.0699,-2.0699,-2.0799,-2.1082,-2.1506,-2.1902,-2.2044,-2.217,-2.2156,-2.2002,-2.1636,-2.1117,-2.0526,-1.9993,-1.968,-1.9478,-1.9298,-1.9411,-1.9438,-1.9293,-1.9228,-1.9325,-1.9376,-1.9347,-1.9479,-1.9588,-1.9732,-1.9889,-2.0115,-2.0185,-2.0115,-2.027,-2.0304,-2.0304,-2.0339,-2.0475,-2.0561,-2.0628,-2.0844,-2.1166,-2.1479,-2.1708,-2.1886,-2.2032,-2.2209,-2.2254,-2.2327,-2.2327,-2.2327,-2.2327,-2.231,-2.231,-2.2355,-2.2415,-2.248,-2.2443,-2.2525,-2.2694,-2.2799,-2.296,-2.3164,-2.3422,-2.3646,-2.3816,-2.3626,-2.3471,-2.2685,-2.2079,-2.1106,-2.0319,-1.9711,-1.9378,-1.9341,-1.9372,-1.9442,-1.9489,-2.2556,-2.1807,-2.1807,-2.1807,-2.1807,-2.1807,-2.1949,-2.2252,-2.2413,-2.2574,-2.2763,-2.2324,-2.2358,-2.2585,-2.2321,-2.2354,-2.2788,-2.2788,-2.2891,-2.3141,-2.3443,-2.362,-2.3689,-2.4076,-2.4139,-2.4111,-2.4473,-2.4442,-2.3948,-2.3641,-2.3569,-2.3541,-2.2393,-2.1941,-2.1985,-2.1212,-2.0627,-2.068,-2.0563,-2.0599,-2.0699,-2.0848,-2.1118,-2.1471,-2.1712,-2.1793,-2.1949,-2.1996,-2.2016,-2.2063,-2.1587,-2.1111,-2.0706,-2.04,-2.0189,-1.9798,-1.9684,-1.9423,-1.908,-1.9003,-1.8988,-1.9176,-1.8936,-1.8997,-1.9369,-1.9369,-1.953,-1.9782,-1.996,-1.9945,-2.0185,-2.0254,-2.027,-2.0304,-2.0304,-2.0304,-2.0392,-2.0877,-2.1245,-2.1601,-2.1738,-2.1886,-2.2106,-2.2282,-2.2299,-2.2327,-2.2327,-2.2327,-2.2327,-2.2327,-2.2327,-2.2327,-2.2377,-2.2388,-2.2377,-2.249,-2.266,-2.2807,-2.2935,-2.3164,-2.3353,-2.3518,-2.3738,-2.3848,-2.3545,-2.2813,-2.2134,-2.1437,-2.0611,-1.9709,-1.9305,-1.9305,-1.9323,-1.9357,-1.9372,-2.2069,-2.1807,-2.1807,-2.1807,-2.1807,-2.1807,-2.1883,-2.1959,-2.2252,-2.2413,-2.2467,-2.2277,-2.2386,-2.2655,-2.2764,-2.31,-2.3484,-2.3488,-2.3526,-2.3804,-2.3975,-2.397,-2.4049,-2.431,-2.4226,-2.3862,-2.3951,-2.391,-2.3637,-2.345,-2.3185,-2.2742,-2.2033,-2.1738,-2.1475,-2.0835,-2.0373,-2.0553,-2.0399,-2.0334,-2.0649,-2.0749,-2.0885,-2.1229,-2.1375,-2.152,-2.1554,-2.1568,-2.152,-2.1492,-2.1411,-2.1349,-2.1129,-2.0726,-2.0203,-1.9683,-1.9432,-1.9181,-1.8604,-1.8425,-1.8386,-1.8464,-1.8606,-1.8784,-1.9035,-1.9161,-1.925,-1.9472,-1.9747,-1.9823,-1.9859,-2.0135,-2.027,-2.0304,-2.0304,-2.0304,-2.0373,-2.0628,-2.1023,-2.1339,-2.1601,-2.1886,-2.2077,-2.2254,-2.2327,-2.2327,-2.2327,-2.2327,-2.2327,-2.2327,-2.2327,-2.2327,-2.231,-2.231,-2.2327,-2.25,-2.266,-2.2798,-2.295,-2.3242,-2.3427,-2.3522,-2.3656,-2.3808,-2.369,-2.318,-2.2501,-2.1785,-2.0868,-1.9913,-1.9583,-1.9341,-1.9305,-1.9323,-1.9305,-2.183,-2.1359,-2.1645,-2.1645,-2.1415,-2.1655,-2.1807,-2.1807,-2.2035,-2.2111,-2.2039,-2.1934,-2.2142,-2.2469,-2.2512,-2.2989,-2.3621,-2.391,-2.3976,-2.4189,-2.4237,-2.4225,-2.4115,-2.4234,-2.3893,-2.3479,-2.3409,-2.3282,-2.2982,-2.2702,-2.2628,-2.2444,-2.1768,-2.1333,-2.1215,-2.0568,-2.0288,-2.0355,-2.0181,-2.022,-2.0649,-2.0699,-2.0785,-2.0997,-2.1144,-2.1277,-2.1361,-2.141,-2.141,-2.141,-2.141,-2.141,-2.1295,-2.1035,-2.0464,-1.9706,-1.9386,-1.8933,-1.8235,-1.8029,-1.8043,-1.8069,-1.8293,-1.8436,-1.8514,-1.863,-1.876,-1.9049,-1.9551,-1.9803,-1.9833,-2.008,-2.027,-2.0304,-2.0304,-2.027,-2.0339,-2.0475,-2.0728,-2.1023,-2.1432,-2.1751,-2.1945,-2.2123,-2.2254,-2.2327,-2.2327,-2.2327,-2.2327,-2.2327,-2.2327,-2.2327,-2.2327,-2.2327,-2.2327,-2.2426,-2.2573,-2.2721,-2.295,-2.3242,-2.3473,-2.3584,-2.3692,-2.384,-2.3613,-2.3344,-2.285,-2.2116,-2.1125,-2.0262,-2.0079,-1.984,-1.9455,-1.9286,-1.9286,-2.1669,-2.1098,-2.1568,-2.1492,-2.1175,-2.1568,-2.1807,-2.1807,-2.1807,-2.1807,-2.1756,-2.1765,-2.1924,-2.2307,-2.2475,-2.2809,-2.353,-2.3801,-2.3925,-2.3952,-2.3921,-2.3944,-2.4028,-2.3569,-2.3225,-2.3148,-2.2798,-2.2528,-2.2457,-2.2187,-2.2125,-2.1969,-2.1366,-2.1033,-2.0945,-2.0504,-2.0237,-2.0176,-1.9947,-2.0156,-2.0461,-2.0586,-2.0699,-2.0898,-2.0947,-2.1046,-2.118,-2.1068,-2.1006,-2.1006,-2.1055,-2.1068,-2.1104,-2.1215,-2.0698,-1.9714,-1.9499,-1.8882,-1.8166,-1.7814,-1.7828,-1.7828,-1.7882,-1.8016,-1.8121,-1.8135,-1.8109,-1.85,-1.8983,-1.9464,-1.9545,-1.9919,-2.0096,-2.0235,-2.0235,-2.022,-2.0239,-2.0308,-2.0392,-2.0811,-2.1276,-2.1601,-2.1781,-2.2106,-2.2282,-2.2327,-2.2327,-2.2327,-2.2327,-2.2327,-2.2327,-2.2327,-2.2327,-2.2327,-2.2327,-2.2327,-2.2426,-2.2535,-2.2841,-2.3188,-2.3422,-2.3624,-2.3732,-2.3858,-2.3662,-2.3378,-2.2923,-2.2446,-2.1584,-2.0941,-2.0668,-2.0207,-1.9565,-1.9305,-1.9286,-2.191,-2.1731,-2.1721,-2.1731,-2.1655,-2.1655,-2.1731,-2.1721,-2.1634,-2.1807,-2.1721,-2.18,-2.191,-2.236,-2.2723,-2.2936,-2.3054,-2.3224,-2.3446,-2.3621,-2.3352,-2.3568,-2.3899,-2.3178,-2.2898,-2.2775,-2.2325,-2.2005,-2.1934,-2.1889,-2.1702,-2.142,-2.1313,-2.1054,-2.0953,-2.0511,-2.0474,-2.0638,-2.0001,-1.9773,-2.0028,-2.0093,-2.0321,-2.0586,-2.0686,-2.0736,-2.0736,-2.0472,-2.0245,-2.0245,-2.0194,-2.0194,-2.0245,-2.0586,-2.0092,-1.943,-1.9065,-1.8812,-1.7783,-1.7557,-1.7557,-1.7611,-1.7747,-1.7868,-1.7868,-1.7895,-1.7909,-1.7963,-1.8358,-1.876,-1.9093,-1.9369,-1.9639,-1.9904,-2.0076,-2.01,-2.0139,-2.0204,-2.0289,-2.046,-2.0942,-2.1308,-2.1601,-2.1991,-2.2327,-2.2327,-2.2327,-2.2327,-2.2327,-2.2327,-2.2327,-2.2327,-2.2327,-2.2327,-2.2327,-2.2327,-2.2394,-2.2432,-2.2773,-2.3133,-2.3376,-2.3602,-2.3753,-2.3785,-2.3644,-2.3411,-2.2958,-2.2465,-2.1951,-2.1473,-2.1015,-2.0262,-1.947,-1.9341,-1.9271,-2.1024,-2.0779,-2.1098,-2.0867,-2.0323,-2.0547,-2.0692,-2.0643,-2.0532,-2.0801,-2.1171,-2.1055,-2.1322,-2.2048,-2.2478,-2.2617,-2.2703,-2.2852,-2.3075,-2.3213,-2.3054,-2.3212,-2.3555,-2.3142,-2.2742,-2.25,-2.2166,-2.177,-2.1614,-2.1526,-2.14,-2.125,-2.1116,-2.0896,-2.0871,-2.0514,-2.0264,-2.006,-1.9708,-1.956,-1.9666,-1.985,-2.0093,-2.0271,-2.0334,-2.0321,-2.022,-1.9914,-1.9656,-1.9656,-1.9656,-1.9656,-1.9759,-1.9965,-1.9872,-1.9217,-1.9071,-1.8506,-1.756,-1.7487,-1.7434,-1.7393,-1.7529,-1.7611,-1.757,-1.7611,-1.7652,-1.7652,-1.8082,-1.8453,-1.8811,-1.9211,-1.9553,-1.9822,-1.9914,-2.001,-2.005,-2.01,-2.0185,-2.0392,-2.0561,-2.0942,-2.1276,-2.1631,-2.1932,-2.202,-2.2152,-2.2327,-2.2327,-2.2327,-2.2327,-2.2327,-2.2327,-2.2327,-2.2327,-2.2327,-2.2432,-2.2552,-2.2807,-2.3116,-2.3371,-2.3598,-2.3732,-2.3837,-2.3767,-2.3444,-2.2993,-2.2849,-2.2648,-2.2006,-2.1272,-2.0409,-1.9601,-1.9308,-1.9271,-2.0052,-1.9766,-2.0391,-2.0079,-1.9301,-1.9668,-1.9828,-1.9792,-1.9612,-1.9897,-2.044,-2.0557,-2.1008,-2.1573,-2.2025,-2.2176,-2.2014,-2.2467,-2.2777,-2.2756,-2.2785,-2.2966,-2.3055,-2.2853,-2.2396,-2.243,-2.1765,-2.1379,-2.1168,-2.1094,-2.1094,-2.1169,-2.1187,-2.1026,-2.0722,-2.0611,-2.041,-1.969,-1.9583,-1.945,-1.9336,-1.95,-1.9695,-1.9798,-1.985,-1.985,-1.9798,-1.946,-1.9263,-1.9263,-1.9263,-1.9263,-1.9303,-1.9579,-1.9623,-1.9192,-1.8945,-1.8408,-1.7726,-1.7481,-1.7363,-1.7323,-1.731,-1.7393,-1.7269,-1.7352,-1.7434,-1.7447,-1.7679,-1.8139,-1.853,-1.8807,-1.9145,-1.9428,-1.9698,-1.9848,-1.9975,-1.996,-2.003,-2.022,-2.0357,-2.0494,-2.0877,-2.1261,-2.1509,-2.1691,-2.1932,-2.2225,-2.2282,-2.2254,-2.2282,-2.2282,-2.2327,-2.2327,-2.2327,-2.2338,-2.246,-2.2579,-2.2833,-2.306,-2.3277,-2.3486,-2.3685,-2.3771,-2.3777,-2.334,-2.2797,-2.3136,-2.3325,-2.197,-2.0814,-2.0409,-1.9858,-1.9476,-1.9225,-1.9417,-1.9161,-1.9678,-1.9904,-1.9747,-1.9894,-1.9695,-1.9335,-1.9345,-1.9428,-1.9698,-2.0467,-2.0767,-2.1024,-2.139,-2.1497,-2.1068,-2.1634,-2.2101,-2.2179,-2.203,-2.2412,-2.2502,-2.2265,-2.1743,-2.1753,-2.1497,-2.114,-2.0781,-2.0941,-2.1024,-2.1169,-2.1169,-2.121,-2.106,-2.083,-2.0427,-1.9784,-1.9471,-1.9174,-1.8958,-1.8999,-1.9158,-1.9368,-1.942,-1.942,-1.942,-1.9052,-1.8851,-1.8839,-1.8851,-1.8851,-1.8893,-1.9251,-1.9292,-1.9208,-1.8694,-1.8325,-1.8033,-1.7542,-1.728,-1.7212,-1.724,-1.724,-1.7199,-1.7199,-1.7253,-1.724,-1.7434,-1.7584,-1.7815,-1.8002,-1.8514,-1.8955,-1.9294,-1.9472,-1.9603,-1.9747,-1.9818,-2.003,-2.0185,-2.0323,-2.0494,-2.0861,-2.1135,-2.1324,-2.1691,-2.1974,-2.2089,-2.2118,-2.222,-2.2248,-2.2282,-2.2327,-2.2327,-2.2366,-2.2394,-2.2487,-2.2668,-2.2859,-2.306,-2.3324,-2.3553,-2.349,-2.344,-2.3006,-2.2521,-2.2319,-2.1895,-2.1077,-2.038,-2.0057,-1.9693,-1.9239,-1.9079,-1.8484,-1.8442,-1.8665,-1.8736,-1.8736,-1.8736,-1.8522,-1.827,-1.8234,-1.84,-1.8637,-1.9306,-1.9664,-1.9879,-2.0456,-2.0772,-2.0671,-2.1486,-2.1766,-2.1928,-2.1899,-2.2136,-2.2243,-2.2037,-2.1691,-2.1815,-2.1652,-2.1174,-2.0725,-2.1034,-2.0955,-2.1081,-2.1129,-2.1169,-2.1129,-2.0749,-2.0136,-1.9723,-1.9137,-1.8594,-1.8553,-1.8691,-1.8905,-1.9011,-1.9052,-1.9064,-1.8958,-1.8637,-1.8476,-1.8422,-1.8422,-1.8422,-1.8464,-1.8839,-1.9089,-1.9143,-1.8635,-1.8371,-1.8326,-1.7718,-1.7225,-1.7212,-1.7212,-1.7212,-1.7212,-1.7212,-1.7212,-1.7212,-1.7212,-1.7378,-1.7704,-1.7828,-1.8095,-1.852,-1.8817,-1.8988,-1.9273,-1.9457,-1.9726,-1.994,-2.001,-2.0131,-2.0289,-2.0512,-2.0745,-2.0974,-2.137,-2.1735,-2.1836,-2.1953,-2.2039,-2.2169,-2.2231,-2.2282,-2.2327,-2.2327,-2.2327,-2.2394,-2.2515,-2.2694,-2.2902,-2.3084,-2.3242,-2.3206,-2.2891,-2.2278,-2.1693,-2.1138,-2.0596,-2.0119,-1.9921,-1.9795,-1.9416,-1.8982,-1.8963,-1.8031,-1.8031,-1.8031,-1.8031,-1.8031,-1.8031,-1.7757,-1.7372,-1.7501,-1.7646,-1.7979,-1.8535,-1.8748,-1.9003,-1.9752,-2.0061,-2.0168,-2.0651,-2.1068,-2.1231,-2.1385,-2.1645,-2.1834,-2.1829,-2.1679,-2.1865,-2.1757,-2.1305,-2.0764,-2.1427,-2.1289,-2.1126,-2.1168,-2.1353,-2.1072,-2.0538,-2.0056,-1.9711,-1.931,-1.8508,-1.855,-1.8666,-1.8677,-1.8642,-1.8572,-1.8572,-1.8518,-1.8302,-1.8193,-1.8139,-1.8139,-1.8139,-1.8247,-1.841,-1.8786,-1.8778,-1.8572,-1.8196,-1.8193,-1.7844,-1.7238,-1.7212,-1.7212,-1.7212,-1.7212,-1.7212,-1.7212,-1.7212,-1.7212,-1.7334,-1.7633,-1.7583,-1.7774,-1.8137,-1.8228,-1.8461,-1.8959,-1.9273,-1.9581,-1.9848,-1.9919,-1.999,-2.015,-2.0376,-2.0679,-2.0877,-2.1071,-2.1368,-2.1546,-2.1694,-2.1874,-2.1989,-2.2136,-2.2231,-2.2327,-2.2327,-2.2327,-2.231,-2.2432,-2.2552,-2.2747,-2.2927,-2.3042,-2.3076,-2.2582,-2.1616,-2.0923,-2.0385,-1.9896,-1.942,-1.9337,-1.9288,-1.9108,-1.8753,-1.8895,-1.8031,-1.8031,-1.8014,-1.7917,-1.7989,-1.7951,-1.7612,-1.7055,-1.7201,-1.7532,-1.7766,-1.8267,-1.8434,-1.855,-1.9219,-1.9444,-1.9431,-1.9837,-2.0294,-2.0459,-2.1011,-2.1098,-2.1211,-2.146,-2.1533,-2.1199,-2.1161,-2.109,-2.0895,-2.1274,-2.1291,-2.111,-2.1091,-2.132,-2.1181,-2.1198,-2.0848,-2.0412,-2.0171,-1.9482,-1.8873,-1.8711,-1.8548,-1.834,-1.8247,-1.8247,-1.8193,-1.8193,-1.8084,-1.8084,-1.8084,-1.8084,-1.8139,-1.8139,-1.841,-1.878,-1.7867,-1.7531,-1.7687,-1.737,-1.7177,-1.7212,-1.7212,-1.7212,-1.7212,-1.7212,-1.7212,-1.7212,-1.7212,-1.7212,-1.7253,-1.7295,-1.7543,-1.7706,-1.7801,-1.8147,-1.8693,-1.9124,-1.9435,-1.9741,-1.9812,-1.9869,-2.0045,-2.0289,-2.0646,-2.0811,-2.0844,-2.0991,-2.1147,-2.1332,-2.1516,-2.1691,-2.1824,-2.2056,-2.2168,-2.2282,-2.2327,-2.231,-2.2366,-2.246,-2.2569,-2.2659,-2.279,-2.2915,-2.2108,-2.1018,-2.0278,-1.9641,-1.9164,-1.8749,-1.8755,-1.869,-1.8563,-1.8603,-1.8789,-1.8031,-1.7989,-1.7501,-1.7441,-1.7638,-1.7663,-1.7372,-1.6901,-1.6576,-1.6577,-1.682,-1.7113,-1.7075,-1.7384,-1.829,-1.8866,-1.8875,-2.01,-2.0537,-2.0527,-2.1058,-2.1415,-2.1517,-2.1377,-2.1395,-2.1335,-2.1182,-2.1129,-2.133,-2.1261,-2.094,-2.0775,-2.0402,-2.0456,-2.0835,-2.0882,-2.0412,-1.993,-1.9539,-1.9046,-1.8439,-1.837,-1.8313,-1.8107,-1.803,-1.803,-1.803,-1.803,-1.803,-1.803,-1.803,-1.8084,-1.8084,-1.8084,-1.8302,-1.846,-1.7777,-1.7013,-1.6888,-1.6585,-1.6774,-1.6989,-1.717,-1.7115,-1.7199,-1.7212,-1.7212,-1.7212,-1.7212,-1.7212,-1.7212,-1.7212,-1.7378,-1.7447,-1.7625,-1.8068,-1.8539,-1.8936,-1.925,-1.9581,-1.9777,-1.9762,-1.9904,-2.0096,-2.0392,-2.0527,-2.0527,-2.0527,-2.0682,-2.0894,-2.107,-2.1269,-2.145,-2.179,-2.1991,-2.2094,-2.2197,-2.2225,-2.2254,-2.2338,-2.2422,-2.2487,-2.2497,-2.2624,-2.1507,-2.0407,-1.9828,-1.9209,-1.8501,-1.8121,-1.8243,-1.8391,-1.8448,-1.8584,-1.8807,-1.7569,-1.7398,-1.6935,-1.6773,-1.691,-1.7021,-1.6995,-1.6773,-1.6156,-1.6011,-1.6392,-1.6465,-1.6465,-1.6802,-1.7576,-1.8151,-1.8279,-1.9322,-1.9937,-2.0101,-2.0867,-2.0989,-2.1059,-2.1285,-2.1401,-2.1355,-2.1032,-2.0965,-2.0571,-2.0786,-2.0471,-1.9876,-1.9261,-1.9571,-2.0029,-1.9976,-1.989,-1.9625,-1.9437,-1.9148,-1.8498,-1.816,-1.8126,-1.7801,-1.7567,-1.7512,-1.7678,-1.7799,-1.7799,-1.7854,-1.7963,-1.8073,-1.8073,-1.8139,-1.8167,-1.799,-1.7369,-1.6562,-1.6161,-1.6041,-1.6306,-1.6748,-1.6833,-1.6905,-1.6976,-1.6976,-1.7115,-1.7157,-1.7199,-1.7199,-1.7199,-1.7199,-1.724,-1.731,-1.7475,-1.7868,-1.8187,-1.8577,-1.8936,-1.9273,-1.9545,-1.9581,-1.9726,-1.9919,-2.0131,-2.0166,-2.0181,-2.02,-2.027,-2.0545,-2.0747,-2.0911,-2.1146,-2.1475,-2.1738,-2.1903,-2.1991,-2.2123,-2.218,-2.2254,-2.2327,-2.2394,-2.2338,-2.2226,-2.1407,-2.0569,-1.9578,-1.8826,-1.8246,-1.7946,-1.7966,-1.8121,-1.8287,-1.8526,-1.8752,-1.6687,-1.6444,-1.6392,-1.6096,-1.5899,-1.6156,-1.6456,-1.6756,-1.6096,-1.6002,-1.6401,-1.6627,-1.6567,-1.6502,-1.7458,-1.7759,-1.7709,-1.8252,-1.8484,-1.8887,-1.9829,-2.0017,-2.0502,-2.0964,-2.0868,-2.0737,-2.0497,-2.0028,-1.9374,-1.9575,-1.9515,-1.9042,-1.8502,-1.8465,-1.8547,-1.8807,-1.8964,-1.9116,-1.9249,-1.874,-1.8057,-1.8152,-1.7813,-1.7351,-1.6866,-1.6877,-1.7034,-1.7146,-1.7202,-1.7379,-1.7733,-1.7941,-1.8061,-1.8084,-1.7817,-1.7243,-1.6466,-1.6091,-1.5655,-1.5614,-1.5748,-1.61,-1.6144,-1.6349,-1.6565,-1.6693,-1.6833,-1.6989,-1.7073,-1.7157,-1.7199,-1.7199,-1.7212,-1.724,-1.7269,-1.7557,-1.7801,-1.8147,-1.8461,-1.8769,-1.9087,-1.9288,-1.9545,-1.9777,-1.9741,-1.969,-1.9711,-1.994,-2.008,-2.0392,-2.0597,-2.0649,-2.0911,-2.1181,-2.1401,-2.1617,-2.1721,-2.1781,-2.2049,-2.2152,-2.2225,-2.2282,-2.2327,-2.2124,-2.16,-2.072,-1.9502,-1.8691,-1.8099,-1.7918,-1.789,-1.8014,-1.8225,-1.8408,-1.8622,-1.6447,-1.6259,-1.5497,-1.5249,-1.536,-1.5232,-1.5377,-1.5668,-1.5728,-1.5882,-1.5968,-1.6071,-1.6165,-1.6405,-1.6961,-1.7107,-1.7414,-1.7808,-1.8078,-1.8497,-1.8938,-1.9209,-1.9529,-1.9785,-1.9778,-1.9558,-1.9354,-1.9321,-1.916,-1.8975,-1.8325,-1.7919,-1.7254,-1.69,-1.6959,-1.7109,-1.7782,-1.8333,-1.8594,-1.8041,-1.7529,-1.742,-1.7053,-1.6613,-1.6353,-1.6353,-1.6482,-1.6585,-1.6698,-1.7202,-1.7313,-1.7511,-1.7611,-1.7875,-1.7806,-1.695,-1.6446,-1.6132,-1.5452,-1.5244,-1.5334,-1.548,-1.548,-1.5824,-1.61,-1.6411,-1.651,-1.685,-1.7008,-1.7063,-1.7154,-1.7199,-1.7212,-1.724,-1.7282,-1.7475,-1.772,-1.7908,-1.8226,-1.8461,-1.8784,-1.9011,-1.9325,-1.9325,-1.9288,-1.9184,-1.9258,-1.9515,-1.9854,-2.0204,-2.041,-2.0514,-2.0648,-2.0893,-2.1055,-2.123,-2.1339,-2.1493,-2.1751,-2.1945,-2.1961,-2.202,-2.2225,-2.2029,-2.1518,-2.0465,-1.9215,-1.8674,-1.8521,-1.8014,-1.7918,-1.8027,-1.8142,-1.8325,-1.8485,-1.5521,-1.5369,-1.4744,-1.4495,-1.4521,-1.4478,-1.459,-1.4829,-1.5197,-1.536,-1.5377,-1.5514,-1.5608,-1.5711,-1.6173,-1.6388,-1.6297,-1.6883,-1.7189,-1.7306,-1.8078,-1.8119,-1.8276,-1.8585,-1.8616,-1.8375,-1.8257,-1.8322,-1.8197,-1.7497,-1.6775,-1.6751,-1.5836,-1.5792,-1.5865,-1.6011,-1.6334,-1.7091,-1.7466,-1.7043,-1.6728,-1.6608,-1.6456,-1.6073,-1.5906,-1.5888,-1.5921,-1.5968,-1.6234,-1.6746,-1.6881,-1.7102,-1.7162,-1.7347,-1.7117,-1.6321,-1.5971,-1.567,-1.5234,-1.5119,-1.5119,-1.5119,-1.5119,-1.5334,-1.5733,-1.6053,-1.6539,-1.6955,-1.6979,-1.7046,-1.7161,-1.7212,-1.7212,-1.7212,-1.7365,-1.7529,-1.7679,-1.7787,-1.8028,-1.824,-1.8475,-1.8745,-1.886,-1.8874,-1.8874,-1.8808,-1.8884,-1.9072,-1.953,-2.001,-2.022,-2.0342,-2.0444,-2.0628,-2.0761,-2.0877,-2.1007,-2.1182,-2.1401,-2.157,-2.1631,-2.1721,-2.1827,-2.1695,-2.1412,-2.0512,-1.9732,-1.9444,-1.9232,-1.8718,-1.8414,-1.8631,-1.8596,-1.8284,-1.8415,-1.4112,-1.4144,-1.4059,-1.3879,-1.3596,-1.3913,-1.4067,-1.4093,-1.4444,-1.4641,-1.4761,-1.5,-1.4975,-1.506,-1.5471,-1.554,-1.5541,-1.5912,-1.6162,-1.5968,-1.6597,-1.6899,-1.702,-1.7496,-1.7438,-1.7424,-1.7379,-1.7306,-1.6355,-1.5896,-1.5746,-1.566,-1.5262,-1.5207,-1.5554,-1.5207,-1.5387,-1.5827,-1.6398,-1.6505,-1.5906,-1.5953,-1.6299,-1.5467,-1.5238,-1.5139,-1.5263,-1.5381,-1.5583,-1.5992,-1.6373,-1.6618,-1.6809,-1.6566,-1.6118,-1.5911,-1.5682,-1.5406,-1.5211,-1.5119,-1.5119,-1.5119,-1.5119,-1.5257,-1.559,-1.5739,-1.6194,-1.6709,-1.6767,-1.6982,-1.7096,-1.717,-1.7212,-1.7212,-1.7282,-1.7365,-1.7447,-1.7557,-1.7679,-1.7922,-1.8147,-1.8383,-1.8422,-1.8436,-1.8319,-1.8344,-1.85,-1.8655,-1.9072,-1.9675,-1.994,-2.0115,-2.0289,-2.0357,-2.0426,-2.0545,-2.0695,-2.0877,-2.1087,-2.1214,-2.1293,-2.1355,-2.1432,-2.1417,-2.1396,-2.1189,-2.0669,-2.0329,-1.9968,-1.963,-1.9427,-1.9444,-1.9209,-1.8716,-1.8272,-1.3725,-1.3743,-1.3653,-1.3588,-1.3528,-1.3605,-1.3656,-1.3656,-1.3742,-1.4136,-1.4564,-1.4487,-1.4495,-1.4667,-1.4795,-1.4838,-1.4904,-1.5005,-1.5184,-1.5207,-1.5482,-1.5564,-1.5482,-1.6038,-1.6087,-1.6053,-1.6184,-1.6429,-1.5833,-1.5257,-1.4863,-1.4975,-1.4758,-1.5022,-1.5247,-1.4815,-1.481,-1.4971,-1.5124,-1.5572,-1.5289,-1.5191,-1.5228,-1.4842,-1.4653,-1.4653,-1.4641,-1.4475,-1.4706,-1.5048,-1.5285,-1.5845,-1.6672,-1.615,-1.5946,-1.5877,-1.5576,-1.5267,-1.5108,-1.4971,-1.4926,-1.5062,-1.512,-1.5406,-1.5533,-1.5464,-1.568,-1.6232,-1.6629,-1.6845,-1.6999,-1.7099,-1.7157,-1.7157,-1.7212,-1.7199,-1.7212,-1.7282,-1.7406,-1.7598,-1.7868,-1.7948,-1.7962,-1.7922,-1.7801,-1.7841,-1.8042,-1.8266,-1.8655,-1.9147,-1.953,-1.9782,-2.008,-2.0185,-2.0185,-2.0254,-2.0392,-2.0527,-2.0712,-2.0811,-2.0925,-2.0991,-2.1103,-2.1354,-2.142,-2.1255,-2.1128,-2.1019,-2.0685,-2.0475,-2.0306,-2.0255,-1.9875,-1.9379,-1.8631,-1.2302,-1.246,-1.2661,-1.2765,-1.2826,-1.3147,-1.3277,-1.3338,-1.345,-1.3742,-1.411,-1.3956,-1.3964,-1.4161,-1.4161,-1.4204,-1.4238,-1.4341,-1.4319,-1.4264,-1.4375,-1.4328,-1.4504,-1.478,-1.4829,-1.4889,-1.5463,-1.5644,-1.5292,-1.5223,-1.4958,-1.4838,-1.4786,-1.4795,-1.4932,-1.4818,-1.4538,-1.4487,-1.4355,-1.4426,-1.4698,-1.4796,-1.468,-1.4454,-1.4445,-1.4381,-1.397,-1.3784,-1.4026,-1.426,-1.4518,-1.45,-1.4913,-1.4672,-1.4825,-1.4898,-1.489,-1.4799,-1.4729,-1.464,-1.4593,-1.4686,-1.4789,-1.4944,-1.5315,-1.5326,-1.5637,-1.6128,-1.642,-1.663,-1.6604,-1.662,-1.6778,-1.685,-1.6934,-1.6976,-1.7115,-1.724,-1.7282,-1.7365,-1.7516,-1.7516,-1.7557,-1.7557,-1.7434,-1.7447,-1.7639,-1.7841,-1.8266,-1.864,-1.9035,-1.9384,-1.9675,-1.9975,-2.0096,-2.0096,-2.0166,-2.027,-2.0357,-2.0392,-2.0494,-2.063,-2.078,-2.0975,-2.1197,-2.136,-2.1259,-2.1317,-2.1518,-2.1437,-2.1218,-2.1032,-2.0585,-2.0094,-1.9459,-1.0739,-1.1073,-1.1516,-1.1703,-1.1764,-1.2358,-1.2687,-1.2773,-1.3097,-1.3278,-1.3388,-1.3501,-1.3511,-1.3511,-1.3511,-1.3511,-1.3588,-1.3785,-1.3639,-1.3613,-1.3631,-1.3742,-1.387,-1.4007,-1.4262,-1.4504,-1.4875,-1.4844,-1.4667,-1.4649,-1.4692,-1.4898,-1.4941,-1.4906,-1.5086,-1.4786,-1.4268,-1.434,-1.4223,-1.3873,-1.4125,-1.4425,-1.4344,-1.4344,-1.4317,-1.4165,-1.3669,-1.3343,-1.3451,-1.3509,-1.3684,-1.3711,-1.3695,-1.3697,-1.3809,-1.3979,-1.3905,-1.3958,-1.3988,-1.3894,-1.3988,-1.4082,-1.4222,-1.4512,-1.4846,-1.5211,-1.5533,-1.5776,-1.6009,-1.6284,-1.6215,-1.6275,-1.6436,-1.668,-1.6765,-1.685,-1.7073,-1.7199,-1.7199,-1.724,-1.7199,-1.7199,-1.7199,-1.7186,-1.7199,-1.7199,-1.7282,-1.7488,-1.776,-1.8108,-1.85,-1.8884,-1.9221,-1.953,-1.9884,-1.999,-1.999,-2.0131,-2.0185,-2.0096,-2.0061,-2.0273,-2.0429,-2.0514,-2.0732,-2.1101,-2.1502,-2.1682,-2.191,-2.2079,-2.1921,-2.1589,-2.138,-2.0889,-2.0408,-1.0554,-1.101,-1.1135,-1.1135,-1.1162,-1.1192,-1.1228,-1.145,-1.1962,-1.2302,-1.2651,-1.3243,-1.3511,-1.3502,-1.3511,-1.3511,-1.3511,-1.3511,-1.3511,-1.3519,-1.3519,-1.3511,-1.3579,-1.3882,-1.4267,-1.4356,-1.4331,-1.423,-1.4094,-1.3987,-1.3879,-1.3876,-1.4183,-1.4217,-1.4307,-1.4076,-1.3936,-1.4018,-1.3769,-1.3424,-1.3379,-1.3723,-1.4045,-1.3957,-1.3744,-1.3651,-1.3283,-1.2777,-1.2645,-1.2586,-1.2688,-1.2831,-1.292,-1.2977,-1.316,-1.3208,-1.3112,-1.3218,-1.3266,-1.3218,-1.3314,-1.3447,-1.3637,-1.392,-1.4305,-1.4686,-1.4925,-1.4925,-1.5246,-1.5849,-1.5913,-1.6057,-1.6219,-1.6607,-1.6778,-1.6947,-1.7157,-1.7157,-1.7157,-1.7157,-1.7157,-1.7157,-1.7144,-1.7144,-1.7115,-1.7115,-1.7144,-1.7352,-1.7598,-1.7801,-1.8002,-1.8344,-1.8769,-1.9273,-1.969,-1.9812,-1.9884,-1.999,-2.001,-1.9869,-1.9869,-2.0025,-2.0115,-2.0189,-2.0548,-2.0975,-2.1354,-2.1675,-2.2003,-2.2113,-2.2231,-2.2124,-2.1938,-2.1562,-2.0935]}]]